[[{"header":{"parameterUnit":"m.s-1","parameterCategory":1,"la1":30.6,"la2":29.2853,"lo1":-89.7004,"lo2":-87.6739,"dx":0.0162,"dy":0.0183,"nx":112,"ny":82,"refTime":"2023-01-30T06:00:00:Z","depth":0,"parameterNumber":2,"parameterNumberName":"U-component_of_WINDS"},"data":[0.0,0.0,0.0,0.0,0.0,0.0,0.0,0.0,0.0,0.0,0.0,0.0,0.0,0.0,0.0,0.0,0.0,0.0,0.0,0.0,0.0,0.0,0.0,0.0,0.0,0.0,0.0,0.0,0.0,0.0,0.0,0.0,0.0,0.0,0.0,0.0,0.0,0.0,0.0,0.0,0.0,0.0,0.0,0.0,0.0,0.0,0.0,0.0,0.0,0.0,0.0,0.0,0.0,0.0,0.0,0.0,0.0,0.0,0.0,0.0,0.0,0.0,0.0,0.0,0.0,0.0,0.0,0.0,0.0,0.0,0.0,0.0,0.0,0.0,0.0,0.0,0.0,0.0,0.0,0.0,0.0,0.0,0.0,0.0,0.0,0.0,0.0,0.0,0.0,0.0,0.0,-1.7587,-2.0086,-2.1734,-2.1845,-2.2738,-2.1884,-1.8557,0.0,0.0,0.0,0.0,0.0,0.0,0.0,0.0,0.0,0.0,0.0,0.0,0.0,0.0,0.0,0.0,0.0,0.0,0.0,0.0,0.0,0.0,0.0,0.0,0.0,0.0,0.0,0.0,0.0,0.0,0.0,0.0,0.0,0.0,0.0,0.0,0.0,0.0,0.0,0.0,0.0,0.0,0.0,0.0,0.0,0.0,0.0,0.0,0.0,0.0,0.0,0.0,0.0,0.0,0.0,0.0,0.0,0.0,0.0,0.0,0.0,0.0,0.0,0.0,0.0,0.0,0.0,0.0,0.0,0.0,0.0,0.0,0.0,0.0,0.0,0.0,0.0,0.0,0.0,0.0,0.0,0.0,0.0,0.0,0.0,0.0,0.0,0.0,0.0,0.0,0.0,0.0,0.0,0.0,0.0,0.0,0.0,0.0,0.0,0.0,0.0,0.0,0.0,0.0,-1.7106,-1.866,-2.0549,-2.1921,-2.2498,-2.2192,-2.1263,-1.9566,0.0,0.0,0.0,0.0,0.0,0.0,0.0,0.0,0.0,0.0,0.0,0.0,0.0,0.0,0.0,0.0,0.0,0.0,0.0,0.0,0.0,0.0,0.0,0.0,0.0,0.0,0.0,0.0,0.0,0.0,0.0,0.0,0.0,0.0,0.0,0.0,0.0,0.0,0.0,0.0,0.0,0.0,0.0,0.0,0.0,0.0,0.0,0.0,0.0,0.0,0.0,0.0,0.0,0.0,0.0,0.0,0.0,0.0,0.0,0.0,0.0,0.0,0.0,0.0,0.0,0.0,0.0,0.0,0.0,0.0,0.0,0.0,0.0,0.0,0.0,0.0,0.0,0.0,0.0,0.0,0.0,0.0,0.0,0.0,0.0,0.0,0.0,0.0,0.0,0.0,0.0,0.0,0.0,0.0,0.0,0.0,0.0,0.0,0.0,0.0,0.0,0.0,0.0,-1.6165,-1.6917,-1.8056,-1.9455,-2.0537,-2.1131,-2.0904,-2.0177,-1.8907,-1.8889,0.0,0.0,0.0,0.0,0.0,0.0,0.0,0.0,0.0,0.0,0.0,0.0,0.0,0.0,0.0,0.0,0.0,0.0,0.0,0.0,0.0,0.0,0.0,0.0,0.0,0.0,0.0,0.0,0.0,0.0,0.0,0.0,0.0,0.0,0.0,0.0,0.0,0.0,0.0,0.0,0.0,0.0,0.0,0.0,0.0,0.0,0.0,0.0,0.0,0.0,0.0,0.0,0.0,0.0,0.0,0.0,0.0,0.0,0.0,0.0,0.0,0.0,0.0,0.0,0.0,0.0,0.0,0.0,0.0,0.0,0.0,0.0,0.0,0.0,0.0,0.0,0.0,0.0,0.0,0.0,0.0,0.0,0.0,0.0,0.0,0.0,0.0,0.0,0.0,0.0,0.0,0.0,0.0,0.0,0.0,0.0,0.0,0.0,0.0,0.0,0.0,0.0,-1.6368,-1.6883,-1.7361,-1.8413,-1.9324,-1.9858,-1.9607,-1.9083,-1.8289,-1.7851,0.0,0.0,0.0,0.0,0.0,0.0,0.0,0.0,0.0,0.0,0.0,0.0,0.0,0.0,0.0,0.0,0.0,0.0,0.0,0.0,0.0,0.0,0.0,0.0,0.0,0.0,0.0,0.0,0.0,0.0,0.0,0.0,0.0,0.0,0.0,0.0,0.0,0.0,0.0,0.0,0.0,0.0,0.0,0.0,0.0,0.0,0.0,0.0,0.0,0.0,0.0,0.0,0.0,0.0,0.0,0.0,0.0,0.0,0.0,0.0,0.0,0.0,0.0,0.0,0.0,0.0,0.0,0.0,0.0,0.0,0.0,0.0,0.0,0.0,0.0,0.0,0.0,0.0,0.0,0.0,0.0,0.0,0.0,0.0,0.0,0.0,0.0,0.0,0.0,0.0,0.0,0.0,0.0,0.0,0.0,0.0,0.0,0.0,0.0,0.0,0.0,0.0,-1.697,-1.7346,-1.7406,-1.842,-1.9309,-1.9855,-1.8761,-1.822,-1.8633,-1.7145,0.0,0.0,0.0,0.0,0.0,0.0,0.0,0.0,0.0,0.0,0.0,0.0,0.0,0.0,0.0,0.0,0.0,0.0,0.0,0.0,0.0,0.0,0.0,0.0,0.0,0.0,0.0,0.0,0.0,0.0,0.0,0.0,0.0,0.0,0.0,0.0,0.0,0.0,0.0,0.0,0.0,0.0,0.0,0.0,0.0,0.0,0.0,0.0,0.0,0.0,0.0,0.0,0.0,0.0,0.0,0.0,0.0,0.0,0.0,0.0,0.0,0.0,0.0,0.0,0.0,0.0,0.0,0.0,0.0,0.0,0.0,0.0,0.0,0.0,0.0,0.0,0.0,0.0,0.0,0.0,0.0,0.0,0.0,0.0,0.0,0.0,0.0,0.0,0.0,0.0,0.0,0.0,0.0,0.0,0.0,0.0,0.0,0.0,0.0,0.0,0.0,0.0,-1.5874,-1.6056,0.0,-1.7235,-1.77,-1.8216,-1.7813,-1.7428,-1.7212,0.0,0.0,0.0,0.0,0.0,0.0,0.0,0.0,0.0,0.0,0.0,0.0,0.0,0.0,0.0,0.0,0.0,0.0,0.0,0.0,0.0,0.0,0.0,0.0,0.0,0.0,0.0,0.0,0.0,0.0,0.0,0.0,0.0,0.0,0.0,0.0,0.0,0.0,0.0,0.0,0.0,0.0,0.0,0.0,0.0,0.0,0.0,0.0,0.0,0.0,0.0,0.0,0.0,0.0,0.0,0.0,0.0,0.0,0.0,0.0,0.0,0.0,0.0,0.0,0.0,0.0,0.0,0.0,0.0,0.0,0.0,0.0,0.0,0.0,0.0,0.0,0.0,0.0,0.0,0.0,0.0,0.0,0.0,0.0,0.0,0.0,0.0,0.0,0.0,0.0,0.0,0.0,0.0,0.0,0.0,0.0,0.0,0.0,0.0,0.0,0.0,0.0,-1.5555,-1.5318,-1.5425,0.0,-1.65,-1.6717,-1.7248,-1.6937,-1.6662,-1.6555,0.0,0.0,0.0,0.0,0.0,0.0,0.0,0.0,0.0,0.0,0.0,0.0,0.0,0.0,0.0,0.0,0.0,0.0,0.0,0.0,0.0,0.0,0.0,0.0,0.0,0.0,0.0,0.0,0.0,0.0,0.0,0.0,0.0,0.0,0.0,0.0,0.0,0.0,0.0,0.0,0.0,0.0,0.0,0.0,0.0,0.0,0.0,0.0,0.0,0.0,0.0,0.0,0.0,0.0,0.0,0.0,0.0,0.0,0.0,0.0,0.0,0.0,0.0,0.0,0.0,0.0,0.0,0.0,0.0,0.0,0.0,0.0,0.0,0.0,0.0,0.0,0.0,0.0,0.0,0.0,0.0,0.0,0.0,0.0,0.0,0.0,0.0,0.0,0.0,0.0,0.0,0.0,0.0,0.0,0.0,0.0,0.0,0.0,0.0,0.0,0.0,0.0,-1.5539,-1.5622,-1.5819,-1.642,-1.65,-1.6717,-1.7248,-1.6136,-1.5887,0.0,0.0,0.0,0.0,0.0,0.0,0.0,0.0,0.0,0.0,0.0,0.0,0.0,0.0,0.0,0.0,0.0,0.0,0.0,0.0,0.0,0.0,0.0,0.0,0.0,0.0,0.0,0.0,0.0,0.0,0.0,0.0,0.0,0.0,0.0,0.0,0.0,0.0,0.0,0.0,0.0,0.0,0.0,0.0,0.0,0.0,0.0,0.0,0.0,0.0,0.0,0.0,0.0,0.0,0.0,0.0,0.0,0.0,0.0,0.0,0.0,0.0,0.0,0.0,0.0,0.0,0.0,0.0,0.0,0.0,0.0,0.0,0.0,0.0,0.0,0.0,0.0,0.0,0.0,0.0,0.0,0.0,0.0,0.0,0.0,0.0,0.0,0.0,0.0,0.0,0.0,0.0,0.0,0.0,0.0,0.0,0.0,0.0,0.0,0.0,0.0,0.0,0.0,-1.4426,-1.479,-1.5358,-1.6386,-1.65,-1.6568,-1.6717,-1.6386,-1.5988,-1.5504,0.0,0.0,0.0,0.0,0.0,0.0,0.0,0.0,0.0,0.0,0.0,0.0,0.0,0.0,0.0,0.0,0.0,0.0,0.0,0.0,0.0,0.0,0.0,0.0,0.0,0.0,0.0,0.0,0.0,0.0,0.0,0.0,0.0,0.0,0.0,0.0,0.0,0.0,0.0,0.0,0.0,0.0,0.0,0.0,0.0,0.0,0.0,0.0,0.0,0.0,0.0,0.0,0.0,0.0,0.0,0.0,0.0,0.0,0.0,0.0,0.0,0.0,0.0,0.0,0.0,0.0,0.0,0.0,0.0,0.0,0.0,0.0,0.0,0.0,0.0,0.0,0.0,0.0,0.0,0.0,0.0,0.0,0.0,0.0,0.0,0.0,0.0,0.0,0.0,0.0,0.0,0.0,0.0,0.0,0.0,0.0,0.0,0.0,0.0,0.0,0.0,0.0,-1.4227,-1.4586,-1.5157,-1.6373,-1.65,-1.65,-1.65,-1.65,-1.6203,-1.5526,0.0,0.0,0.0,0.0,0.0,0.0,0.0,0.0,0.0,0.0,0.0,0.0,0.0,0.0,0.0,0.0,0.0,0.0,0.0,0.0,0.0,0.0,0.0,0.0,0.0,0.0,0.0,0.0,0.0,0.0,0.0,0.0,0.0,0.0,0.0,0.0,0.0,0.0,0.0,0.0,0.0,0.0,0.0,0.0,0.0,0.0,0.0,0.0,0.0,0.0,0.0,0.0,0.0,0.0,0.0,0.0,0.0,0.0,0.0,0.0,0.0,0.0,0.0,0.0,0.0,0.0,0.0,0.0,0.0,0.0,0.0,0.0,0.0,0.0,0.0,0.0,0.0,0.0,0.0,0.0,0.0,0.0,0.0,0.0,0.0,0.0,0.0,0.0,0.0,0.0,0.0,0.0,0.0,0.0,0.0,0.0,0.0,0.0,0.0,0.0,0.0,0.0,-1.4673,-1.479,-1.5157,-1.6373,-1.65,-1.65,-1.65,-1.6556,-1.6568,-1.6488,0.0,0.0,0.0,0.0,0.0,0.0,0.0,0.0,0.0,0.0,0.0,0.0,0.0,0.0,0.0,0.0,0.0,0.0,0.0,0.0,0.0,0.0,0.0,0.0,0.0,0.0,0.0,0.0,0.0,0.0,0.0,0.0,0.0,0.0,0.0,0.0,0.0,0.0,0.0,0.0,0.0,0.0,0.0,0.0,0.0,0.0,0.0,0.0,0.0,0.0,0.0,0.0,0.0,0.0,0.0,0.0,0.0,0.0,0.0,0.0,-1.6553,0.0,0.0,0.0,0.0,0.0,0.0,0.0,0.0,0.0,0.0,0.0,0.0,0.0,0.0,0.0,0.0,0.0,0.0,0.0,0.0,0.0,0.0,0.0,0.0,0.0,0.0,0.0,0.0,0.0,0.0,0.0,0.0,0.0,0.0,0.0,0.0,0.0,0.0,0.0,0.0,0.0,-1.4794,-1.4824,-1.5157,-1.6373,-1.65,-1.65,-1.65,-1.6935,-1.6982,-1.6454,0.0,0.0,0.0,0.0,0.0,0.0,0.0,0.0,0.0,0.0,0.0,0.0,0.0,0.0,0.0,0.0,0.0,0.0,0.0,0.0,0.0,0.0,0.0,0.0,0.0,0.0,0.0,0.0,0.0,0.0,0.0,0.0,0.0,0.0,0.0,0.0,0.0,0.0,0.0,0.0,0.0,0.0,0.0,0.0,0.0,0.0,0.0,0.0,0.0,0.0,0.0,0.0,0.0,0.0,0.0,0.0,0.0,0.0,0.0,0.0,0.0,-1.5825,0.0,0.0,0.0,0.0,0.0,0.0,0.0,0.0,0.0,0.0,0.0,0.0,0.0,0.0,0.0,0.0,0.0,0.0,0.0,0.0,0.0,0.0,0.0,0.0,0.0,0.0,0.0,0.0,0.0,0.0,0.0,0.0,0.0,0.0,0.0,0.0,0.0,0.0,0.0,0.0,-1.5876,-1.5302,-1.5157,-1.6373,-1.65,-1.65,-1.65,-1.705,-1.7254,-1.6905,-1.674,0.0,0.0,0.0,0.0,0.0,0.0,0.0,0.0,0.0,0.0,0.0,0.0,0.0,0.0,0.0,0.0,0.0,0.0,0.0,0.0,0.0,0.0,0.0,0.0,0.0,0.0,0.0,0.0,0.0,0.0,0.0,0.0,0.0,0.0,0.0,0.0,0.0,0.0,0.0,0.0,0.0,0.0,0.0,0.0,0.0,0.0,0.0,0.0,0.0,0.0,0.0,0.0,0.0,0.0,-1.65,-1.6025,-1.7342,-1.7486,-1.6748,-1.6618,-1.6802,-1.709,0.0,0.0,0.0,0.0,0.0,0.0,0.0,0.0,0.0,0.0,0.0,0.0,0.0,0.0,0.0,0.0,0.0,0.0,0.0,0.0,0.0,0.0,0.0,0.0,0.0,-1.2939,-1.2671,0.0,0.0,0.0,0.0,0.0,0.0,0.0,0.0,0.0,0.0,0.0,0.0,-1.6906,-1.576,-1.5112,-1.6237,-1.6534,-1.667,-1.667,-1.7282,-1.7665,-1.7692,-1.6905,-1.6471,0.0,0.0,0.0,0.0,0.0,0.0,0.0,0.0,0.0,0.0,0.0,0.0,0.0,0.0,0.0,0.0,0.0,0.0,0.0,0.0,0.0,0.0,0.0,0.0,0.0,0.0,0.0,0.0,0.0,0.0,0.0,0.0,-1.8551,-1.9813,0.0,0.0,0.0,0.0,0.0,0.0,0.0,0.0,0.0,0.0,0.0,0.0,0.0,0.0,-1.7829,-1.7339,-1.7875,-1.9371,-1.8938,-1.9265,-2.0263,-1.9878,-2.0117,-2.0792,-1.8547,0.0,-1.6626,-1.6996,0.0,0.0,0.0,0.0,0.0,0.0,0.0,0.0,0.0,0.0,0.0,0.0,0.0,0.0,0.0,0.0,0.0,0.0,0.0,0.0,0.0,0.0,-1.4793,-1.333,-1.3169,-1.3363,0.0,-1.332,-1.3061,-1.2948,0.0,0.0,0.0,0.0,0.0,0.0,0.0,0.0,-1.6474,-1.545,-1.4957,-1.5639,-1.667,-1.7282,-1.7282,-1.8216,-1.879,-1.8802,-1.7908,-1.7615,-1.7995,-1.5989,0.0,0.0,0.0,0.0,0.0,0.0,0.0,0.0,0.0,0.0,0.0,0.0,0.0,0.0,0.0,0.0,0.0,0.0,0.0,0.0,0.0,0.0,0.0,0.0,0.0,0.0,0.0,0.0,0.0,-1.9794,-2.0693,-2.1199,-2.1262,-2.104,0.0,0.0,0.0,0.0,0.0,0.0,0.0,0.0,0.0,-1.7637,-1.7582,-1.8087,-1.9209,-1.9757,-2.0065,-2.0117,-2.0885,-2.1348,-2.1549,-2.1145,-2.1248,-2.1641,-1.9752,-1.8549,-1.7899,-1.7707,-1.7991,-1.8525,0.0,0.0,0.0,0.0,0.0,-1.7845,-1.7773,0.0,0.0,0.0,0.0,0.0,0.0,0.0,0.0,0.0,0.0,0.0,0.0,0.0,0.0,-1.4478,-1.4332,-1.4454,-1.4454,-1.4514,-1.4386,0.0,-1.4664,-1.5384,-1.4846,0.0,0.0,0.0,0.0,0.0,-1.747,-1.615,-1.5565,-1.6908,-1.7269,-1.7527,-1.7819,-1.8562,-1.8818,-1.8423,-1.7897,-1.75,-1.7286,-1.6369,-1.5811,0.0,0.0,0.0,0.0,0.0,0.0,0.0,0.0,0.0,0.0,0.0,0.0,0.0,0.0,0.0,0.0,0.0,0.0,0.0,0.0,0.0,0.0,0.0,0.0,0.0,0.0,0.0,0.0,-2.0712,-2.1527,-2.1765,-2.1459,-2.1093,0.0,0.0,0.0,0.0,0.0,0.0,-1.7784,-1.7074,-1.7597,-1.9653,-1.967,-2.007,-2.1048,-2.2015,-2.2165,-2.152,-2.2586,-2.2978,-2.2811,-2.2328,-2.2233,-2.2351,-2.1008,-2.0204,-1.9762,-1.8731,-1.8437,-1.8647,-1.8902,-1.884,-1.8588,-1.8468,-1.8405,-1.8358,-1.8108,-1.7984,-1.7946,-1.8096,0.0,-1.7027,-1.6823,0.0,0.0,0.0,0.0,-1.6622,-1.6192,-1.635,-1.644,-1.5697,-1.5588,-1.5657,-1.565,-1.6392,-1.6649,0.0,-1.6194,-1.697,-1.6334,0.0,0.0,0.0,0.0,-1.5616,-1.7962,-1.6644,-1.6084,-1.7524,-1.7753,-1.7956,-1.8377,-1.8899,-1.8899,-1.8146,-1.7795,-1.7323,-1.6693,-1.6595,-1.6345,-1.5914,0.0,0.0,0.0,0.0,0.0,0.0,0.0,0.0,0.0,0.0,0.0,0.0,0.0,0.0,0.0,0.0,0.0,0.0,0.0,0.0,0.0,0.0,0.0,0.0,0.0,0.0,0.0,0.0,0.0,-1.9709,-1.9936,0.0,0.0,0.0,0.0,-1.8909,-1.8783,-1.9063,-1.9895,-1.9885,-2.0514,-2.1913,-2.2417,-2.2975,-2.3614,-2.3611,-2.4191,-2.5308,-2.4117,-2.4178,-2.5268,-2.3856,-2.3566,-2.4104,-2.2771,-2.2164,-2.2005,-2.0361,-1.9701,-1.9675,-1.9195,-1.9277,-1.9673,-1.9155,-1.8977,-1.9025,-1.9506,-1.9671,-1.9633,-1.9404,-1.9071,-1.8602,-1.7798,-1.797,0.0,0.0,-1.6877,-1.7733,-1.6157,-1.6482,-1.7094,-1.6479,-1.6631,-1.6901,-1.6905,-1.8615,-1.9658,0.0,-1.8048,-1.8266,-1.7769,0.0,-1.8838,-1.8192,-1.7217,-1.6699,-1.7032,-1.6548,-1.6188,-1.6279,-1.7867,-1.8914,-1.8975,-1.9455,-1.9455,-1.8723,-1.7991,-1.7474,-1.718,-1.6487,-1.6484,-1.7278,-1.6541,0.0,0.0,0.0,0.0,0.0,0.0,0.0,0.0,0.0,0.0,0.0,0.0,0.0,0.0,0.0,0.0,0.0,0.0,0.0,0.0,0.0,0.0,0.0,0.0,0.0,0.0,0.0,0.0,-2.1153,-2.1081,0.0,0.0,-2.0501,-2.0044,-1.9556,-2.0686,-2.1471,-2.1691,-2.2232,-2.2915,-2.3748,-2.4336,-2.4751,-2.4963,-2.5328,-2.529,-2.4876,-2.483,-2.4812,-2.475,-2.3897,-2.3568,-2.366,-2.235,-2.197,-2.2242,-2.1284,-2.0887,-2.0844,-2.0296,-2.0425,-2.0875,-2.0695,-2.0605,-2.0643,-2.0836,-2.0888,-2.0875,-2.0785,-2.0348,-1.9796,-1.9505,-1.9003,-1.8402,-1.7702,-1.8274,-1.8963,-1.8357,-1.9103,-1.9841,-1.9139,-1.9069,-1.9195,-1.9189,-1.9823,-2.0473,-2.0664,-2.0444,-1.9832,-1.8538,-1.841,-1.8456,-1.8442,-1.7915,-1.7942,-1.9039,-1.8725,-1.8683,-1.9504,-1.9897,-2.0237,-2.0575,-2.0484,-2.0066,-1.9328,-1.8226,-1.7469,-1.7209,-1.674,-1.7203,-1.873,-1.8696,-1.8422,0.0,0.0,0.0,0.0,0.0,0.0,0.0,0.0,0.0,0.0,0.0,0.0,0.0,0.0,0.0,0.0,0.0,0.0,0.0,0.0,0.0,0.0,0.0,0.0,0.0,0.0,-2.0512,-2.2123,-2.1942,-2.1918,-2.2437,-2.2084,-2.1877,-2.204,-2.3459,-2.4395,-2.4559,-2.5102,-2.5593,-2.6002,-2.6632,-2.6741,-2.6274,-2.6905,-2.6612,-2.5445,-2.5445,-2.5175,-2.4619,-2.379,-2.3482,-2.3568,-2.2705,-2.265,-2.3115,-2.2755,-2.2603,-2.2506,-2.1402,-2.131,-2.1774,-2.1774,-2.1774,-2.1786,-2.1973,-2.192,-2.1809,-2.1983,-2.145,-2.0796,-2.0981,-2.0338,-1.9516,-1.9526,-1.986,-2.0223,-2.0222,-2.1009,-2.1588,-2.0926,-2.092,-2.1,-2.0794,-2.0907,-2.13,-2.2149,-2.1896,-2.1096,-1.9561,-1.8862,-1.8567,-1.8735,-1.7941,-1.7886,-1.9369,-1.9395,-1.9616,-2.0479,-2.081,-2.1107,-2.1481,-2.0813,-2.0243,-1.9899,-1.869,-1.8013,-1.8119,-1.7563,-1.7876,-1.9267,-1.9264,-1.8876,-1.8131,0.0,0.0,0.0,0.0,0.0,0.0,0.0,0.0,0.0,0.0,0.0,0.0,0.0,0.0,0.0,0.0,0.0,0.0,0.0,0.0,0.0,0.0,0.0,-1.9585,-2.0799,-2.1702,-2.2335,-2.24,-2.2946,-2.4357,-2.4502,-2.5036,-2.6451,-2.7072,-2.7704,-2.8398,-2.8439,-2.849,-2.8617,-2.923,-2.8961,-2.7664,-2.8258,-2.8145,-2.7283,-2.6059,-2.5318,-2.5056,-2.379,-2.3525,-2.403,-2.403,-2.4348,-2.4819,-2.4818,-2.4805,-2.4637,-2.2444,-2.191,-2.2388,-2.2388,-2.2383,-2.2444,-2.2957,-2.2804,-2.2469,-2.2993,-2.2448,-2.1699,-2.2207,-2.1989,-2.1569,-2.1585,-2.1584,-2.1566,-2.1566,-2.1973,-2.2249,-2.1715,-2.1994,-2.2236,-2.1722,-2.2018,-2.2378,-2.2382,-2.2379,-2.203,-2.0922,-2.0154,-1.9557,-1.916,-1.7431,0.0,-1.7892,-1.851,-1.8809,-1.8782,-2.0477,-2.1568,-2.1506,-2.0505,-2.0053,-2.0425,-1.9395,-1.9104,-1.9855,-1.888,-1.8498,-1.8944,-1.8129,-1.7802,-1.8093,0.0,0.0,0.0,0.0,0.0,0.0,0.0,0.0,0.0,0.0,0.0,0.0,0.0,0.0,0.0,0.0,0.0,0.0,0.0,0.0,0.0,0.0,-2.0446,-2.0954,-2.1286,-2.2287,-2.4453,-2.4344,-2.4824,-2.6609,-2.6421,-2.6632,-2.7668,-2.8812,-2.934,-2.9072,-2.9194,-2.9292,-2.9335,-2.9015,-2.8925,-2.9062,-2.8207,-2.7605,-2.7224,-2.7023,-2.6213,-2.4913,-2.5721,-2.5521,-2.4576,-2.4576,-2.4878,-2.5353,-2.4978,-2.529,-2.5886,-2.4471,-2.3968,-2.4099,-2.4099,-2.4111,-2.4138,-2.4265,-2.4253,-2.4152,-2.4267,-2.4129,-2.3932,-2.4093,-2.3741,-2.3303,-2.3318,-2.3313,-2.3313,-2.3313,-2.3716,-2.409,-2.3948,-2.4008,-2.4056,-2.3916,-2.3996,-2.4107,-2.4104,-2.4115,-2.357,-2.1862,-2.1416,-2.1236,-2.1119,-2.064,0.0,-2.1551,-2.1803,-2.1584,-2.0799,-2.228,-2.2819,-2.1592,-2.1923,-2.2068,-2.179,-2.0611,-1.9885,-1.9752,-1.8953,-1.9059,-2.0255,-1.9702,-1.9623,0.0,0.0,0.0,0.0,0.0,0.0,0.0,0.0,0.0,0.0,0.0,0.0,0.0,0.0,0.0,0.0,0.0,0.0,0.0,0.0,0.0,0.0,-2.1845,-2.3239,-2.4064,-2.3974,-2.4496,-2.6264,-2.6447,-2.7037,-2.8649,-2.8189,-2.8284,-2.9492,-3.0335,-3.064,-3.0251,-3.0332,-3.0258,-2.9996,-2.9862,-2.9739,-2.9609,-2.9037,-2.834,-2.7536,-2.7433,-2.6611,-2.5172,-2.5868,-2.5798,0.0,-2.5158,-2.5466,-2.5965,-2.5635,-2.5906,0.0,0.0,0.0,0.0,0.0,-2.5289,-2.5505,-2.5505,-2.534,-2.5191,-2.5439,-2.5178,-2.4836,-2.5059,-2.4762,-2.4344,-2.4344,-2.4344,-2.4349,-2.4352,-2.473,-2.509,-2.4862,-2.4988,-2.5083,-2.4863,-2.4795,-2.4795,-2.4811,0.0,0.0,-2.3308,-2.2537,-2.1933,-2.1449,-2.1187,-2.1272,-2.1996,-2.2283,-2.2189,-2.1564,-2.2775,-2.3238,-2.2259,-2.233,0.0,0.0,0.0,-2.0999,-2.0561,-1.973,0.0,0.0,0.0,-1.9622,-2.0159,0.0,0.0,0.0,-1.8874,-1.8547,0.0,0.0,0.0,0.0,0.0,0.0,0.0,0.0,0.0,0.0,0.0,0.0,0.0,0.0,0.0,0.0,-2.3824,-2.5995,-2.791,-2.7942,-2.7894,-2.8121,-2.8629,-2.9368,-3.0411,-2.9747,-2.9887,-3.141,-3.1511,-3.1511,-3.1511,0.0,0.0,0.0,0.0,-3.0878,-2.9827,-3.0162,-2.9614,-2.8103,-2.7541,-2.6739,-2.567,-2.5308,-2.536,-2.5695,-2.5703,-2.6037,-2.6606,-2.6606,-2.6618,-2.6559,-2.5446,-2.5281,-2.5682,-2.5682,-2.6083,0.0,0.0,0.0,0.0,-2.6502,-2.5951,-2.5176,-2.5662,-2.5414,-2.5,-2.5,-2.5,-2.5003,-2.4983,-2.5342,-2.5595,-2.5112,-2.5355,-2.5564,-2.5105,-2.5001,-2.4992,-2.5001,-2.5008,-2.4965,-2.4887,-2.3596,-2.2248,-2.1224,-2.0627,-2.0446,-2.0912,-2.1381,-2.1616,-2.1511,0.0,0.0,-2.3016,-2.2292,-2.2262,-2.324,-2.275,-2.2273,-2.1918,-2.0876,-1.9791,-1.8677,-1.8623,-1.8918,-1.9517,-1.952,-2.0091,-2.1162,-1.9221,-1.8714,0.0,0.0,0.0,0.0,0.0,0.0,0.0,0.0,0.0,0.0,0.0,0.0,0.0,0.0,0.0,-2.3777,-2.5883,-2.794,-2.9665,-3.114,-3.1772,-3.1087,-3.0734,-3.0882,-3.1666,-3.1154,-3.0969,-3.1453,-3.1511,-3.1511,-3.1511,-3.0981,0.0,-3.1289,-3.0904,-3.082,-3.1113,-3.0075,-2.9289,-2.8798,0.0,0.0,-2.635,-2.6875,-2.6841,-2.6329,-2.6311,-2.6653,-2.7143,-2.7143,-2.7396,-2.7683,-2.6606,-2.6249,-2.6321,-2.6321,-2.6665,-2.7143,-2.7143,-2.7336,-2.7643,-2.7743,-2.7357,-2.6839,-2.6949,-2.6604,0.0,-2.6189,-2.6189,-2.6152,-2.6176,-2.6244,-2.6299,-2.6202,-2.6244,-2.6308,-2.6189,-2.6161,-2.6154,-2.6185,-2.6172,-2.6029,-2.5521,-2.4808,-2.4098,-2.3458,-2.3258,-2.306,-2.2673,-2.2715,-2.2456,-2.1582,-2.2908,-2.3439,-2.2534,-2.3514,-2.4258,-2.4455,-2.371,-2.3236,-2.3165,-2.1874,-2.1073,-2.081,-2.0673,-2.0706,-2.0816,-2.0849,-2.0966,-2.1181,-2.0427,-2.0359,0.0,0.0,0.0,0.0,0.0,0.0,0.0,0.0,0.0,0.0,0.0,-2.2505,0.0,0.0,-2.559,-2.6169,-2.8675,-3.095,-3.2041,-3.3444,-3.3688,-3.1893,-3.1944,-3.208,-3.2118,-3.1533,-3.1422,-3.1954,-3.1702,-3.1511,-3.1511,-3.1172,-3.1304,-3.1983,-3.1673,-3.1806,-3.2502,-3.101,-2.9983,-2.9473,-2.8385,-2.7383,-2.6499,-2.6917,-2.7023,-2.6904,-2.6904,-2.7203,-2.7713,-2.7706,-2.7863,-2.8048,-2.7494,-2.7297,-2.731,-2.731,-2.7456,-2.7717,-2.772,-2.7691,-2.7742,-2.8017,-2.7751,-2.7347,-2.7626,-2.7492,-2.7296,-2.7287,-2.7313,-2.732,-2.73,-2.7303,-2.7289,-2.7309,-2.7295,-2.7226,-2.6947,-2.6904,-2.6826,-2.6549,-2.6499,-2.638,-2.6083,-2.5824,-2.5383,-2.4526,-2.4404,-2.4296,-2.3987,-2.3722,-2.3457,-2.3163,-2.3666,-2.389,-2.3571,-2.4316,-2.4898,-2.5174,-2.4353,-2.3954,-2.4241,-2.3093,-2.2318,-2.2045,-2.1989,-2.1818,-2.1539,-2.1307,-2.1204,-2.1181,-2.081,-2.0712,0.0,0.0,0.0,0.0,0.0,0.0,0.0,0.0,-2.217,-2.2586,-2.3603,-2.4308,-2.3865,-2.6116,-2.8133,-2.8365,-3.1027,-3.3312,-3.3905,-3.4708,-3.4317,-3.1931,-3.2842,-3.3299,-3.236,-3.192,-3.1871,-3.2458,-3.188,-3.1511,-3.1511,-3.1628,-3.1939,-3.2487,-3.2643,-3.2855,-3.3214,-3.1708,-3.0608,-2.9887,-2.836,-2.7276,-2.6665,-2.6772,-2.6976,-2.7301,-2.7507,-2.7867,-2.8264,-2.8399,-2.8433,-2.8433,-2.8433,-2.8425,-2.8379,-2.8184,-2.8184,-2.827,-2.826,-2.8055,-2.7842,-2.8303,-2.8062,-2.7686,-2.8126,-2.8157,-2.8104,-2.8113,-2.8089,-2.8088,-2.8087,-2.8099,-2.8099,-2.8084,-2.8111,-2.799,-2.7551,-2.7471,-2.7341,-2.6901,-2.681,-2.6782,-2.6678,-2.6665,-2.6261,-2.5117,-2.4978,-2.4924,-2.481,-2.4427,-2.4318,-2.4741,-2.4397,-2.4371,-2.4924,-2.5074,-2.5328,-2.5741,-2.5066,-2.4851,-2.5257,-2.414,-2.3353,-2.2999,-2.2691,-2.2319,-2.1896,-2.1598,-2.1356,-2.1184,-2.0888,-2.0664,-1.868,-1.8666,-1.9417,-1.9909,-2.0775,-2.227,0.0,0.0,-2.7155,-2.8384,-2.9145,-2.9122,-2.7628,-2.8399,-2.9488,-3.0024,-3.1544,-3.2975,-3.3871,-3.4103,-3.3579,-3.1976,-3.3817,-3.4658,-3.3129,-3.3135,-3.3051,-3.2535,-3.188,-3.1511,-3.1511,-3.2072,-3.2428,-3.2502,-3.3071,-3.3036,-3.2263,-3.0863,-2.9926,-2.9445,-2.801,-2.731,-2.7216,-2.7696,-2.7683,-2.7365,-2.83,-2.8758,-2.8846,-2.9373,-2.96,-2.96,-2.96,-2.9628,-2.9478,-2.8456,-2.8393,-2.8808,-2.8802,-2.913,-2.954,-2.9588,-2.9227,-2.8753,-2.8787,-2.8475,-2.8089,-2.8111,-2.8113,-2.8089,-2.8108,-2.8089,-2.8107,-2.8114,-2.8114,-2.8077,-2.8011,-2.8021,-2.7996,-2.7934,-2.7938,-2.7751,-2.7305,-2.7203,-2.6831,-2.5682,-2.5518,-2.5324,-2.4869,-2.4752,-2.4711,-2.4797,-2.4748,-2.4927,-2.5441,-2.6005,-2.6321,-2.638,-2.6314,-2.6255,-2.6321,-2.4507,-2.3673,-2.4038,-2.2691,-2.194,-2.1887,-2.2221,-2.1954,-2.1214,-2.1135,-2.0927,-2.0351,-2.0169,0.0,0.0,-2.4256,-2.5508,-2.7815,-2.8816,-2.957,-3.0495,-3.1501,-3.1944,-3.1096,-3.2051,-3.2899,0.0,-3.3494,-3.4409,-3.4806,-3.4099,-3.2997,-3.1525,-3.267,-3.31,-3.1886,-3.2442,-3.2961,-3.3069,-3.2095,-3.185,-3.2635,-3.2561,-3.2854,-3.3647,-3.394,-3.3821,-3.3232,-3.1775,-3.0695,-2.9975,-2.8494,-2.7767,-2.7779,-2.7998,-2.8139,-2.8299,-2.9061,-2.9409,-2.9448,-2.9715,-2.9792,-2.9792,-2.9792,-2.9792,-2.9728,-2.9269,-2.9206,-2.9409,-2.9409,-2.9346,-2.9322,-2.9694,-2.9402,-2.8966,-2.9313,-2.9263,-2.91,-2.9076,-2.9088,-2.91,-2.9076,-2.9099,-2.9082,-2.9075,-2.9088,-2.8975,-2.8636,-2.8573,-2.8461,-2.8151,-2.8085,-2.805,-2.7822,-2.7785,-2.761,-2.7143,-2.6533,-2.6037,-2.58,-2.5492,-2.5277,-2.5275,-2.5594,-2.5859,-2.6083,-2.6368,-2.6618,-2.6964,-2.6964,-2.7096,-2.743,-2.6037,-2.5168,-2.504,-2.3771,-2.2931,-2.2617,-2.2293,-2.2096,-2.1954,-2.142,-2.1262,-2.1414,0.0,0.0,-2.5818,-2.75,-2.8748,-3.0096,-3.1016,-3.1794,-3.2467,-3.3395,-3.3921,-3.344,-3.4284,0.0,-3.3774,-3.4225,-3.4647,-3.4505,-3.3493,-3.2235,-3.0881,-3.1424,-3.1481,-3.0403,-3.1425,-3.2331,-3.2818,-3.1961,-3.1931,-3.3144,-3.3123,-3.3514,-3.4457,-3.4394,-3.4136,-3.3619,-3.2167,-3.1027,-3.0224,-2.8938,-2.8307,-2.8309,-2.8307,-2.8619,-2.9181,-2.96,-2.9792,-2.9792,-2.9792,-2.9792,-2.9792,-2.9792,-2.9792,-2.9792,-2.9792,-2.9792,-2.9792,-2.9792,-2.9524,-2.9206,-2.9651,-2.9512,-2.9206,-2.9664,-2.9792,-2.9792,-2.9792,-2.9792,-2.9792,-2.9792,-2.9792,-2.9792,-2.9792,-2.9792,-2.9692,-2.924,-2.9139,-2.9013,-2.8624,-2.8575,-2.8536,-2.8333,-2.832,-2.827,-2.8099,-2.7429,-2.6889,-2.6741,-2.6202,-2.5847,-2.5847,-2.6368,-2.6725,-2.6725,-2.6857,-2.7096,-2.7503,-2.7246,-2.7261,-2.7649,-2.6321,-2.5457,-2.5152,-2.4115,-2.336,-2.2921,-2.2456,-2.227,-2.2308,-2.1802,-2.1748,0.0,0.0,-2.4176,-2.6504,-2.9229,-3.1569,-3.2258,-3.3425,-3.4578,-3.525,-3.5415,-3.5154,-3.4134,-3.4013,-3.3739,-3.282,-3.2664,-3.2506,-3.1993,-3.1744,-3.1254,-3.016,-3.068,-3.0578,0.0,-3.0392,-3.1259,-3.1273,-3.1217,-3.1601,-3.2489,-3.375,-3.4443,-3.4502,-3.4184,-3.3587,-3.2669,-3.1179,-3.0227,-2.9819,-2.9169,-2.8876,-2.8876,-2.8878,-2.9195,-2.9779,-2.9792,-2.9792,-2.9792,-2.9792,-2.9792,-2.9792,-2.9792,-2.9792,-2.9792,-2.9792,-2.9792,-2.9792,-2.9792,-2.9792,-2.9779,-2.9792,-2.9792,-2.9779,-2.9792,-2.9792,-2.9792,-2.9792,-2.9792,-2.9792,-2.9792,-2.9792,-2.9792,-2.9792,-2.9792,-2.9779,-2.9767,-2.9767,-2.9767,-2.9754,-2.9741,-2.9538,-2.8992,-2.8866,-2.8714,-2.8198,-2.8072,-2.7877,-2.7351,-2.6797,-2.6487,-2.6487,-2.6964,-2.7276,-2.7276,-2.7743,-2.8057,-2.8057,-2.7115,-2.6547,-2.654,-2.451,-2.3583,-2.4028,-2.3066,-2.2524,-2.2518,-2.2867,-2.2678,-2.1941,-2.2305,-2.2469,0.0,0.0,-2.7182,-2.9437,-3.1446,-3.3125,-3.4247,-3.4846,-3.51,-3.4861,-3.3815,-3.281,-3.2399,-3.2019,-3.1599,-3.1141,-3.2127,-3.2526,-3.1439,-3.0993,-3.0269,-2.8776,-2.9959,0.0,0.0,0.0,0.0,-3.185,-3.1988,-3.2778,-3.4386,-3.4503,-3.4399,-3.4167,-3.4066,-3.3251,-3.1673,-3.1176,-3.055,-2.9792,-2.9588,-2.9512,-2.9512,-2.9512,-2.96,-2.9792,-2.9792,-2.9792,-2.9792,-2.9792,-2.9792,-2.9792,-2.9792,-2.9792,-2.9792,-2.9792,-2.9792,-2.9792,-2.9792,-2.9792,-2.9792,-2.9792,-2.9792,-2.9792,-2.9792,-2.9792,-2.9792,-2.9792,-2.9792,-2.9792,-2.9792,-2.9792,-2.9792,-2.9792,-2.9792,-2.9792,-2.9792,-2.9792,-2.9792,-2.9792,-2.9792,-2.9728,-2.9524,-2.9512,-2.9448,-2.9257,-2.856,-2.8025,-2.7859,-2.7683,-2.7563,-2.7563,-2.773,-2.7828,-2.7841,-2.8015,-2.7953,-2.7594,-2.722,-2.6878,-2.6506,-2.5098,-2.4346,-2.4543,-2.3451,-2.2911,-2.2911,-2.2751,-2.2683,-2.2688,-2.2544,-2.265,0.0,-2.7765,-2.9711,-3.2001,-3.341,-3.4442,-3.531,-3.531,-3.4936,-3.4294,-3.2777,-3.1471,-3.1199,-3.0454,-2.9738,-2.9268,-2.9999,-3.0333,-2.9503,-2.9428,-2.9188,-2.8527,-3.0093,0.0,0.0,0.0,0.0,-3.2191,-3.2528,-3.3436,-3.5043,-3.4608,-3.4221,-3.4006,-3.3358,-3.2417,-3.1211,-3.085,-3.0386,-2.9792,-2.9792,-2.9792,-2.9792,-2.9792,-2.9792,-2.9792,-2.9792,-2.9792,-2.9792,-2.9792,-2.9792,-2.9792,-2.9792,-2.9792,-2.9792,-2.9792,-2.9792,-2.9792,-2.9792,-2.9792,-2.9792,-2.9792,-2.9792,-2.9792,-2.9792,-2.9792,-2.9792,-2.9792,-2.9792,-2.9792,-2.9792,-2.9792,-2.9792,-2.9792,-2.9792,-2.9792,-2.9792,-2.9792,-2.9792,-2.9792,-2.9792,-2.9792,-2.9792,-2.9792,-2.9792,-2.9792,-2.9193,-2.8622,-2.8422,-2.8231,-2.8109,-2.8109,-2.8257,-2.8395,-2.8374,-2.8232,-2.7929,-2.7615,-2.6845,-2.6257,-2.5922,-2.481,-2.421,-2.421,-2.3451,-2.3091,-2.3091,-2.2858,-2.2858,-2.3091,-2.2814,-2.2858,-2.7992,-3.0289,-3.1812,-3.4012,-3.5026,-3.5489,-3.5459,-3.4876,-3.4159,-3.3395,-3.2079,-3.0854,0.0,0.0,-2.8083,-2.7132,-2.6665,-2.6456,-2.651,-2.7265,-2.821,0.0,0.0,0.0,0.0,0.0,0.0,-3.2345,0.0,-3.3623,-3.4442,-3.4161,-3.3963,-3.3845,-3.2145,-3.1186,-3.1143,-3.0266,-2.9792,-2.9792,-2.9792,-2.9792,-2.9792,-2.9792,-2.9792,-2.9792,-2.9792,-2.9792,-2.9792,-2.9792,-2.9792,-2.9792,-2.9792,-2.9792,-2.9792,-2.9792,-2.9792,-2.9792,-2.9792,-2.9792,-2.9792,-2.9792,-2.9792,-2.9792,-2.9792,-2.9792,-2.9792,-2.9792,-2.9792,-2.9792,-2.9792,-2.9792,-2.9792,-2.9792,-2.9792,-2.9792,-2.9792,-2.9792,-2.9792,-2.9792,-2.9792,-2.9792,-2.9792,-2.9792,-2.9792,-2.9792,-2.9792,-2.9588,-2.9015,-2.8497,-2.8181,-2.8181,-2.8623,-2.8927,-2.8864,-2.837,-2.8041,-2.7921,-2.5961,-2.4756,-2.4702,-2.3676,-2.3091,-2.3091,-2.3091,-2.3091,-2.3091,-2.3091,-2.3091,-2.3091,-2.3091,-2.3091,-3.1321,-3.2907,-3.3908,-3.4983,-3.537,-3.537,-3.4861,-3.3455,-3.1824,-3.0178,-2.7233,-2.4754,0.0,0.0,0.0,-2.4314,-2.7133,0.0,-2.7314,-2.8346,0.0,0.0,0.0,-3.2492,-3.259,-3.4041,0.0,0.0,-3.3918,-3.4163,-3.4127,-3.4052,-3.337,-3.1949,-3.1472,-3.0862,-3.0165,-2.9921,-2.9792,-2.9792,-2.9792,-2.9792,-2.9792,-2.9792,-2.9792,-2.9792,-2.9792,-2.9792,-2.9792,-2.9792,-2.9792,-2.9792,-2.9792,-2.9792,-2.9792,-2.9792,-2.9792,-2.9792,-2.9792,-2.9792,-2.9792,-2.9792,-2.9792,-2.9792,-2.9792,-2.9792,-2.9792,-2.9792,-2.9792,-2.9792,-2.9792,-2.9792,-2.9792,-2.9792,-2.9792,-2.9792,-2.9792,-2.9792,-2.9792,-2.9792,-2.9792,-2.9792,-2.9792,-2.9792,-2.9792,-2.9792,-2.9792,-2.9728,-2.9588,-2.946,-2.9384,-2.9384,-2.9473,-2.9206,-2.837,-2.8181,-2.7418,-2.5731,-2.5098,-2.4402,-2.3569,-2.3261,-2.3091,-2.3091,-2.3091,-2.3091,-2.3091,-2.3091,-2.3091,-2.3091,-2.3091,-2.3091,-3.3089,-3.4361,-3.5026,-3.5415,-3.5504,-3.51,-3.3544,-3.1884,-2.9953,-2.738,-2.4399,0.0,0.0,0.0,0.0,0.0,0.0,0.0,-2.704,-2.8307,-2.9555,0.0,-3.1995,0.0,-3.3551,-3.4732,-3.5082,0.0,-3.4172,-3.4028,-3.3424,-3.301,-3.2297,-3.1211,-3.0788,-3.0317,-2.9792,-2.9792,-2.9792,-2.9792,-2.9792,-2.9792,-2.9792,-2.9792,-2.9792,-2.9792,0.0,-2.9792,-2.9792,-2.9792,-2.9792,-2.9792,-2.9792,-2.9792,-2.9792,-2.9792,-2.9792,-2.9792,-2.9792,-2.9792,-2.9792,-2.9792,-2.9792,-2.9792,-2.9792,-2.9792,-2.9792,-2.9792,-2.9792,-2.9792,-2.9792,-2.9792,-2.9792,-2.9792,-2.9792,-2.9792,-2.9792,-2.9792,-2.9792,-2.9792,-2.9792,-2.9792,-2.9792,-2.9792,-2.9792,-2.9792,-2.9792,-2.9792,-2.9792,-2.9792,-2.96,-2.913,-2.9066,-2.8611,-2.749,-2.6944,-2.6115,-2.4867,-2.4328,-2.3793,-2.3144,-2.3091,-2.3091,-2.3091,-2.3091,-2.3091,-2.3091,-2.3091,-2.3091,-2.3091,-2.3091,-2.3091,-3.3994,-3.5055,-3.5504,-3.5504,-3.5429,-3.4651,-3.1869,-3.0118,-2.8098,-2.4649,0.0,-2.1246,-2.1924,0.0,-2.1675,-2.3163,0.0,-2.4779,-2.6521,-2.794,-2.9462,-3.1187,-3.2919,-3.4074,-3.4317,-3.5032,-3.5059,-3.4028,-3.3856,-3.3403,-3.2449,-3.164,-3.1136,-3.102,-3.0203,-2.9855,-2.9983,-2.9855,-2.9855,-2.9983,-2.9855,-2.9792,-2.9792,-2.9792,-2.9792,-2.9792,0.0,0.0,-2.9983,-2.9855,-2.9855,-2.9983,-2.9855,-2.9792,-2.9792,-2.9792,-2.9792,-2.9792,-2.9792,-2.9792,-2.9792,-2.9792,-2.9792,-2.9792,-2.9792,-2.9792,-2.9792,-2.9792,-2.9792,-2.9792,-2.9792,-2.9792,-2.9792,-2.9792,-2.9792,-2.9792,-2.9792,-2.9792,-2.9792,-2.9792,-2.9792,-2.9792,-2.9792,-2.9792,-2.9792,-2.9792,-2.9792,-2.9792,-2.9792,-2.9664,-2.9193,-2.8232,-2.7966,-2.7451,-2.6357,-2.5347,-2.4746,-2.4574,-2.3632,-2.3091,-2.3091,-2.3091,-2.3091,-2.3091,-2.3091,-2.3091,-2.3091,-2.3091,-2.3091,-2.3091,-2.3091,-2.3091,-3.5058,-3.5415,-3.5504,-3.5504,-3.507,-3.386,-3.0642,-2.8038,0.0,0.0,0.0,-1.7772,-1.8446,-1.9353,0.0,-2.3019,0.0,0.0,0.0,0.0,-3.0225,0.0,0.0,0.0,0.0,0.0,0.0,0.0,0.0,0.0,-3.1483,-3.1296,-3.0849,-3.0075,-2.9895,-3.0175,-3.0932,-3.0188,-3.0188,-3.0932,-3.0175,-2.9792,-2.9792,-2.9792,-2.9792,-2.9792,0.0,0.0,-3.092,-3.0124,-3.0252,-3.0868,-3.0111,-2.9792,-2.9792,-2.9792,-2.9792,-2.9792,-2.9792,-2.9792,-2.9792,-2.9792,-2.9792,-2.9792,-2.9792,-2.9792,-2.9792,-2.9792,-2.9792,-2.9792,-2.9792,-2.9792,-2.9792,-2.9792,-2.9792,-2.9792,-2.9792,-2.9792,-2.9792,-2.9792,-2.9792,-2.9792,-2.9792,-2.9792,-2.9792,-2.9792,-2.9792,-2.9792,-2.9792,-2.8991,-2.8307,-2.8118,-2.7321,-2.6324,-2.521,-2.4925,-2.4392,-2.3442,-2.3208,-2.3091,-2.3091,-2.3091,-2.3091,-2.3091,-2.3091,-2.3091,-2.3091,-2.3091,-2.3091,-2.3091,-2.3091,-2.3091,-3.4552,-3.4964,-3.5504,-3.5504,-3.4998,-3.3366,-2.9037,0.0,0.0,0.0,0.0,-1.6532,-1.7525,0.0,0.0,0.0,0.0,0.0,0.0,0.0,0.0,0.0,0.0,0.0,0.0,0.0,0.0,0.0,0.0,0.0,-3.0508,-3.0913,-3.0758,-2.983,-3.0763,-3.1237,-3.119,-3.0739,-3.0739,-3.119,-3.0252,-2.9792,-2.9792,-2.9792,-2.9792,-2.9792,-2.9792,0.0,-3.0445,-2.997,-3.0082,-3.0444,-2.9983,-2.9792,-2.9792,-2.9792,-2.9792,-2.9792,-2.9792,-2.9792,-2.9792,-2.9792,-2.9792,-2.9792,-2.9792,-2.9792,-2.9792,-2.9792,-2.9792,-2.9792,-2.9792,-2.9792,-2.9792,-2.9792,-2.9792,-2.9792,-2.9792,-2.9792,-2.9792,-2.9792,-2.9792,-2.9792,-2.9792,-2.9792,-2.9792,-2.9792,-2.931,-2.891,-2.8926,-2.7427,-2.6607,-2.7211,-2.627,-2.5176,-2.4028,-2.3921,-2.3676,-2.3144,-2.3091,-2.3091,-2.3091,-2.3091,-2.3091,-2.3091,-2.3091,-2.3091,-2.3091,-2.3091,-2.3091,-2.3091,-2.3091,-2.341,-3.4115,-3.4718,-3.5504,-3.5504,-3.4878,-3.2901,-2.76,-2.536,0.0,0.0,-1.6129,-1.6234,-1.7654,0.0,0.0,0.0,0.0,0.0,0.0,0.0,0.0,0.0,0.0,0.0,0.0,0.0,0.0,0.0,0.0,0.0,-3.0126,-3.0786,-3.0849,-3.0101,-3.1728,-3.2246,-3.1526,-3.1487,-3.1487,-3.1487,-3.0534,-2.9983,-2.9792,-2.9792,-2.9792,-2.9792,-2.9792,0.0,0.0,-2.9878,-2.9921,-3.006,-2.9868,-2.9792,-2.9792,-2.9792,-2.9792,-2.9792,-2.9792,-2.9792,-2.9792,-2.9792,-2.9792,-2.9792,-2.9792,-2.9792,-2.9792,-2.9792,-2.9792,-2.9792,-2.9792,-2.9792,-2.9792,-2.9792,-2.9792,-2.9792,-2.9792,-2.9792,-2.9792,-2.9792,-2.9792,-2.9792,-2.9792,-2.9792,-2.9792,-2.9792,-2.8849,-2.8087,-2.811,-2.6171,-2.5126,-2.6054,-2.5122,-2.4092,-2.3154,-2.3091,-2.3091,-2.3091,-2.3091,-2.3091,-2.3091,-2.3091,-2.3091,-2.3091,-2.3091,-2.3091,-2.3091,-2.3004,-2.2978,-2.2987,-2.3104,-2.3494,-3.486,-3.5427,-3.5504,-3.5504,-3.4532,-3.2198,-2.6901,0.0,0.0,-1.6967,-1.5844,-1.6383,-1.8267,-1.7642,0.0,0.0,0.0,0.0,0.0,0.0,0.0,0.0,0.0,0.0,0.0,0.0,0.0,0.0,0.0,0.0,0.0,-3.1161,-3.1173,-3.1059,-3.2072,-3.2564,-3.2461,-3.2461,-3.2461,-3.2461,-3.1539,-3.0598,-2.9792,-2.9792,-2.9792,-2.9792,0.0,0.0,0.0,-3.0139,-3.0305,-3.0997,-3.0124,-2.9792,-2.9792,-2.9792,-2.9792,-2.9792,-2.9792,-2.9792,-2.9792,-2.9792,-2.9792,-2.9792,-2.9792,-2.9792,-2.9792,-2.9792,-2.9792,-2.9792,-2.9792,-2.9792,-2.9792,-2.9792,-2.9792,-2.9792,-2.9792,-2.9792,-2.9792,-2.9792,-2.9792,-2.9792,-2.9792,-2.9792,-2.9792,-2.9792,-2.8849,-2.8115,-2.8099,-2.6179,-2.4861,-2.4972,-2.3921,-2.3208,-2.3101,-2.3091,-2.3091,-2.3091,-2.3091,-2.3091,-2.3091,-2.3091,-2.3091,-2.3091,-2.3091,-2.3091,-2.3091,-2.2727,-2.2563,-2.2587,-2.3048,-2.2895,-3.2773,-3.4267,-3.5504,-3.5504,-3.3893,-3.1119,-2.6636,0.0,0.0,-1.6728,-1.5799,-1.6144,-1.7292,-1.6755,-1.6955,0.0,0.0,0.0,0.0,0.0,0.0,0.0,0.0,0.0,0.0,0.0,0.0,0.0,0.0,0.0,0.0,-3.2045,-3.2058,-3.2037,-3.3536,-3.4036,-3.3445,-3.3431,-3.315,-3.2591,-3.1651,-3.0714,-2.9792,-2.9792,-2.9792,-2.9792,0.0,0.0,0.0,-3.0188,-3.0329,-3.1126,-3.0175,-2.9792,-2.9792,-2.9792,-2.9792,-2.9792,-2.9792,-2.9792,-2.9792,-2.9792,-2.9792,-2.9792,-2.9792,-2.9792,-2.9792,-2.9792,-2.9792,-2.9792,-2.9792,-2.9792,-2.9792,-2.9792,-2.9792,-2.9792,-2.9792,-2.9792,-2.9792,-2.9792,-2.9792,-2.9792,-2.9792,-2.9792,-2.9573,-2.8897,-2.7822,-2.688,-2.6199,-2.4762,-2.3793,-2.3793,-2.3378,-2.3091,-2.3091,-2.3091,-2.3091,-2.3091,-2.3091,-2.3091,-2.3091,-2.3091,-2.3091,-2.3091,-2.3091,-2.3091,-2.3091,-2.3608,-2.3881,-2.3873,-2.3852,-2.3974,-3.0524,-3.2737,-3.4701,-3.5102,-3.3066,-2.9951,0.0,0.0,-2.0112,-1.6533,-1.5799,-1.6039,-1.6843,-1.6636,-1.6761,0.0,0.0,0.0,0.0,0.0,0.0,0.0,0.0,0.0,0.0,0.0,0.0,0.0,0.0,0.0,0.0,-3.2345,-3.2316,-3.2577,-3.3939,-3.4286,-3.3597,-3.3597,-3.3245,-3.2587,-3.1663,-3.0714,-2.9792,-2.9792,-2.9932,-3.02,0.0,0.0,0.0,-3.0602,-3.058,-3.1126,-3.0175,-2.9792,-2.9792,-2.9792,-2.9792,-2.9792,-2.9792,-2.9792,-2.9792,-2.9792,-2.9792,-2.9792,-2.9792,-2.9792,-2.9792,-2.9792,-2.9792,-2.9792,-2.9792,-2.9792,-2.9702,-2.9365,-2.9287,-2.9197,-2.8882,-2.8831,-2.8922,-2.9236,-2.9287,-2.9404,-2.9753,-2.9534,-2.9028,-2.8215,-2.6912,-2.5723,-2.4914,-2.3783,-2.3091,-2.3091,-2.3091,-2.3091,-2.3091,-2.3091,-2.3091,-2.3091,-2.3091,-2.3091,-2.3091,-2.3091,-2.3091,-2.3091,-2.3091,-2.3057,-2.29,-2.3617,-2.3877,-2.3731,-2.361,-2.4045,-2.8722,-3.104,-3.2837,-3.4178,-3.2061,-2.8727,0.0,0.0,-1.8974,-1.6338,-1.5799,-1.6188,-1.7459,-1.7667,-1.7952,-1.8766,0.0,0.0,0.0,0.0,0.0,0.0,0.0,0.0,0.0,0.0,0.0,0.0,0.0,0.0,0.0,-3.1706,-3.1626,-3.2554,-3.2605,-3.2652,-3.2605,-3.2605,-3.2605,-3.2587,-3.1663,-3.0714,-2.9792,-2.9792,-3.0316,0.0,0.0,0.0,0.0,-3.1557,-3.1188,-3.1126,-3.0175,-2.9792,-2.9792,-2.9792,-2.9792,-2.9792,-2.9792,-2.9792,-2.9792,-2.9792,-2.9792,-2.9792,-2.9792,-2.9792,-2.9792,-2.9792,-2.9792,-2.9792,-2.9792,-2.9792,-2.9534,-2.8386,-2.8136,-2.7815,-2.676,-2.6524,-2.6842,-2.7924,-2.8136,-2.8478,-2.9624,-2.8858,-2.8124,-2.8096,-2.6232,-2.4798,-2.4788,-2.3783,-2.3091,-2.3091,-2.3091,-2.3091,-2.3091,-2.3091,-2.3091,-2.3091,-2.3091,-2.3091,-2.3091,-2.3091,-2.3091,-2.3091,-2.3091,-2.2924,-2.2512,-2.2104,-2.1688,-2.1271,-2.1781,-2.2289,-2.4232,-2.5977,-2.7305,-2.821,-2.6641,-2.438,-2.2377,0.0,-1.7849,-1.6144,-1.5799,-1.6188,-1.7474,-1.7324,-1.7431,-1.8693,-1.8893,0.0,0.0,0.0,0.0,0.0,0.0,0.0,0.0,0.0,0.0,0.0,0.0,0.0,0.0,-3.1348,-3.1635,-3.2569,-3.3212,-3.3257,-3.2612,-3.3229,-3.2922,-3.164,-3.1354,-3.1048,-3.0778,-3.0778,0.0,0.0,0.0,0.0,0.0,-3.1858,-3.1576,-3.2018,-3.0405,-2.9792,-2.9792,-2.9792,-2.9792,-2.9792,-2.9792,-2.9792,-2.9792,-2.9792,-2.9792,-2.9792,-2.9792,-2.9792,-2.9792,-2.9792,-2.9792,-2.9624,-2.8858,-2.8636,-2.8359,-2.729,-2.7005,-2.6924,-2.6554,-2.6524,-2.6801,-2.7896,-2.8096,-2.8215,-2.8597,-2.8347,-2.7591,-2.6066,-2.5241,-2.4532,-2.3717,-2.3323,-2.3091,-2.3091,-2.3091,-2.3091,-2.3091,-2.3091,-2.3091,-2.3091,-2.3091,-2.3091,-2.3091,-2.3091,-2.3091,-2.3091,-2.2818,-2.2627,-2.2503,-2.2818,-2.2771,-2.2371,-2.283,-2.2544,0.0,-2.2697,-2.4103,-2.4993,-2.358,0.0,0.0,0.0,-1.6711,-1.5743,-1.5551,-1.5861,-1.6894,-1.6791,-1.7151,-1.8969,-1.8898,0.0,0.0,0.0,0.0,0.0,0.0,0.0,0.0,0.0,0.0,0.0,0.0,0.0,0.0,0.0,-3.1093,-3.2034,-3.2308,-3.2306,-3.2069,-3.2644,-3.2518,-3.1746,-3.1746,-3.1746,-3.172,-3.1716,0.0,0.0,0.0,0.0,0.0,-3.2119,-3.1763,-3.2396,-3.0521,-2.9792,-2.9792,-2.9792,-2.9792,-2.9792,-2.9792,-2.9792,-2.9792,-2.9792,-2.9792,-2.9792,-2.9792,-2.9792,-2.9792,-2.9792,-2.9792,-2.9534,-2.8386,-2.8096,-2.7723,-2.6213,-2.585,-2.5724,-2.5305,-2.5557,-2.6171,-2.7279,-2.7481,-2.7602,-2.8044,-2.7429,-2.6397,-2.4999,-2.4414,-2.392,-2.3178,-2.3091,-2.3091,-2.3091,-2.3091,-2.3091,-2.3091,-2.3091,-2.3091,-2.3091,-2.3091,-2.3091,-2.3091,-2.3091,-2.3091,-2.3091,-2.2682,-2.2432,-2.2275,-2.2362,-2.2355,-2.2263,-2.2714,-2.2473,0.0,0.0,0.0,0.0,0.0,0.0,0.0,0.0,0.0,0.0,0.0,-1.5367,-1.6077,-1.6355,-1.7208,-1.9507,0.0,0.0,0.0,0.0,0.0,0.0,0.0,0.0,0.0,0.0,0.0,0.0,0.0,0.0,0.0,0.0,-3.0317,-3.1268,-3.0445,-3.044,-3.1302,-3.1372,-3.1784,-3.2585,-3.2585,-3.2636,-3.2686,-3.2692,0.0,0.0,0.0,0.0,0.0,-3.2493,-3.1853,-3.2396,-3.0598,-2.9855,-2.9792,-2.9792,-2.9792,-2.9792,-2.9792,-2.9792,-2.9792,-2.9792,-2.9792,-2.9792,-2.9792,-2.9792,-2.9792,-2.9792,-2.9753,-2.9417,-2.8267,-2.7924,-2.7348,-2.5199,-2.467,-2.4414,-2.343,-2.4049,-2.5168,-2.6389,-2.6595,-2.6924,-2.7844,-2.6273,-2.4872,-2.4702,-2.38,-2.3091,-2.3091,-2.3091,-2.3091,-2.3091,-2.3091,-2.3091,-2.3091,-2.3091,-2.3091,-2.3091,-2.3091,-2.3091,-2.3091,-2.3178,-2.3178,-2.3091,-2.2682,-2.2305,-2.1885,-2.1065,-2.084,-2.1249,-2.1699,-2.2119,0.0,0.0,0.0,0.0,0.0,0.0,0.0,0.0,0.0,0.0,0.0,0.0,0.0,0.0,0.0,0.0,0.0,0.0,0.0,0.0,0.0,0.0,0.0,0.0,0.0,0.0,0.0,0.0,0.0,0.0,0.0,0.0,-3.132,-3.2226,-3.2075,-3.2047,-3.2259,-3.2974,-3.3081,-3.2597,-3.2597,-3.2965,-3.3661,-3.3682,0.0,0.0,0.0,0.0,-3.4298,-3.3623,-3.3045,-3.2474,-3.1332,-3.0444,-2.9792,-2.9792,-2.9792,-2.9792,-2.9792,-2.9792,-2.9792,-2.9792,-2.9792,-2.9792,-2.9792,-2.9792,-2.9792,-2.9792,-2.9157,-2.8267,-2.7168,-2.6254,-2.5199,-2.3844,-2.3507,-2.3681,-2.4253,-2.4617,-2.5368,-2.7348,-2.7723,-2.7522,-2.6953,-2.6431,-2.5515,-2.3757,-2.3256,-2.3091,-2.3091,-2.3091,-2.3091,-2.3091,-2.3091,-2.3091,-2.3091,-2.3091,-2.3091,-2.3091,-2.3091,-2.3091,-2.3091,-2.392,-2.4006,-2.3135,-2.2682,-2.2305,-2.1885,-2.1338,-2.1309,-2.1738,-2.1836,-2.2119,-1.5695,-1.5544,0.0,0.0,0.0,0.0,0.0,0.0,0.0,0.0,0.0,0.0,0.0,0.0,0.0,0.0,0.0,0.0,0.0,0.0,0.0,0.0,0.0,0.0,0.0,0.0,0.0,0.0,0.0,0.0,0.0,0.0,-3.183,-3.319,-3.324,-3.3025,-3.2588,-3.3525,-3.3766,-3.3245,-3.3703,-3.4209,-3.467,-3.467,0.0,0.0,0.0,0.0,-3.4576,-3.325,-3.2684,-3.2472,-3.1083,-3.0252,-2.9792,-2.9792,-2.9792,-2.9792,-2.9792,-2.9792,-2.9792,-2.9792,-2.9792,-2.9792,-2.9792,-2.9792,-2.9792,-2.9792,-2.8976,-2.7844,-2.676,-2.563,-2.4617,-2.4049,-2.3877,-2.4178,-2.5336,-2.5953,-2.6685,-2.7884,-2.8096,-2.7775,-2.6678,-2.6058,-2.5136,-2.3343,-2.3091,-2.3091,-2.3091,-2.3091,-2.3091,-2.3091,-2.3091,-2.3091,-2.3091,-2.3091,-2.3091,-2.3091,-2.3091,-2.3091,-2.3091,-2.3671,-2.3624,-2.2852,-2.2627,-2.2305,-2.1885,-2.165,-2.1758,-2.2168,-2.2168,-2.2402,-1.5651,-1.5799,-1.5946,-1.5946,0.0,0.0,0.0,0.0,0.0,0.0,0.0,0.0,0.0,0.0,0.0,0.0,0.0,0.0,0.0,0.0,0.0,0.0,0.0,0.0,0.0,0.0,0.0,0.0,0.0,0.0,0.0,0.0,0.0,-3.4185,-3.3983,-3.3545,-3.2893,-3.3786,-3.4224,-3.4224,-3.5103,-3.5504,-3.5504,-3.5504,-3.5427,0.0,0.0,0.0,-3.5103,-3.2804,-3.2235,-3.2656,-3.1046,-3.0265,-2.9996,-2.9996,-2.9919,-2.9792,-2.9792,-2.9792,-2.9792,-2.9792,-2.9792,-2.9792,-2.9792,-2.9792,-2.9792,-2.9792,-2.8976,-2.7896,-2.6964,-2.5922,-2.5041,-2.5041,-2.5041,-2.5378,-2.6513,-2.7441,-2.8136,-2.8347,-2.8347,-2.8016,-2.6924,-2.5797,-2.467,-2.3507,-2.3222,-2.3091,-2.3091,-2.3091,-2.3091,-2.3091,-2.3091,-2.3091,-2.3091,-2.3266,-2.3343,-2.3343,-2.3222,-2.3178,-2.3343,-2.3178,-2.3012,-2.2853,-2.2693,-2.2432,-2.208,-2.2209,-2.248,-2.2843,-2.2784,-2.3067,-1.495,-1.574,-1.6585,-1.663,-1.5921,0.0,0.0,0.0,0.0,0.0,0.0,0.0,0.0,0.0,0.0,0.0,0.0,0.0,0.0,0.0,0.0,0.0,0.0,0.0,0.0,0.0,0.0,0.0,0.0,0.0,0.0,0.0,0.0,-3.5218,-3.3955,-3.3548,-3.4193,-3.4921,-3.5272,-3.5272,-3.5427,-3.5504,-3.5504,-3.5504,-3.5041,0.0,0.0,-3.489,-3.4271,-3.467,-3.4433,-3.3772,-3.3477,-3.2383,-3.0997,-3.0997,-3.047,-2.9792,-2.9792,-2.9792,-2.9792,-2.9792,-2.9792,-2.9792,-2.9792,-2.9792,-2.9792,-2.9792,-2.8976,-2.8044,-2.7884,-2.7035,-2.6224,-2.6224,-2.6224,-2.6554,-2.7602,-2.7964,-2.8386,-2.9365,-2.9534,-2.9197,-2.8056,-2.6953,-2.5839,-2.4713,-2.3714,-2.3091,-2.3091,-2.3091,-2.3091,-2.3091,-2.3091,-2.3091,-2.3091,-2.3963,-2.4542,-2.4542,-2.3627,-2.3551,-2.45,-2.3594,-2.3521,-2.4438,-2.3494,-2.2974,-2.2906,-2.3553,-2.4044,-2.4428,-2.4096,-2.4648,-1.479,-1.4965,-1.5489,-1.6963,0.0,-1.6698,-1.7216,0.0,0.0,0.0,0.0,0.0,0.0,0.0,0.0,0.0,0.0,0.0,0.0,0.0,0.0,0.0,0.0,0.0,0.0,0.0,0.0,0.0,0.0,0.0,0.0,0.0,0.0,0.0,-3.4233,-3.3876,-3.3952,-3.4273,-3.4585,-3.4964,-3.5335,-3.5504,-3.5504,-3.5504,-3.5257,-3.4824,0.0,-3.5225,-3.4809,-3.4732,-3.4409,-3.3889,-3.2861,-3.1946,-3.1141,-3.0609,-3.0175,-2.9792,-2.9792,-2.9792,-2.9792,-2.9792,-2.9792,-2.9792,-2.9792,-2.9792,-2.9792,-2.9792,-2.8976,-2.8096,-2.8096,-2.7279,-2.6637,-2.7238,-2.736,-2.7654,-2.8779,-2.9028,-2.9157,-2.9714,-2.9792,-2.9248,-2.7533,-2.6842,-2.5891,-2.4135,-2.343,-2.3091,-2.3091,-2.3091,-2.3091,-2.3091,-2.3091,-2.3343,-2.3963,-2.45,-2.4787,-2.4787,-2.4296,-2.3963,-2.3887,-2.3387,-2.3343,-2.3887,-2.3387,-2.3091,-2.3091,-2.3438,-2.4016,-2.4787,-2.4619,-2.5216,-1.4504,-1.4455,-1.4983,-1.6666,0.0,-1.7676,-1.8705,0.0,0.0,0.0,0.0,0.0,0.0,0.0,0.0,0.0,0.0,0.0,0.0,0.0,0.0,0.0,0.0,0.0,0.0,0.0,0.0,0.0,0.0,0.0,0.0,0.0,0.0,0.0,-3.4137,-3.3726,-3.3267,-3.3267,-3.3698,-3.4517,-3.5026,-3.535,-3.5504,-3.5504,-3.5504,-3.5504,-3.5504,-3.5504,-3.5427,-3.4425,-3.3994,-3.3841,-3.218,-3.1382,-3.1076,-2.9983,-2.9664,-2.9792,-2.9792,-2.9792,-2.9792,-2.9792,-2.9792,-2.9792,-2.9792,-2.9792,-2.9792,-2.9792,-2.9157,-2.8518,-2.8518,-2.7907,-2.7464,-2.8307,-2.8518,-2.8727,-2.9624,-2.9792,-2.9792,-2.9792,-2.9792,-2.917,-2.7209,-2.6689,-2.5808,-2.38,-2.3256,-2.3091,-2.3091,-2.3091,-2.3091,-2.3091,-2.3343,-2.4049,-2.5441,-2.5326,-2.521,-2.521,-2.4957,-2.4296,-2.3135,-2.3091,-2.3091,-2.3091,-2.3091,-2.3091,-2.3091,-2.3637,-2.4339,-2.521,-2.5452,-2.616,-1.3601,-1.4864,-1.6563,-1.534,-1.561,0.0,-2.1406,-2.0997,0.0,0.0,0.0,0.0,0.0,0.0,0.0,0.0,0.0,0.0,0.0,0.0,0.0,0.0,0.0,0.0,0.0,0.0,0.0,0.0,0.0,0.0,0.0,0.0,0.0,0.0,0.0,-3.2384,-3.2572,-3.2557,-3.3212,-3.4502,-3.4564,-3.4901,-3.5504,-3.5504,-3.5504,-3.5504,-3.5504,-3.5504,-3.5427,-3.4425,-3.3994,-3.3903,-3.288,-3.1972,-3.1009,-2.9513,-2.9321,-2.9792,-2.9792,-2.9792,-2.9792,-2.9792,-2.9792,-2.9792,-2.9792,-2.9792,-2.9792,-2.9792,-2.9753,-2.9663,-2.9663,-2.9624,-2.9585,-2.9663,-2.9663,-2.9702,-2.9792,-2.9792,-2.9792,-2.9792,-2.9792,-2.9404,-2.8176,-2.7168,-2.6099,-2.4872,-2.38,-2.3091,-2.3091,-2.3091,-2.3091,-2.3091,-2.4049,-2.5525,-2.7671,-2.6953,-2.6389,-2.6389,-2.5378,-2.4296,-2.3135,-2.3091,-2.3091,-2.3091,-2.3091,-2.3091,-2.3091,-2.5221,-2.6318,-2.6389,-2.74,-2.8478,-1.3068,-1.4515,-1.6239,-1.6028,-1.698,0.0,0.0,-2.197,0.0,0.0,0.0,0.0,0.0,0.0,0.0,0.0,0.0,0.0,0.0,0.0,0.0,0.0,0.0,0.0,0.0,0.0,0.0,0.0,0.0,0.0,0.0,0.0,0.0,0.0,0.0,-3.2212,-3.1884,-3.1869,-3.2333,-3.3255,-3.4093,-3.4839,-3.5504,-3.5504,-3.5504,-3.5504,-3.5504,-3.5504,-3.5394,-3.4036,-3.3484,-3.3312,-3.1402,-3.0303,-2.9702,-2.9138,-2.9269,-2.9792,-2.9792,-2.9792,-2.9792,-2.9792,-2.9792,-2.9792,-2.9792,-2.9792,-2.9792,-2.9792,-2.9792,-2.9792,-2.9792,-2.9792,-2.9792,-2.9792,-2.9792,-2.9792,-2.9792,-2.9792,-2.9792,-2.9792,-2.9236,-2.8398,-2.729,-2.6171,-2.5052,-2.392,-2.3387,-2.3091,-2.3091,-2.3714,-2.4168,-2.4168,-2.5775,-2.7174,-2.8044,-2.7723,-2.7209,-2.6565,-2.542,-2.4296,-2.3135,-2.3091,-2.3091,-2.3091,-2.3091,-2.3464,-2.4168,-2.4999,-2.616,-2.7481,-2.7924,-2.8727,-1.2893,-1.4231,-1.5842,0.0,0.0,0.0,-2.2103,0.0,0.0,0.0,0.0,0.0,0.0,0.0,0.0,0.0,0.0,0.0,0.0,0.0,0.0,0.0,0.0,0.0,0.0,0.0,0.0,0.0,0.0,0.0,0.0,0.0,0.0,0.0,0.0,-3.2168,-3.1511,-3.1511,-3.1839,-3.2497,-3.3418,-3.4222,-3.4876,-3.4876,-3.4876,-3.4844,-3.4596,-3.4463,-3.4339,-3.2701,-3.1854,-3.1411,-2.9521,-2.873,-2.8621,-2.8449,-2.8857,-2.9524,-2.9524,-2.9651,-2.9792,-2.9792,-2.9792,-2.9792,-2.9792,-2.9792,-2.9792,-2.9792,-2.9792,-2.9792,-2.9792,-2.9792,-2.9792,-2.9792,-2.9792,-2.9792,-2.9792,-2.9792,-2.9792,-2.9792,-2.9157,-2.8187,-2.676,-2.5839,-2.484,-2.3343,-2.3091,-2.3222,-2.3594,-2.4339,-2.5073,-2.5786,-2.7186,-2.8096,-2.8096,-2.7804,-2.7116,-2.6016,-2.4882,-2.392,-2.3135,-2.3091,-2.3091,-2.3091,-2.3464,-2.4006,-2.4787,-2.5493,-2.6603,-2.8124,-2.8466,-2.9067,-1.309,-1.4196,0.0,0.0,0.0,0.0,0.0,0.0,0.0,0.0,0.0,0.0,0.0,0.0,0.0,0.0,0.0,0.0,0.0,0.0,0.0,0.0,0.0,0.0,0.0,0.0,0.0,0.0,0.0,0.0,0.0,0.0,0.0,0.0,0.0,0.0,-3.1496,-3.1496,-3.1824,-3.2452,-3.2467,-3.2856,-3.3499,-3.3499,-3.3499,-3.3438,-3.2583,-3.2193,-3.2037,-3.0251,-2.8939,-2.8044,-2.7503,-2.7623,-2.8019,-2.7499,-2.7977,-2.8903,-2.8876,-2.9269,-2.9792,-2.9792,-2.9792,-2.9792,-2.9792,-2.9792,-2.9792,-2.9792,-2.9792,-2.9792,-2.9792,-2.9792,-2.9792,-2.9792,-2.9792,-2.9792,-2.9792,-2.9792,-2.9792,-2.9792,-2.9792,-2.9091,-2.6894,-2.6524,-2.5724,-2.3474,-2.3101,-2.3507,-2.466,-2.483,-2.5703,-2.7884,-2.8096,-2.8096,-2.8096,-2.7128,-2.6005,-2.4872,-2.3714,-2.3091,-2.3091,-2.3091,-2.3135,-2.3135,-2.4253,-2.483,-2.483,-2.7012,-2.8096,-2.8136,-2.9275,-2.9792,-1.4109,0.0,0.0,0.0,0.0,0.0,0.0,0.0,0.0,0.0,0.0,0.0,0.0,0.0,0.0,0.0,0.0,0.0,0.0,0.0,0.0,0.0,0.0,0.0,0.0,0.0,0.0,0.0,0.0,0.0,0.0,0.0,0.0,0.0,0.0,0.0,-3.0163,-3.0597,-3.0687,-3.0462,-3.139,-3.2378,-3.3499,-3.2882,-3.2584,-3.2553,-3.1707,-3.1371,-3.1216,-2.9598,-2.8179,-2.6964,-2.6797,-2.7083,-2.7541,-2.7357,-2.7736,-2.8344,-2.8346,-2.8686,-2.9181,-2.9181,-2.946,-2.9792,-2.9792,-2.9792,-2.9792,-2.9792,-2.9792,-2.9792,-2.9792,-2.9792,-2.9792,-2.9792,-2.9792,-2.9792,-2.9792,-2.9792,-2.9792,-2.9792,-2.9157,-2.8398,-2.7735,-2.6326,-2.5083,-2.4425,-2.3594,-2.38,-2.5766,-2.6655,-2.7683,-2.9157,-2.8597,-2.8096,-2.8096,-2.6356,-2.5168,-2.483,-2.3714,-2.3091,-2.3091,-2.3887,-2.4296,-2.4296,-2.5431,-2.6378,-2.7134,-2.7804,-2.8505,-2.9314,-2.9624,-2.9792,-1.4615,0.0,0.0,0.0,0.0,0.0,0.0,0.0,0.0,0.0,0.0,0.0,0.0,0.0,0.0,0.0,0.0,0.0,0.0,0.0,0.0,0.0,0.0,0.0,0.0,0.0,0.0,0.0,0.0,0.0,0.0,0.0,0.0,0.0,0.0,0.0,-2.911,-2.9198,-2.9056,-2.8707,-2.9464,-3.0381,-3.14,-3.1416,-3.1266,-3.0871,-3.0047,-2.9497,-2.9134,-2.8206,-2.7302,-2.6499,-2.6499,-2.6712,-2.6976,-2.6976,-2.7323,-2.7769,-2.7787,-2.8138,-2.8599,-2.8593,-2.8952,-2.9448,-2.9448,-2.96,-2.9792,-2.9792,-2.9792,-2.9792,-2.9792,-2.9792,-2.9792,-2.9792,-2.9792,-2.9792,-2.9792,-2.9792,-2.9792,-2.9792,-2.9236,-2.8478,-2.7614,-2.6378,-2.5168,-2.4253,-2.4307,-2.4935,-2.6307,-2.7827,-2.9028,-2.9714,-2.8767,-2.7936,-2.7481,-2.5828,-2.4628,-2.4168,-2.392,-2.38,-2.38,-2.4414,-2.4787,-2.4787,-2.6326,-2.7441,-2.8096,-2.8557,-2.9145,-2.9792,-2.9792,-2.9792,0.0,0.0,0.0,0.0,0.0,0.0,0.0,0.0,0.0,0.0,0.0,0.0,0.0,0.0,0.0,0.0,0.0,0.0,0.0,0.0,0.0,0.0,0.0,0.0,0.0,0.0,0.0,0.0,0.0,0.0,0.0,0.0,0.0,0.0,0.0,0.0,-2.8237,-2.7552,-2.7218,0.0,-2.7273,-2.7518,-2.7953,-2.9369,-2.9513,-2.8666,-2.7841,-2.7059,-2.6348,-2.6348,-2.6348,-2.6348,-2.6399,-2.6411,-2.6424,-2.6474,-2.6797,-2.7216,-2.7216,-2.7576,-2.8031,-2.8052,-2.8392,-2.8819,-2.8827,-2.9206,-2.9651,-2.9651,-2.9664,-2.9715,-2.9715,-2.9779,-2.9792,-2.9792,-2.9792,-2.9792,-2.9792,-2.9792,-2.9792,-2.9792,-2.9702,-2.9,-2.6976,-2.6472,-2.5641,-2.3551,-2.5105,-2.6565,-2.6637,-2.8502,-2.9792,-2.9792,-2.8688,-2.7574,-2.6595,-2.5462,-2.4372,-2.3299,-2.4339,-2.4957,-2.4957,-2.5041,-2.5115,-2.5115,-2.7186,-2.8255,-2.8255,-2.9275,-2.9792,-2.9792,-2.9792,-2.9792,0.0,0.0,0.0,0.0,0.0,0.0,0.0,0.0,0.0,0.0,0.0,0.0,0.0,0.0,0.0,0.0,0.0,0.0,0.0,0.0,0.0,0.0,0.0,0.0,0.0,0.0,0.0,0.0,0.0,0.0,0.0,0.0,0.0,0.0,0.0,-2.5756,-2.6899,-2.6708,-2.6624,0.0,-2.7086,-2.6749,-2.5818,-2.7077,-2.7165,-2.6314,-2.6128,-2.5701,-2.5172,-2.5172,-2.5172,-2.5222,-2.5624,-2.5787,-2.5837,-2.6336,-2.6559,-2.6665,-2.6665,-2.7023,-2.7472,-2.7475,-2.7822,-2.8275,-2.8284,-2.8358,-2.8484,-2.8484,-2.8762,-2.9079,-2.9079,-2.9448,-2.9792,-2.9792,-2.9792,-2.9792,-2.9792,-2.9792,-2.9792,-2.9792,-2.9067,-2.8307,-2.7855,-2.6326,-2.4999,-2.45,-2.5588,-2.6801,-2.7643,-2.8949,-2.9792,-2.9792,-2.8039,-2.676,-2.6524,-2.5462,-2.4702,-2.4457,-2.5504,-2.6141,-2.6141,-2.6942,-2.7389,-2.7389,-2.874,-2.9443,-2.9443,-2.9663,-2.9792,-2.9792,-2.9792,-2.9792,0.0,0.0,0.0,0.0,0.0,0.0,0.0,0.0,0.0,0.0,0.0,0.0,0.0,0.0,0.0,0.0,0.0,0.0,0.0,0.0,0.0,0.0,0.0,0.0,0.0,0.0,0.0,0.0,0.0,0.0,0.0,0.0,0.0,0.0,-2.3779,-2.3984,-2.4996,-2.4618,-2.4567,-2.4881,-2.5154,-2.503,-2.461,-2.5491,-2.5633,-2.5222,-2.5222,-2.5071,-2.4788,-2.4788,-2.4788,-2.4813,-2.5121,-2.5372,-2.5636,-2.5971,-2.6248,-2.6499,-2.6499,-2.6678,-2.6917,-2.6917,-2.7276,-2.7721,-2.7711,-2.7913,-2.811,-2.811,-2.8296,-2.856,-2.8807,-2.913,-2.9448,-2.9728,-2.9792,-2.9792,-2.9792,-2.9792,-2.9792,-2.9792,-2.8867,-2.7962,-2.7411,-2.5454,-2.4168,-2.4702,-2.5755,-2.6883,-2.7964,-2.9106,-2.9792,-2.9792,-2.8291,-2.7046,-2.6565,-2.5975,-2.5378,-2.483,-2.6367,-2.729,-2.729,-2.8319,-2.8648,-2.8124,-2.9236,-2.9792,-2.9792,-2.9792,-2.9792,-2.9792,-2.9792,-2.9792,0.0,0.0,0.0,0.0,0.0,0.0,0.0,0.0,0.0,0.0,0.0,0.0,0.0,0.0,0.0,0.0,0.0,0.0,0.0,0.0,0.0,0.0,0.0,0.0,0.0,0.0,0.0,0.0,0.0,0.0,0.0,0.0,-2.307,-2.307,-2.2639,-2.2667,-2.3251,-2.2607,-2.2594,-2.3153,-2.3118,-2.3308,-2.3715,-2.418,-2.4412,-2.4499,-2.4499,-2.4387,-2.4255,-2.4311,-2.4362,-2.4374,-2.4575,-2.4946,-2.5347,-2.5523,-2.585,-2.6223,-2.6311,-2.6348,-2.6348,-2.6348,-2.6709,-2.7156,-2.7156,-2.7456,-2.7816,-2.7816,-2.7877,-2.8061,-2.8525,-2.877,-2.9015,-2.9524,-2.9715,-2.9792,-2.9792,-2.9792,-2.9728,-2.9537,-2.8435,-2.7195,-2.6092,-2.4354,-2.3551,-2.4872,-2.5891,-2.6964,-2.8227,-2.9236,-2.9792,-2.9792,-2.8767,-2.7723,-2.6842,-2.676,-2.6378,-2.5452,-2.7267,-2.8386,-2.8386,-2.9314,-2.9365,-2.8426,-2.9326,-2.9792,-2.9792,-2.9792,-2.9792,-2.9792,-2.9792,-2.9792,0.0,0.0,0.0,0.0,0.0,0.0,0.0,0.0,0.0,0.0,0.0,0.0,0.0,0.0,0.0,0.0,0.0,0.0,0.0,0.0,0.0,0.0,0.0,0.0,0.0,0.0,0.0,0.0,0.0,0.0,0.0,-2.1996,-2.1762,-2.1762,-2.1686,-2.1992,-2.2683,-2.2444,-2.2668,-2.3373,-2.3183,-2.2895,-2.2535,-2.2611,-2.2882,-2.3333,-2.3333,-2.2794,-2.197,-2.2447,-2.2619,-2.2719,-2.3728,-2.4155,-2.433,-2.5247,-2.536,-2.5109,-2.5548,-2.5711,-2.5711,-2.5711,-2.6109,-2.6606,-2.6606,-2.6665,-2.6725,-2.6725,-2.7036,-2.74,-2.7513,-2.8199,-2.8927,-2.9003,-2.9409,-2.9792,-2.9792,-2.9792,-2.9524,-2.8509,-2.6668,-2.4893,-2.3744,-2.3285,-2.38,-2.5933,-2.6389,-2.7221,-2.9326,-2.9702,-2.9792,-2.9792,-2.8767,-2.8044,-2.7884,-2.7896,-2.7804,-2.7671,-2.8858,-2.9573,-2.9573,-2.9702,-2.9714,-2.9573,-2.9702,-2.9792,-2.9792,-2.9792,-2.9792,-2.9792,-2.9792,-2.9792,0.0,0.0,0.0,0.0,0.0,0.0,0.0,0.0,0.0,0.0,0.0,0.0,0.0,0.0,0.0,0.0,0.0,0.0,0.0,0.0,0.0,0.0,0.0,0.0,0.0,0.0,0.0,0.0,0.0,0.0,-2.187,-2.1358,-2.1056,-2.1056,-2.0715,-2.0877,-2.1532,-2.1447,-2.1726,-2.2326,-2.2542,-2.2355,-2.1845,-2.1845,-2.1983,-2.2209,-2.2209,-2.1933,-2.1531,-2.2083,-2.2309,-2.2397,-2.317,-2.3715,-2.4054,-2.4531,-2.4757,-2.4825,-2.5084,-2.5159,-2.5159,-2.5159,-2.5523,-2.6013,-2.5996,-2.6249,-2.6499,-2.6499,-2.6665,-2.6917,-2.7216,-2.7652,-2.8161,-2.877,-2.9079,-2.9397,-2.9728,-2.9792,-2.9295,-2.7543,-2.5881,-2.4438,-2.3285,-2.3091,-2.3854,-2.6141,-2.6524,-2.7302,-2.9507,-2.9792,-2.9792,-2.9792,-2.9365,-2.8806,-2.8164,-2.8688,-2.8767,-2.8136,-2.9157,-2.9792,-2.9792,-2.9792,-2.9792,-2.9792,-2.9792,-2.9792,-2.9792,-2.9792,-2.9792,-2.9792,-2.9792,-2.9792,0.0,0.0,0.0,0.0,0.0,0.0,0.0,0.0,0.0,0.0,0.0,0.0,0.0,0.0,0.0,0.0,0.0,0.0,0.0,0.0,0.0,0.0,0.0,0.0,0.0,0.0,0.0,0.0,0.0,0.0,-2.1333,-2.0779,-2.0478,-2.0478,-2.0024,-2.0012,-2.0465,-2.0616,-2.0968,-2.1493,-2.1907,-2.1807,-2.1307,-2.1307,-2.1192,-2.1066,-2.1245,-2.1192,-2.1117,-2.182,-2.2108,-2.2171,-2.2832,-2.3371,-2.3803,-2.3941,-2.4167,-2.4387,-2.4525,-2.4587,-2.4587,-2.4587,-2.4971,-2.5419,-2.5543,-2.5906,-2.6308,-2.644,-2.6499,-2.6606,-2.6976,-2.7203,-2.7529,-2.8474,-2.8796,-2.9003,-2.9321,-2.9142,-2.8386,-2.6454,-2.5176,-2.4092,-2.3261,-2.3091,-2.3864,-2.6146,-2.6502,-2.7313,-2.9534,-2.9792,-2.9792,-2.9792,-2.9792,-2.9456,-2.8597,-2.9326,-2.9443,-2.8597,-2.9326,-2.9792,-2.9792,-2.9792,-2.9792,-2.9792,-2.9792,-2.9792,-2.9792,-2.9792,-2.9792,-2.9792,-2.9792,-2.9792,0.0,0.0,0.0,0.0,0.0,0.0,0.0,0.0,0.0,0.0,0.0,0.0,0.0,0.0,0.0,0.0,0.0,0.0,0.0,0.0,0.0,0.0,0.0,0.0,0.0,0.0,0.0,0.0,0.0,0.0,-2.0729,-2.0162,-1.9849,-1.9849,-1.9823,-1.9823,-1.9849,-2.0415,-2.0968,-2.1493,-2.1518,-2.127,-2.0729,-2.0729,-2.044,-1.9924,-2.0503,-2.0427,-1.9974,-2.1079,-2.1531,-2.1644,-2.2681,-2.312,-2.3221,-2.3803,-2.3665,-2.3271,-2.3853,-2.4042,-2.4042,-2.4042,-2.4406,-2.4956,-2.5432,-2.5623,-2.5787,-2.6321,-2.6499,-2.6499,-2.6546,-2.6917,-2.7421,-2.8019,-2.8544,-2.8762,-2.8295,-2.7377,-2.6325,-2.5111,-2.3974,-2.3154,-2.3101,-2.3091,-2.3881,-2.6167,-2.6509,-2.7317,-2.9509,-2.9792,-2.9792,-2.9792,-2.9792,-2.9792,-2.9702,-2.9753,-2.9753,-2.9702,-2.9753,-2.9792,-2.9792,-2.9792,-2.9792,-2.9792,-2.9792,-2.9792,-2.9792,-2.9792,-2.9792,-2.9792,-2.9792,-2.9792,0.0,0.0,0.0,0.0,0.0,0.0,0.0,0.0,0.0,0.0,0.0,0.0,0.0,0.0,0.0,0.0,0.0,0.0,0.0,0.0,0.0,0.0,0.0,0.0,0.0,0.0,0.0,0.0,0.0,0.0,-2.0125,-1.9911,-1.9798,-1.9798,-1.9798,-1.9798,-1.9798,-2.0402,-2.0603,-2.0413,-2.0805,-2.0691,-2.0112,-2.0112,-1.9999,-1.9811,-2.0024,-1.9987,-1.9861,-2.0666,-2.1194,-2.1556,-2.2309,-2.2794,-2.3133,-2.3333,-2.3283,-2.3133,-2.3346,-2.3409,-2.3409,-2.3409,-2.3797,-2.4393,-2.4928,-2.5336,-2.5728,-2.6321,-2.6499,-2.6499,-2.6499,-2.6653,-2.7019,-2.7877,-2.8497,-2.856,-2.7353,-2.6754,-2.6157,-2.5041,-2.3867,-2.3325,-2.4092,-2.421,-2.4931,-2.7171,-2.755,-2.8068,-2.9585,-2.9792,-2.9792,-2.9792,-2.9792,-2.9792,-2.9792,-2.9792,-2.9792,-2.9792,-2.9792,-2.9792,-2.9792,-2.9792,-2.9792,-2.9792,-2.9792,-2.9792,-2.9792,-2.9792,-2.9792,-2.9792,-2.9792,-2.9792,0.0,0.0,0.0,0.0,0.0,0.0,0.0,0.0,0.0,0.0,0.0,0.0,0.0,0.0,0.0,0.0,0.0,0.0,0.0,0.0,0.0,0.0,0.0,0.0,0.0,0.0,0.0,0.0,0.0,0.0,-1.9823,-1.9635,-1.9459,-1.9271,-1.9447,-1.9547,-1.9547,-2.01,-2.01,-1.9547,-2.0138,-2.0075,-1.9547,-1.9723,-1.9798,-1.9798,-1.9798,-1.9798,-1.9849,-2.0453,-2.0905,-2.1295,-2.182,-2.2259,-2.2581,-2.2757,-2.2832,-2.2857,-2.3045,-2.3108,-2.3108,-2.3108,-2.3358,-2.3847,-2.4577,-2.5048,-2.549,-2.6292,-2.6499,-2.6499,-2.6499,-2.6784,-2.7272,-2.8174,-2.8786,-2.8699,-2.6877,-2.6498,-2.604,-2.452,-2.3622,-2.3334,-2.4092,-2.4223,-2.4988,-2.7245,-2.7545,-2.8088,-2.9599,-2.9792,-2.9792,-2.9792,-2.9792,-2.9792,-2.9792,-2.9792,-2.9792,-2.9792,-2.9792,-2.9792,-2.9792,-2.9792,-2.9792,-2.9792,-2.9792,-2.9792,-2.9792,-2.9792,-2.9792,-2.9792,-2.9792,-2.9792,0.0,0.0,0.0,0.0,0.0,0.0,0.0,0.0,0.0,0.0,0.0,0.0,0.0,0.0,0.0,0.0,0.0,0.0,0.0,0.0,0.0,0.0,0.0,0.0,0.0,0.0,0.0,0.0,0.0,-1.9761,-1.9773,-1.9259,-1.8732,-1.8229,-1.8694,-1.8983,-1.8983,-1.9497,-1.9497,-1.8983,-1.951,-1.9497,-1.8995,-1.9547,-1.9773,-1.9773,-1.9798,-1.9798,-1.9849,-2.0427,-2.0679,-2.0742,-2.1282,-2.1509,-2.1581,-2.2121,-2.2322,-2.241,-2.292,-2.3108,-2.3108,-2.3108,-2.3108,-2.3308,-2.4424,-2.4783,-2.5033,-2.6167,-2.6487,-2.6499,-2.6499,-2.7267,-2.8222,-2.8733,-2.934,-2.9181,-2.699,-2.6498,-2.5846,-2.3559,-2.3091,-2.3101,-2.3144,-2.3166,-2.3917,-2.6147,-2.6551,-2.7314,-2.946,-2.9779,-2.9792,-2.9792,-2.9792,-2.9792,-2.9792,-2.9792,-2.9792,-2.9792,-2.9792,-2.9792,-2.9792,-2.9792,-2.9792,-2.9792,-2.9792,-2.9792,-2.9792,-2.9792,-2.9792,-2.9792,-2.9792,-2.9792,-1.205,0.0,0.0,0.0,0.0,0.0,0.0,0.0,0.0,0.0,0.0,0.0,0.0,0.0,0.0,0.0,0.0,0.0,0.0,0.0,0.0,0.0,0.0,0.0,0.0,0.0,0.0,0.0,-1.8957,-1.8819,-1.9196,-1.8707,-1.8355,-1.8204,-1.8355,-1.8406,-1.8406,-1.8581,-1.8581,-1.8406,-1.8581,-1.8568,-1.8455,-1.897,-1.9221,-1.9233,-1.9635,-1.9798,-1.9811,-1.9974,-2.0314,-2.0704,-2.0855,-2.1408,-2.2108,-2.2259,-2.2543,-2.2895,-2.3058,-2.3108,-2.3108,-2.3108,-2.3108,-2.3246,-2.4004,-2.4484,-2.4942,-2.5648,-2.6143,-2.6499,-2.6499,-2.7024,-2.7666,-2.8176,-2.8747,-2.8674,-2.6877,-2.6498,-2.5846,-2.3559,-2.3091,-2.3378,-2.421,-2.4315,-2.4808,-2.6265,-2.7146,-2.7866,-2.8497,-2.9269,-2.9792,-2.9792,-2.9792,-2.9792,-2.9792,-2.9792,-2.9792,-2.9792,-2.9792,-2.9792,-2.9792,-2.9792,-2.9792,-2.9792,-2.9792,-2.9792,-2.9792,-2.9792,-2.9792,-2.9792,-2.9792,-2.9792,0.0,0.0,0.0,0.0,0.0,0.0,0.0,-1.3168,0.0,0.0,0.0,0.0,0.0,0.0,0.0,0.0,0.0,0.0,0.0,0.0,0.0,0.0,0.0,0.0,0.0,0.0,0.0,0.0,-1.8569,-1.8669,-1.8983,-1.8481,-1.8103,-1.7865,-1.7865,-1.7865,-1.7865,-1.8091,-1.8091,-1.7865,-1.8091,-1.8078,-1.789,-1.8644,-1.9008,-1.9033,-1.9572,-1.9798,-1.9798,-1.9798,-1.9999,-2.0327,-2.0327,-2.0867,-2.1656,-2.1882,-2.2322,-2.2794,-2.302,-2.3108,-2.3108,-2.3108,-2.3108,-2.3258,-2.4061,-2.4548,-2.4975,-2.5741,-2.6249,-2.6546,-2.6784,-2.7208,-2.7759,-2.8324,-2.8494,-2.818,-2.6799,-2.6129,-2.5251,-2.3442,-2.3091,-2.3325,-2.3974,-2.4092,-2.4638,-2.6279,-2.701,-2.7782,-2.8694,-2.9397,-2.9792,-2.9792,-2.9792,-2.9792,-2.9792,-2.9792,-2.9792,-2.9792,-2.9792,-2.9792,-2.9792,-2.9792,-2.9792,-2.9792,-2.9792,-2.9792,-2.9792,-2.9792,-2.9792,-2.9792,-2.9792,-2.9792,0.0,0.0,0.0,0.0,0.0,0.0,-1.2093,-1.2869,-1.403,0.0,0.0,0.0,0.0,0.0,0.0,0.0,0.0,0.0,0.0,0.0,0.0,0.0,0.0,0.0,0.0,0.0,-1.8116,-1.8116,-1.8607,-1.8907,-1.8907,-1.8405,-1.789,-1.7423,-1.7348,-1.731,-1.731,-1.7777,-1.7777,-1.7322,-1.7777,-1.7765,-1.7348,-1.8406,-1.8907,-1.8945,-1.9547,-1.9798,-1.9798,-1.9798,-1.9798,-1.9798,-1.9798,-2.0189,-2.0754,-2.1307,-2.1832,-2.2397,-2.2907,-2.3108,-2.3108,-2.3108,-2.3108,-2.3308,-2.4374,-2.4738,-2.5059,-2.6185,-2.6499,-2.6606,-2.7083,-2.7594,-2.8112,-2.8543,-2.8327,-2.7683,-2.6569,-2.553,-2.4456,-2.3325,-2.3091,-2.3091,-2.3091,-2.3221,-2.3991,-2.5989,-2.652,-2.7397,-2.9363,-2.9715,-2.9792,-2.9792,-2.9792,-2.9792,-2.9792,-2.9792,-2.9792,-2.9792,-2.9792,-2.9792,-2.9792,-2.9792,-2.9792,-2.9792,-2.9792,-2.9792,-2.9792,-2.9792,-2.9792,-2.9792,-2.9792,-2.9792,0.0,0.0,0.0,0.0,0.0,0.0,-1.3559,-1.3106,-1.3015,0.0,0.0,0.0,0.0,0.0,0.0,0.0,0.0,0.0,0.0,0.0,0.0,0.0,0.0,0.0,0.0,0.0,-1.7574,-1.7574,-1.8053,-1.8367,-1.8367,-1.784,-1.7524,-1.741,-1.6936,-1.6685,-1.6685,-1.6763,-1.6763,-1.6685,-1.6776,-1.6763,-1.6701,-1.7852,-1.8367,-1.8417,-1.9384,-1.9798,-1.9798,-1.9798,-1.9798,-1.9798,-1.9798,-2.0189,-2.0754,-2.1307,-2.1832,-2.2397,-2.2907,-2.3108,-2.3108,-2.3108,-2.3108,-2.3233,-2.3954,-2.4469,-2.5059,-2.6185,-2.6499,-2.6533,-2.6618,-2.705,-2.7366,-2.7033,-2.7215,-2.7035,-2.5449,-2.4986,-2.4456,-2.3325,-2.3091,-2.3091,-2.3091,-2.3878,-2.461,-2.5067,-2.6655,-2.7941,-2.8368,-2.9206,-2.9792,-2.9792,-2.9792,-2.9792,-2.9792,-2.9792,-2.9792,-2.9792,-2.9792,-2.9792,-2.9792,-2.9792,-2.9792,-2.9792,-2.9792,-2.9792,-2.9792,-2.9792,-2.9792,-2.9792,-2.9792,-2.9792,0.0,0.0,0.0,-1.2988,0.0,0.0,0.0,-1.2879,0.0,0.0,0.0,0.0,0.0,0.0,0.0,0.0,0.0,0.0,0.0,0.0,0.0,0.0,0.0,0.0,0.0,0.0,-1.7472,-1.7775,-1.8053,-1.8442,-1.897,-1.7965,-1.7524,-1.779,-1.6961,-1.65,-1.65,-1.65,-1.65,-1.65,-1.65,-1.65,-1.6525,-1.74,-1.794,-1.8242,-1.9033,-1.956,-1.9798,-1.9798,-1.9798,-1.9798,-1.9798,-2.0189,-2.0729,-2.1006,-2.1606,-2.2347,-2.2594,-2.2882,-2.3108,-2.3108,-2.3108,-2.3276,-2.4141,-2.4992,-2.5749,-2.6336,-2.6499,-2.6499,-2.6499,-2.7115,-2.7504,-2.6702,-2.6697,-2.6539,-2.5093,-2.4356,-2.3793,-2.3208,-2.3091,-2.3091,-2.3091,-2.4053,-2.4998,-2.5574,-2.7042,-2.8299,-2.8887,-2.946,-2.9792,-2.9792,-2.9792,-2.9792,-2.9792,-2.9792,-2.9792,-2.9792,-2.9792,-2.9792,-2.9792,-2.9792,-2.9792,-2.9792,-2.9792,-2.9792,-2.9792,-2.9792,-2.9792,-2.9792,-2.9792,-2.9792,0.0,0.0,0.0,0.0,0.0,-1.322,0.0,0.0,0.0,0.0,0.0,0.0,0.0,0.0,0.0,0.0,0.0,0.0,0.0,0.0,0.0,0.0,0.0,0.0,0.0,0.0,-1.7655,-1.8162,-1.8192,-1.8622,-1.9585,-1.8224,-1.7612,-1.8028,-1.7027,-1.65,-1.65,-1.65,-1.65,-1.65,-1.65,-1.65,-1.6513,-1.7112,-1.7689,-1.8242,-1.877,-1.9296,-1.9798,-1.9798,-1.9798,-1.9798,-1.9798,-2.0087,-2.0553,-2.0767,-2.1393,-2.2184,-2.2397,-2.2732,-2.3108,-2.3108,-2.3251,-2.3601,-2.4526,-2.5613,-2.6499,-2.6499,-2.6499,-2.6499,-2.6499,-2.7041,-2.7336,-2.632,-2.5966,-2.5598,-2.4566,-2.3637,-2.3081,-2.3367,-2.343,-2.343,-2.343,-2.4383,-2.5492,-2.6618,-2.7731,-2.8771,-2.9661,-2.9792,-2.9792,-2.9792,-2.9792,-2.9792,-2.9792,-2.9792,-2.9792,-2.9792,-2.9792,-2.9792,-2.9792,-2.9792,-2.9792,-2.9792,-2.9792,-2.9792,-2.9792,-2.9792,-2.9792,-2.9792,-2.9792,-2.9792,0.0,0.0,0.0,0.0,-1.4323,0.0,0.0,0.0,0.0,0.0,0.0,0.0,0.0,0.0,0.0,0.0,0.0,0.0,0.0,0.0,0.0,0.0,0.0,0.0,0.0,0.0,0.0,-1.8188,-1.8206,-1.8472,-1.9054,-1.8025,-1.7436,-1.7498,-1.6861,-1.65,-1.65,-1.65,-1.65,-1.65,-1.65,-1.65,-1.6513,-1.7112,-1.7689,-1.8242,-1.877,-1.9296,-1.9798,-1.9798,-1.9798,-1.9798,-1.9798,-1.9849,-2.0024,-2.1029,-2.1509,-2.1719,-2.2669,-2.3058,-2.3108,-2.3108,-2.3801,-2.4633,-2.4746,-2.5607,-2.6499,-2.6499,-2.6499,-2.6499,-2.6499,-2.6177,-2.5653,-2.4671,-2.4039,-2.3523,-2.2904,-2.2663,-2.2975,-2.4342,-2.4628,-2.4628,-2.4628,-2.5529,-2.6655,-2.776,-2.8889,-2.9635,-2.9792,-2.9792,-2.9792,-2.9792,-2.9792,-2.9792,-2.9792,-2.9792,-2.9792,-2.9792,-2.9792,-2.9792,-2.9792,-2.9792,-2.9792,-2.9792,-2.9792,-2.9792,-2.9792,-2.9792,-2.9792,-2.9792,-2.9792,-2.9792,0.0,0.0,0.0,0.0,0.0,0.0,0.0,0.0,-1.3531,0.0,0.0,0.0,0.0,0.0,0.0,0.0,0.0,0.0,0.0,0.0,0.0,0.0,0.0,0.0,0.0,0.0,0.0,0.0,0.0,-1.7783,-1.8384,-1.7722,-1.7362,-1.7398,-1.6823,-1.65,-1.65,-1.65,-1.65,-1.65,-1.65,-1.65,-1.65,-1.6773,-1.7187,-1.7765,-1.8304,-1.8668,-1.892,-1.9547,-1.9623,-1.9384,-2.0049,-2.0327,-2.039,-2.0867,-2.1446,-2.2033,-2.2498,-2.2832,-2.3108,-2.3108,-2.3672,-2.4373,-2.4711,-2.5136,-2.5636,-2.6311,-2.6248,-2.5907,-2.5701,-2.567,-2.5315,-2.3732,-2.3584,-2.3575,-2.2685,-2.3188,-2.4028,-2.4671,-2.5336,-2.5986,-2.6622,-2.7128,-2.758,-2.8017,-2.9093,-2.9792,-2.9792,-2.9792,-2.9792,-2.9792,-2.9792,-2.9792,-2.9792,-2.9792,-2.9792,-2.9792,-2.9792,-2.9792,-2.9792,-2.9792,-2.9792,-2.9792,-2.9792,-2.9792,-2.9792,-2.9792,-2.9792,-2.9792,-2.9792,-2.9792,-1.8081,0.0,0.0,0.0,0.0,0.0,0.0,0.0,0.0,0.0,0.0,0.0,0.0,0.0,0.0,0.0,0.0,0.0,0.0,0.0,0.0,0.0,0.0,0.0,0.0,0.0,0.0,0.0,-1.6973,-1.6823,-1.7658,-1.7108,-1.6959,-1.7355,-1.68,-1.65,-1.65,-1.65,-1.65,-1.65,-1.65,-1.65,-1.65,-1.65,-1.6835,-1.7423,-1.7802,-1.8154,-1.8469,-1.9271,-1.9447,-1.9309,-2.0314,-2.0779,-2.0943,-2.1081,-2.1619,-2.2305,-2.2456,-2.2769,-2.3108,-2.3108,-2.3512,-2.4083,-2.4451,-2.4676,-2.4995,-2.5979,-2.5925,-2.553,-2.5102,-2.5195,-2.4863,-2.2949,-2.296,-2.3206,-2.2485,-2.3227,-2.4157,-2.4714,-2.5715,-2.6839,-2.7936,-2.8111,-2.8224,-2.8512,-2.9263,-2.9792,-2.9792,-2.9792,-2.9664,-2.9384,-2.96,-2.9664,-2.9346,-2.96,-2.9792,-2.9792,-2.9792,-2.9792,-2.9792,-2.9792,-2.9792,-2.9792,-2.9792,-2.9792,-2.9792,-2.9792,-2.9792,-2.9792,-2.9792,-2.9792,0.0,0.0,0.0,-2.0547,0.0,0.0,0.0,0.0,-1.5528,0.0,0.0,0.0,0.0,0.0,0.0,0.0,0.0,0.0,0.0,0.0,0.0,0.0,0.0,0.0,0.0,0.0,0.0,-1.5171,-1.5082,-1.5609,-1.6881,-1.6009,-1.6029,-1.7258,-1.6786,-1.65,-1.65,-1.65,-1.65,-1.65,-1.65,-1.65,-1.65,-1.65,-1.6835,-1.741,-1.7423,-1.8016,-1.8983,-1.9008,-1.9309,-1.9836,-2.0465,-2.1018,-2.1531,-2.2071,-2.2284,-2.2355,-2.2895,-2.3095,-2.3108,-2.3108,-2.3512,-2.4,-2.4021,-2.44,-2.4931,-2.5461,-2.5611,-2.5514,-2.5109,-2.4631,-2.385,-2.2372,-2.1659,-2.1427,-2.1816,-2.1955,-2.2536,-2.442,-2.5718,-2.6858,-2.7927,-2.8096,-2.8463,-2.9584,-2.9765,-2.9792,-2.9792,-2.9792,-2.9384,-2.8295,-2.9142,-2.9333,-2.8244,-2.9181,-2.9792,-2.9792,-2.9792,-2.9792,-2.9792,-2.9792,-2.9792,-2.9792,-2.9792,-2.9792,-2.9792,-2.9792,-2.9792,-2.9792,-2.9792,-2.9792,0.0,0.0,-2.2426,-2.3187,0.0,0.0,0.0,0.0,0.0,0.0,0.0,0.0,0.0,0.0,0.0,0.0,0.0,0.0,0.0,0.0,0.0,0.0,0.0,0.0,0.0,0.0,0.0,-1.5448,-1.5124,-1.5301,0.0,-1.6365,-1.6659,-1.7272,-1.7105,-1.6858,-1.65,-1.65,-1.65,-1.65,-1.65,-1.65,-1.65,-1.65,-1.66,-1.6835,-1.7234,-1.7836,-1.8549,-1.8876,-1.9355,-2.0031,-2.0877,-2.1358,-2.1556,-2.2108,-2.2506,-2.2857,-2.3045,-2.3108,-2.3108,-2.3108,-2.3248,-2.347,-2.3888,-2.4134,-2.445,-2.5369,-2.5615,-2.5364,-2.4282,-2.3891,-2.3291,-2.1521,-2.1666,-2.2235,-2.2408,-2.4014,-2.5666,-2.6331,-2.7644,-2.8797,-2.9174,-2.9238,-2.9376,-2.9753,-2.9792,-2.9792,-2.9792,-2.9142,-2.8548,-2.8118,-2.7807,-2.7736,-2.8062,-2.9142,-2.9792,-2.9792,-2.9792,-2.9792,-2.9792,-2.9792,-2.9792,-2.9792,-2.9792,-2.9792,-2.9792,-2.9792,-2.9792,-2.9792,-2.9792,-2.9792,-2.476,-2.4537,0.0,-2.5083,-2.3221,0.0,-2.0936,0.0,0.0,0.0,0.0,0.0,0.0,0.0,0.0,0.0,0.0,0.0,0.0,0.0,0.0,0.0,0.0,0.0,0.0,0.0,-1.3074,-1.4629,-1.4107,-1.4378,0.0,0.0,-1.6443,-1.7552,-1.7209,-1.6858,-1.65,-1.65,-1.65,-1.65,-1.65,-1.65,-1.65,-1.65,-1.6717,-1.7145,-1.7564,-1.8279,-1.9221,-1.9305,-1.9709,-2.0375,-2.1174,-2.1493,-2.1581,-2.2334,-2.2794,-2.3108,-2.3108,-2.3108,-2.3108,-2.3108,-2.3108,-2.3163,-2.3568,-2.3833,-2.4166,-2.5053,-2.5431,-2.5259,-2.3858,-2.3781,-2.3446,-2.1156,-2.1531,-2.2513,-2.266,-2.4419,-2.6097,-2.6587,-2.804,-2.9195,-2.9184,-2.9524,-2.9792,-2.9792,-2.9792,-2.9792,-2.9792,-2.9142,-2.8382,-2.7637,-2.7607,-2.7934,-2.8655,-2.9384,-2.9792,-2.9792,-2.9792,-2.9792,-2.9792,-2.9792,-2.9792,-2.9792,-2.9792,-2.9792,-2.9792,-2.9792,-2.9792,-2.9792,-2.9792,-2.9792]},{"header":{"parameterUnit":"m.s-1","parameterCategory":1,"la1":30.6,"la2":29.2853,"lo1":-89.7004,"lo2":-87.6739,"dx":0.0162,"dy":0.0183,"nx":112,"ny":82,"refTime":"2023-01-30T06:00:00:Z","depth":0,"parameterNumber":3,"parameterNumberName":"V-component_of_WINDS"},"data":[0.0,0.0,0.0,0.0,0.0,0.0,0.0,0.0,0.0,0.0,0.0,0.0,0.0,0.0,0.0,0.0,0.0,0.0,0.0,0.0,0.0,0.0,0.0,0.0,0.0,0.0,0.0,0.0,0.0,0.0,0.0,0.0,0.0,0.0,0.0,0.0,0.0,0.0,0.0,0.0,0.0,0.0,0.0,0.0,0.0,0.0,0.0,0.0,0.0,0.0,0.0,0.0,0.0,0.0,0.0,0.0,0.0,0.0,0.0,0.0,0.0,0.0,0.0,0.0,0.0,0.0,0.0,0.0,0.0,0.0,0.0,0.0,0.0,0.0,0.0,0.0,0.0,0.0,0.0,0.0,0.0,0.0,0.0,0.0,0.0,0.0,0.0,0.0,0.0,0.0,0.0,-2.001,-2.0351,-2.0223,-1.9843,-1.9809,-1.8856,-1.6636,0.0,0.0,0.0,0.0,0.0,0.0,0.0,0.0,0.0,0.0,0.0,0.0,0.0,0.0,0.0,0.0,0.0,0.0,0.0,0.0,0.0,0.0,0.0,0.0,0.0,0.0,0.0,0.0,0.0,0.0,0.0,0.0,0.0,0.0,0.0,0.0,0.0,0.0,0.0,0.0,0.0,0.0,0.0,0.0,0.0,0.0,0.0,0.0,0.0,0.0,0.0,0.0,0.0,0.0,0.0,0.0,0.0,0.0,0.0,0.0,0.0,0.0,0.0,0.0,0.0,0.0,0.0,0.0,0.0,0.0,0.0,0.0,0.0,0.0,0.0,0.0,0.0,0.0,0.0,0.0,0.0,0.0,0.0,0.0,0.0,0.0,0.0,0.0,0.0,0.0,0.0,0.0,0.0,0.0,0.0,0.0,0.0,0.0,0.0,0.0,0.0,0.0,0.0,0.0,-2.0117,-2.2737,-2.3023,-2.2162,-1.9992,-1.9807,-1.8853,-1.6637,0.0,0.0,0.0,0.0,0.0,0.0,0.0,0.0,0.0,0.0,0.0,0.0,0.0,0.0,0.0,0.0,0.0,0.0,0.0,0.0,0.0,0.0,0.0,0.0,0.0,0.0,0.0,0.0,0.0,0.0,0.0,0.0,0.0,0.0,0.0,0.0,0.0,0.0,0.0,0.0,0.0,0.0,0.0,0.0,0.0,0.0,0.0,0.0,0.0,0.0,0.0,0.0,0.0,0.0,0.0,0.0,0.0,0.0,0.0,0.0,0.0,0.0,0.0,0.0,0.0,0.0,0.0,0.0,0.0,0.0,0.0,0.0,0.0,0.0,0.0,0.0,0.0,0.0,0.0,0.0,0.0,0.0,0.0,0.0,0.0,0.0,0.0,0.0,0.0,0.0,0.0,0.0,0.0,0.0,0.0,0.0,0.0,0.0,0.0,0.0,0.0,0.0,0.0,-1.8968,-2.0706,-2.3319,-2.3601,-2.256,-2.0009,-1.9794,-1.8857,-1.6654,-1.4429,0.0,0.0,0.0,0.0,0.0,0.0,0.0,0.0,0.0,0.0,0.0,0.0,0.0,0.0,0.0,0.0,0.0,0.0,0.0,0.0,0.0,0.0,0.0,0.0,0.0,0.0,0.0,0.0,0.0,0.0,0.0,0.0,0.0,0.0,0.0,0.0,0.0,0.0,0.0,0.0,0.0,0.0,0.0,0.0,0.0,0.0,0.0,0.0,0.0,0.0,0.0,0.0,0.0,0.0,0.0,0.0,0.0,0.0,0.0,0.0,0.0,0.0,0.0,0.0,0.0,0.0,0.0,0.0,0.0,0.0,0.0,0.0,0.0,0.0,0.0,0.0,0.0,0.0,0.0,0.0,0.0,0.0,0.0,0.0,0.0,0.0,0.0,0.0,0.0,0.0,0.0,0.0,0.0,0.0,0.0,0.0,0.0,0.0,0.0,0.0,0.0,0.0,-1.9334,-2.0481,-2.2473,-2.2687,-2.189,-1.9945,-1.931,-1.8308,-1.6612,-1.4423,0.0,0.0,0.0,0.0,0.0,0.0,0.0,0.0,0.0,0.0,0.0,0.0,0.0,0.0,0.0,0.0,0.0,0.0,0.0,0.0,0.0,0.0,0.0,0.0,0.0,0.0,0.0,0.0,0.0,0.0,0.0,0.0,0.0,0.0,0.0,0.0,0.0,0.0,0.0,0.0,0.0,0.0,0.0,0.0,0.0,0.0,0.0,0.0,0.0,0.0,0.0,0.0,0.0,0.0,0.0,0.0,0.0,0.0,0.0,0.0,0.0,0.0,0.0,0.0,0.0,0.0,0.0,0.0,0.0,0.0,0.0,0.0,0.0,0.0,0.0,0.0,0.0,0.0,0.0,0.0,0.0,0.0,0.0,0.0,0.0,0.0,0.0,0.0,0.0,0.0,0.0,0.0,0.0,0.0,0.0,0.0,0.0,0.0,0.0,0.0,0.0,0.0,-1.8198,-1.978,-1.9935,-1.997,-1.9908,-1.9726,-1.7882,-1.6659,-1.6521,-1.4419,0.0,0.0,0.0,0.0,0.0,0.0,0.0,0.0,0.0,0.0,0.0,0.0,0.0,0.0,0.0,0.0,0.0,0.0,0.0,0.0,0.0,0.0,0.0,0.0,0.0,0.0,0.0,0.0,0.0,0.0,0.0,0.0,0.0,0.0,0.0,0.0,0.0,0.0,0.0,0.0,0.0,0.0,0.0,0.0,0.0,0.0,0.0,0.0,0.0,0.0,0.0,0.0,0.0,0.0,0.0,0.0,0.0,0.0,0.0,0.0,0.0,0.0,0.0,0.0,0.0,0.0,0.0,0.0,0.0,0.0,0.0,0.0,0.0,0.0,0.0,0.0,0.0,0.0,0.0,0.0,0.0,0.0,0.0,0.0,0.0,0.0,0.0,0.0,0.0,0.0,0.0,0.0,0.0,0.0,0.0,0.0,0.0,0.0,0.0,0.0,0.0,0.0,-1.9086,-1.9695,0.0,-1.9696,-1.9701,-1.9706,-1.7735,-1.5318,-1.2562,0.0,0.0,0.0,0.0,0.0,0.0,0.0,0.0,0.0,0.0,0.0,0.0,0.0,0.0,0.0,0.0,0.0,0.0,0.0,0.0,0.0,0.0,0.0,0.0,0.0,0.0,0.0,0.0,0.0,0.0,0.0,0.0,0.0,0.0,0.0,0.0,0.0,0.0,0.0,0.0,0.0,0.0,0.0,0.0,0.0,0.0,0.0,0.0,0.0,0.0,0.0,0.0,0.0,0.0,0.0,0.0,0.0,0.0,0.0,0.0,0.0,0.0,0.0,0.0,0.0,0.0,0.0,0.0,0.0,0.0,0.0,0.0,0.0,0.0,0.0,0.0,0.0,0.0,0.0,0.0,0.0,0.0,0.0,0.0,0.0,0.0,0.0,0.0,0.0,0.0,0.0,0.0,0.0,0.0,0.0,0.0,0.0,0.0,0.0,0.0,0.0,0.0,-2.0364,-2.0053,-1.9699,0.0,-1.9708,-1.9704,-1.9711,-1.8362,-1.6232,-1.3198,0.0,0.0,0.0,0.0,0.0,0.0,0.0,0.0,0.0,0.0,0.0,0.0,0.0,0.0,0.0,0.0,0.0,0.0,0.0,0.0,0.0,0.0,0.0,0.0,0.0,0.0,0.0,0.0,0.0,0.0,0.0,0.0,0.0,0.0,0.0,0.0,0.0,0.0,0.0,0.0,0.0,0.0,0.0,0.0,0.0,0.0,0.0,0.0,0.0,0.0,0.0,0.0,0.0,0.0,0.0,0.0,0.0,0.0,0.0,0.0,0.0,0.0,0.0,0.0,0.0,0.0,0.0,0.0,0.0,0.0,0.0,0.0,0.0,0.0,0.0,0.0,0.0,0.0,0.0,0.0,0.0,0.0,0.0,0.0,0.0,0.0,0.0,0.0,0.0,0.0,0.0,0.0,0.0,0.0,0.0,0.0,0.0,0.0,0.0,0.0,0.0,0.0,-2.1735,-2.0778,-1.971,-1.9699,-1.9708,-1.9704,-1.9711,-1.9705,-1.9706,0.0,0.0,0.0,0.0,0.0,0.0,0.0,0.0,0.0,0.0,0.0,0.0,0.0,0.0,0.0,0.0,0.0,0.0,0.0,0.0,0.0,0.0,0.0,0.0,0.0,0.0,0.0,0.0,0.0,0.0,0.0,0.0,0.0,0.0,0.0,0.0,0.0,0.0,0.0,0.0,0.0,0.0,0.0,0.0,0.0,0.0,0.0,0.0,0.0,0.0,0.0,0.0,0.0,0.0,0.0,0.0,0.0,0.0,0.0,0.0,0.0,0.0,0.0,0.0,0.0,0.0,0.0,0.0,0.0,0.0,0.0,0.0,0.0,0.0,0.0,0.0,0.0,0.0,0.0,0.0,0.0,0.0,0.0,0.0,0.0,0.0,0.0,0.0,0.0,0.0,0.0,0.0,0.0,0.0,0.0,0.0,0.0,0.0,0.0,0.0,0.0,0.0,0.0,-2.1743,-2.0782,-1.9702,-1.9702,-1.9708,-1.9702,-1.9704,-1.9702,-1.97,-1.9711,0.0,0.0,0.0,0.0,0.0,0.0,0.0,0.0,0.0,0.0,0.0,0.0,0.0,0.0,0.0,0.0,0.0,0.0,0.0,0.0,0.0,0.0,0.0,0.0,0.0,0.0,0.0,0.0,0.0,0.0,0.0,0.0,0.0,0.0,0.0,0.0,0.0,0.0,0.0,0.0,0.0,0.0,0.0,0.0,0.0,0.0,0.0,0.0,0.0,0.0,0.0,0.0,0.0,0.0,0.0,0.0,0.0,0.0,0.0,0.0,0.0,0.0,0.0,0.0,0.0,0.0,0.0,0.0,0.0,0.0,0.0,0.0,0.0,0.0,0.0,0.0,0.0,0.0,0.0,0.0,0.0,0.0,0.0,0.0,0.0,0.0,0.0,0.0,0.0,0.0,0.0,0.0,0.0,0.0,0.0,0.0,0.0,0.0,0.0,0.0,0.0,0.0,-2.1804,-2.0783,-1.9709,-1.9687,-1.9708,-1.9708,-1.9708,-1.9708,-1.97,-1.9694,0.0,0.0,0.0,0.0,0.0,0.0,0.0,0.0,0.0,0.0,0.0,0.0,0.0,0.0,0.0,0.0,0.0,0.0,0.0,0.0,0.0,0.0,0.0,0.0,0.0,0.0,0.0,0.0,0.0,0.0,0.0,0.0,0.0,0.0,0.0,0.0,0.0,0.0,0.0,0.0,0.0,0.0,0.0,0.0,0.0,0.0,0.0,0.0,0.0,0.0,0.0,0.0,0.0,0.0,0.0,0.0,0.0,0.0,0.0,0.0,0.0,0.0,0.0,0.0,0.0,0.0,0.0,0.0,0.0,0.0,0.0,0.0,0.0,0.0,0.0,0.0,0.0,0.0,0.0,0.0,0.0,0.0,0.0,0.0,0.0,0.0,0.0,0.0,0.0,0.0,0.0,0.0,0.0,0.0,0.0,0.0,0.0,0.0,0.0,0.0,0.0,0.0,-2.1907,-2.0782,-1.9709,-1.9687,-1.9708,-1.9708,-1.9708,-1.9687,-1.9702,-1.9693,0.0,0.0,0.0,0.0,0.0,0.0,0.0,0.0,0.0,0.0,0.0,0.0,0.0,0.0,0.0,0.0,0.0,0.0,0.0,0.0,0.0,0.0,0.0,0.0,0.0,0.0,0.0,0.0,0.0,0.0,0.0,0.0,0.0,0.0,0.0,0.0,0.0,0.0,0.0,0.0,0.0,0.0,0.0,0.0,0.0,0.0,0.0,0.0,0.0,0.0,0.0,0.0,0.0,0.0,0.0,0.0,0.0,0.0,0.0,0.0,-1.564,0.0,0.0,0.0,0.0,0.0,0.0,0.0,0.0,0.0,0.0,0.0,0.0,0.0,0.0,0.0,0.0,0.0,0.0,0.0,0.0,0.0,0.0,0.0,0.0,0.0,0.0,0.0,0.0,0.0,0.0,0.0,0.0,0.0,0.0,0.0,0.0,0.0,0.0,0.0,0.0,0.0,-2.1779,-2.0782,-1.9709,-1.9687,-1.9708,-1.9708,-1.9708,-1.9697,-1.9708,-1.9696,0.0,0.0,0.0,0.0,0.0,0.0,0.0,0.0,0.0,0.0,0.0,0.0,0.0,0.0,0.0,0.0,0.0,0.0,0.0,0.0,0.0,0.0,0.0,0.0,0.0,0.0,0.0,0.0,0.0,0.0,0.0,0.0,0.0,0.0,0.0,0.0,0.0,0.0,0.0,0.0,0.0,0.0,0.0,0.0,0.0,0.0,0.0,0.0,0.0,0.0,0.0,0.0,0.0,0.0,0.0,0.0,0.0,0.0,0.0,0.0,0.0,-1.5551,0.0,0.0,0.0,0.0,0.0,0.0,0.0,0.0,0.0,0.0,0.0,0.0,0.0,0.0,0.0,0.0,0.0,0.0,0.0,0.0,0.0,0.0,0.0,0.0,0.0,0.0,0.0,0.0,0.0,0.0,0.0,0.0,0.0,0.0,0.0,0.0,0.0,0.0,0.0,0.0,-2.1902,-2.0774,-1.9709,-1.9687,-1.9708,-1.9708,-1.9708,-1.9701,-2.0247,-2.1492,-2.1571,0.0,0.0,0.0,0.0,0.0,0.0,0.0,0.0,0.0,0.0,0.0,0.0,0.0,0.0,0.0,0.0,0.0,0.0,0.0,0.0,0.0,0.0,0.0,0.0,0.0,0.0,0.0,0.0,0.0,0.0,0.0,0.0,0.0,0.0,0.0,0.0,0.0,0.0,0.0,0.0,0.0,0.0,0.0,0.0,0.0,0.0,0.0,0.0,0.0,0.0,0.0,0.0,0.0,0.0,-1.9708,-1.9745,-2.0171,-2.0383,-2.0137,-1.577,-1.543,-1.8247,0.0,0.0,0.0,0.0,0.0,0.0,0.0,0.0,0.0,0.0,0.0,0.0,0.0,0.0,0.0,0.0,0.0,0.0,0.0,0.0,0.0,0.0,0.0,0.0,0.0,-2.2299,-2.1619,0.0,0.0,0.0,0.0,0.0,0.0,0.0,0.0,0.0,0.0,0.0,0.0,-2.2183,-2.0772,-1.9694,-1.9697,-1.9705,-1.9692,-1.9692,-1.9706,-2.0821,-2.3425,-2.3592,-2.4535,0.0,0.0,0.0,0.0,0.0,0.0,0.0,0.0,0.0,0.0,0.0,0.0,0.0,0.0,0.0,0.0,0.0,0.0,0.0,0.0,0.0,0.0,0.0,0.0,0.0,0.0,0.0,0.0,0.0,0.0,0.0,0.0,-1.56,-1.6588,0.0,0.0,0.0,0.0,0.0,0.0,0.0,0.0,0.0,0.0,0.0,0.0,0.0,0.0,-1.7105,-1.7683,-1.8551,-1.9712,-1.9697,-1.9733,-1.9869,-2.2077,-2.3091,-2.3041,-2.235,0.0,-1.1669,-1.7716,0.0,0.0,0.0,0.0,0.0,0.0,0.0,0.0,0.0,0.0,0.0,0.0,0.0,0.0,0.0,0.0,0.0,0.0,0.0,0.0,0.0,0.0,-2.2297,-2.2295,-2.23,-2.2185,0.0,-2.3723,-2.5634,-2.6041,0.0,0.0,0.0,0.0,0.0,0.0,0.0,0.0,-2.2675,-2.0785,-1.9714,-1.9705,-1.9692,-1.9706,-1.9706,-1.9706,-2.0822,-2.3427,-2.3604,-2.4525,-2.6616,-2.7077,0.0,0.0,0.0,0.0,0.0,0.0,0.0,0.0,0.0,0.0,0.0,0.0,0.0,0.0,0.0,0.0,0.0,0.0,0.0,0.0,0.0,0.0,0.0,0.0,0.0,0.0,0.0,0.0,0.0,-1.6609,-1.7634,-1.8838,-1.8321,-1.8129,0.0,0.0,0.0,0.0,0.0,0.0,0.0,0.0,0.0,-1.6483,-1.6684,-1.7428,-1.8712,-1.879,-1.9847,-2.1858,-2.0434,-1.9777,-1.9876,-2.2234,-2.4229,-2.5848,-2.5858,-2.2702,-1.7705,-1.9113,-2.1922,-2.5264,0.0,0.0,0.0,0.0,0.0,-2.189,-2.1899,0.0,0.0,0.0,0.0,0.0,0.0,0.0,0.0,0.0,0.0,0.0,0.0,0.0,0.0,-2.2294,-2.3561,-2.4785,-2.4785,-2.5785,-2.6703,0.0,-2.5656,-2.4265,-2.259,0.0,0.0,0.0,0.0,0.0,-2.2562,-2.1628,-2.0797,-1.9797,-1.9692,-2.0296,-2.176,-2.1878,-2.2377,-2.3528,-2.3589,-2.4535,-2.6618,-2.6712,-2.7317,0.0,0.0,0.0,0.0,0.0,0.0,0.0,0.0,0.0,0.0,0.0,0.0,0.0,0.0,0.0,0.0,0.0,0.0,0.0,0.0,0.0,0.0,0.0,0.0,0.0,0.0,0.0,0.0,-1.7612,-1.8879,-2.0075,-1.9279,-1.916,0.0,0.0,0.0,0.0,0.0,0.0,-1.684,-1.7149,-1.7482,-1.7812,-1.7175,-1.7756,-1.967,-2.0351,-2.1639,-2.3434,-2.097,-1.9799,-1.9873,-2.2086,-2.437,-2.6578,-2.6589,-2.5457,-2.3447,-2.1501,-2.1445,-2.2874,-2.5544,-2.4169,-2.0689,-2.0691,-2.1934,-2.3603,-2.3599,-2.3596,-2.36,-2.3584,0.0,-2.9343,-2.9887,0.0,0.0,0.0,0.0,-2.0165,-2.0586,-2.1648,-2.2627,-2.2627,-2.4528,-2.6252,-2.5983,-2.6169,-2.6515,0.0,-2.6818,-2.5821,-2.3112,0.0,0.0,0.0,0.0,-2.4162,-2.3514,-2.2961,-2.2137,-2.0838,-2.0694,-2.1494,-2.3416,-2.36,-2.36,-2.3595,-2.4104,-2.5088,-2.6649,-2.6687,-2.7069,-2.7843,0.0,0.0,0.0,0.0,0.0,0.0,0.0,0.0,0.0,0.0,0.0,0.0,0.0,0.0,0.0,0.0,0.0,0.0,0.0,0.0,0.0,0.0,0.0,0.0,0.0,0.0,0.0,0.0,0.0,-1.8299,-1.9252,0.0,0.0,0.0,0.0,-2.0635,-1.9493,-1.9357,-2.0646,-1.9972,-2.0115,-2.1394,-2.0229,-1.9623,-1.9683,-2.2162,-2.331,-2.3089,-2.0872,-1.9798,-1.9875,-2.21,-2.3362,-2.379,-2.3787,-2.3716,-2.3598,-2.3474,-2.2025,-2.0152,-2.2775,-2.3646,-2.3394,-2.3392,-2.3487,-2.3599,-2.361,-2.3599,-2.3606,-2.3592,-2.3762,-2.4353,-2.6325,-2.6704,0.0,0.0,-2.6301,-2.5802,-2.3898,-2.3485,-2.3528,-2.3535,-2.4426,-2.4998,-2.3975,-2.4759,-2.6028,0.0,-2.7075,-2.6027,-2.3904,0.0,-2.6532,-2.6719,-2.6639,-2.653,-2.648,-2.4765,-2.3499,-2.3412,-2.339,-2.3462,-2.3589,-2.3601,-2.3601,-2.359,-2.5456,-2.6589,-2.6709,-2.6708,-2.8055,-3.0931,-3.111,0.0,0.0,0.0,0.0,0.0,0.0,0.0,0.0,0.0,0.0,0.0,0.0,0.0,0.0,0.0,0.0,0.0,0.0,0.0,0.0,0.0,0.0,0.0,0.0,0.0,0.0,0.0,0.0,-2.2145,-2.1782,0.0,0.0,-2.2619,-2.2164,-2.2596,-2.2183,-2.2137,-2.2658,-2.2183,-2.2129,-2.2586,-2.2154,-2.1897,-2.1892,-2.2805,-2.3225,-2.3096,-2.2308,-2.2936,-2.4858,-2.5626,-2.606,-2.6162,-2.6169,-2.6183,-2.6158,-2.6167,-2.4618,-2.2304,-2.3246,-2.36,-2.3595,-2.3598,-2.3599,-2.3591,-2.3603,-2.361,-2.3595,-2.3596,-2.3615,-2.3749,-2.4466,-2.471,-2.4699,-2.4703,-2.4697,-2.4937,-2.5915,-2.6172,-2.5741,-2.4008,-2.5077,-2.6419,-2.623,-2.6246,-2.6561,-2.7422,-2.744,-2.7549,-2.8343,-2.7749,-2.7106,-2.7022,-2.6435,-2.6228,-2.694,-2.6372,-2.5656,-2.4964,-2.4902,-2.4879,-2.4905,-2.409,-2.3599,-2.3604,-2.5552,-2.6708,-2.6691,-2.8561,-3.0099,-3.1173,-3.1193,-3.1197,0.0,0.0,0.0,0.0,0.0,0.0,0.0,0.0,0.0,0.0,0.0,0.0,0.0,0.0,0.0,0.0,0.0,0.0,0.0,0.0,0.0,0.0,0.0,0.0,0.0,0.0,-2.138,-2.3621,-2.3736,-2.4129,-2.5472,-2.4689,-2.435,-2.4911,-2.4938,-2.4933,-2.4937,-2.3769,-2.3095,-2.3106,-2.31,-2.3092,-2.3093,-2.3081,-2.3596,-2.4626,-2.4626,-2.5674,-2.7584,-2.761,-2.7616,-2.7594,-2.7604,-2.7599,-2.767,-2.8543,-2.7359,-2.494,-2.4949,-2.4951,-2.4938,-2.4938,-2.4938,-2.4952,-2.4945,-2.4939,-2.5088,-2.5968,-2.5676,-2.495,-2.4948,-2.4948,-2.4756,-2.3846,-2.4254,-2.5367,-2.7143,-2.7257,-2.66,-2.5273,-2.5834,-2.6819,-2.747,-2.6941,-2.6481,-2.7049,-2.7405,-2.7805,-2.8528,-2.7444,-2.6579,-2.6819,-2.5682,-2.5075,-2.5879,-2.6151,-2.5913,-2.5009,-2.547,-2.5833,-2.5828,-2.4476,-2.3807,-2.4247,-2.5143,-2.5965,-2.6674,-2.9595,-3.1198,-3.1212,-3.1283,-3.0282,-2.8188,0.0,0.0,0.0,0.0,0.0,0.0,0.0,0.0,0.0,0.0,0.0,0.0,0.0,0.0,0.0,0.0,0.0,0.0,0.0,0.0,0.0,0.0,0.0,-1.7712,-2.1211,-2.3426,-2.2384,-2.4878,-2.6455,-2.5836,-2.6103,-2.6673,-2.7511,-2.767,-2.7704,-2.7724,-2.4831,-2.3226,-2.3225,-2.3147,-2.314,-2.3213,-2.3139,-2.4574,-2.7462,-2.7641,-2.769,-2.7585,-2.761,-2.7605,-2.7583,-2.7583,-2.7642,-2.7929,-3.0443,-3.0024,-2.7725,-2.7716,-2.7668,-2.7585,-2.7585,-2.764,-2.7716,-2.7725,-2.7725,-2.8122,-3.0582,-2.9722,-2.7711,-2.7731,-2.7706,-2.7116,-2.4505,-2.5666,-2.7665,-2.7665,-2.6714,-2.605,-2.73,-2.6621,-2.6035,-2.7369,-2.6651,-2.5913,-2.6321,-2.7088,-2.6844,-2.4228,-2.4341,-2.5145,-2.6131,-2.4608,0.0,-2.369,-2.4177,-2.4292,-2.3718,-2.5288,-2.6339,-2.6263,-2.4709,-2.4272,-2.5506,-2.4328,-2.4508,-2.6588,-2.9494,-3.1016,-3.0838,-3.1165,-2.842,-2.2443,0.0,0.0,0.0,0.0,0.0,0.0,0.0,0.0,0.0,0.0,0.0,0.0,0.0,0.0,0.0,0.0,0.0,0.0,0.0,0.0,0.0,0.0,-2.0268,-2.0279,-2.2235,-2.4268,-2.5881,-2.7697,-2.9065,-2.9813,-2.8025,-2.6925,-2.713,-2.9192,-3.0449,-3.0436,-2.7344,-2.5576,-2.5557,-2.3972,-2.3897,-2.5543,-2.3932,-2.3525,-2.4406,-2.8477,-2.9434,-2.7608,-2.7583,-2.7609,-2.7596,-2.7596,-2.8682,-3.0483,-3.1192,-3.1091,-3.0443,-3.0422,-2.9271,-2.76,-2.76,-2.8798,-3.0413,-3.0437,-3.0422,-3.0228,-2.9049,-2.9467,-3.0426,-3.0424,-2.978,-2.8905,-2.8162,-2.847,-2.9048,-2.9048,-2.877,-2.833,-2.7731,-2.7316,-2.743,-2.8756,-2.95,-2.9637,-2.8854,-2.9124,-2.9041,-2.7607,-2.7411,-2.7551,-2.7836,-2.7391,0.0,-2.6554,-2.6626,-2.63,-2.5176,-2.6789,-2.7255,-2.5506,-2.6069,-2.6126,-2.5233,-2.4186,-2.4284,-2.5858,-2.7642,-2.6782,-2.2944,-2.6264,-2.7195,0.0,0.0,0.0,0.0,0.0,0.0,0.0,0.0,0.0,0.0,0.0,0.0,0.0,0.0,0.0,0.0,0.0,0.0,0.0,0.0,0.0,0.0,-2.2182,-2.2887,-2.3803,-2.4717,-2.6269,-2.8915,-3.0424,-3.1309,-3.1471,-2.9901,-2.8284,-2.6906,-2.8412,-2.9396,-2.9405,-2.7551,-2.6072,-2.5114,-2.4726,-2.5176,-2.6485,-2.5186,-2.5239,-2.665,-2.9937,-3.0411,-2.8451,-2.8983,-2.8652,0.0,-2.875,-3.0082,-3.1498,-3.1516,-3.1496,0.0,0.0,0.0,0.0,0.0,-3.0205,-3.1496,-3.1496,-3.1503,-3.1247,-2.972,-3.0273,-3.1505,-3.1503,-3.099,-3.0399,-3.0399,-3.0399,-3.027,-2.9739,-2.9604,-2.9248,-2.7917,-2.8431,-2.9434,-3.0229,-3.0688,-3.0688,-2.9766,0.0,0.0,-2.8976,-2.8143,-2.745,-2.7087,-2.6696,-2.6328,-2.5983,-2.5918,-2.5638,-2.4861,-2.5799,-2.6615,-2.6883,-2.7331,0.0,0.0,0.0,-2.4317,-2.957,-3.0527,0.0,0.0,0.0,-3.0433,-3.0456,0.0,0.0,0.0,-3.1724,-3.1645,0.0,0.0,0.0,0.0,0.0,0.0,0.0,0.0,0.0,0.0,0.0,0.0,0.0,0.0,0.0,0.0,-2.4617,-2.5601,-2.7608,-2.7881,-2.8696,-3.1027,-3.2147,-3.2402,-3.156,-3.1142,-2.9692,-2.6709,-2.6499,-2.6499,-2.6499,0.0,0.0,0.0,0.0,-2.6489,-2.6505,-2.651,-2.798,-3.0939,-3.1336,-3.0895,-2.9857,-3.0976,-3.0223,-2.8165,-3.0496,-3.1515,-3.1497,-3.1497,-3.1512,-3.1511,-3.1493,-3.15,-3.1503,-3.1503,-3.1501,0.0,0.0,0.0,0.0,-3.1865,-3.1762,-3.1509,-3.1619,-3.1594,-3.15,-3.15,-3.15,-3.1223,-3.0105,-2.9803,-2.9509,-2.8322,-2.9818,-3.1498,-3.1491,-3.0873,-3.025,-2.9861,-2.9804,-2.9687,-2.9268,-2.775,-2.6281,-2.5407,-2.4582,-2.4045,-2.4056,-2.406,-2.406,-2.4049,0.0,0.0,-2.8233,-2.8213,-2.7987,-2.782,-2.3455,-2.5175,-3.4738,-3.5441,-3.5612,-3.5593,-3.5775,-3.5863,-3.5852,-3.5673,-3.5601,-3.5658,-3.8342,-3.8158,0.0,0.0,0.0,0.0,0.0,0.0,0.0,0.0,0.0,0.0,0.0,0.0,0.0,0.0,0.0,-2.6816,-2.7939,-2.887,-2.9665,-2.9551,-2.9563,-3.0086,-2.8786,-2.8798,-3.1254,-2.9051,-2.7219,-2.6568,-2.6499,-2.6499,-2.6499,-2.6519,0.0,-2.585,-2.6278,-2.6497,-2.6515,-2.6491,-2.6839,-2.7508,0.0,0.0,-3.1126,-3.1397,-3.122,-3.0759,-3.1286,-3.1483,-3.1501,-3.1501,-3.1515,-3.1497,-3.1497,-3.1491,-3.1507,-3.1507,-3.1498,-3.1501,-3.1501,-3.1515,-3.1869,-3.4031,-3.3261,-3.1633,-3.2331,-3.2059,0.0,-3.1489,-3.1489,-3.1444,-3.1195,-3.1138,-3.1066,-3.0815,-3.1138,-3.1492,-3.1489,-3.1386,-3.1239,-3.1137,-3.1122,-3.1089,-3.1028,-2.9564,-2.8091,-2.7225,-2.6933,-2.6821,-2.6842,-2.6832,-2.6821,-2.6831,-2.6822,-2.5411,-2.1904,-2.7229,-3.0293,-2.9274,-2.8572,-2.9409,-3.2178,-3.4418,-3.5597,-3.5594,-3.682,-3.745,-3.7456,-3.6203,-3.5593,-3.5602,-3.6196,-3.6168,0.0,0.0,0.0,0.0,0.0,0.0,0.0,0.0,0.0,0.0,0.0,-2.1171,0.0,0.0,-2.6848,-2.8684,-3.0086,-3.095,-3.101,-3.0312,-2.9805,-2.9806,-2.8826,-2.8821,-3.0478,-2.8144,-2.6483,-2.6517,-2.6483,-2.6499,-2.6499,-2.6506,-2.6501,-2.6482,-2.6518,-2.6511,-2.6496,-2.6485,-2.7354,-2.9027,-3.0707,-3.15,-3.1511,-3.1515,-3.1501,-3.15,-3.15,-3.1501,-3.1601,-3.2946,-3.3502,-3.35,-3.3502,-3.2676,-3.1486,-3.1486,-3.1514,-3.1675,-3.3036,-3.3517,-3.3728,-3.5065,-3.4577,-3.3471,-3.3216,-3.2691,-3.2244,-3.2736,-3.2841,-3.2632,-3.1753,-3.1827,-3.2378,-3.3276,-3.3185,-3.2736,-3.2257,-3.2063,-3.1899,-3.157,-3.1511,-3.1508,-3.1501,-3.0776,-3.005,-2.9621,-2.8447,-2.7583,-2.7594,-2.7591,-2.7586,-2.7604,-2.7587,-2.6533,-2.3881,-2.8471,-3.1231,-3.0606,-3.0141,-3.0385,-3.1449,-3.2828,-3.4202,-3.5625,-3.6415,-3.704,-3.7496,-3.6998,-3.6359,-3.5602,-3.5594,-3.5605,0.0,0.0,0.0,0.0,0.0,0.0,0.0,0.0,-1.8852,-2.007,-2.1159,-2.2618,-2.4984,-2.6692,-2.838,-3.0352,-3.1642,-3.2169,-3.1686,-3.0775,-3.0095,-2.9907,-3.016,-3.0181,-2.9848,-2.8178,-2.6981,-2.6519,-2.6514,-2.6499,-2.6499,-2.648,-2.6504,-2.6484,-2.6909,-2.7144,-2.7137,-2.7141,-2.8605,-3.1494,-3.1496,-3.1516,-3.1498,-3.1485,-3.1515,-3.1545,-3.2064,-3.227,-3.2442,-3.4604,-3.5507,-3.5507,-3.5507,-3.4177,-3.2289,-3.2279,-3.2279,-3.2592,-3.4743,-3.5508,-3.5477,-3.5186,-3.5278,-3.5277,-3.4044,-3.3408,-3.3198,-3.3878,-3.4151,-3.3848,-3.2311,-3.2611,-3.3636,-3.4836,-3.4637,-3.3954,-3.3126,-3.2811,-3.2512,-3.1989,-3.181,-3.1706,-3.1513,-3.1498,-3.1506,-3.1506,-2.9702,-2.8358,-2.8353,-2.8349,-2.816,-2.7659,-2.8066,-2.8346,-2.8358,-3.0283,-3.1488,-3.1505,-3.0543,-3.0416,-3.1469,-3.1674,-3.2739,-3.483,-3.5704,-3.6511,-3.7266,-3.798,-3.7555,-3.6053,-3.5728,-3.5611,-1.2189,-1.3749,-1.4832,-1.4365,-1.6013,-1.8398,0.0,0.0,-2.309,-2.5278,-2.63,-2.7335,-2.9114,-3.0587,-3.1761,-3.2622,-3.2665,-3.2263,-3.1378,-3.1386,-3.1176,-3.0344,-3.1466,-3.1619,-2.9961,-2.9574,-2.8605,-2.6641,-2.6514,-2.6499,-2.6499,-2.6497,-2.6494,-2.6496,-2.8433,-2.9421,-2.9434,-2.9417,-3.0122,-3.1507,-3.1521,-3.1486,-3.1516,-3.1512,-3.1497,-3.1619,-3.4027,-3.5042,-3.5071,-3.5396,-3.5512,-3.5512,-3.5512,-3.531,-3.5053,-3.5062,-3.5063,-3.5102,-3.541,-3.5495,-3.5282,-3.4112,-3.4524,-3.5349,-3.4613,-3.4237,-3.3999,-3.3651,-3.3878,-3.4075,-3.3424,-3.4227,-3.4942,-3.3953,-3.3953,-3.406,-3.3531,-3.3395,-3.3365,-3.329,-3.2929,-3.2421,-3.1619,-3.1501,-3.1485,-3.1503,-3.1233,-3.1064,-3.1055,-3.1048,-3.0177,-2.7844,-2.969,-3.1058,-3.1069,-3.1338,-3.1507,-3.1508,-3.136,-3.1359,-3.1507,-3.2302,-3.2509,-3.1972,-3.5704,-3.7715,-3.7814,-3.9176,-3.9102,-3.7591,-3.6241,-3.5615,-1.2655,-1.3861,0.0,0.0,-1.8951,-2.0702,-2.3185,-2.418,-2.4922,-2.6276,-2.7263,-2.8386,-2.9964,-3.0548,-3.1016,0.0,-3.1439,-3.0846,-3.0457,-3.0636,-3.077,-3.0644,-3.1003,-3.1002,-3.0325,-2.9989,-2.9418,-2.8494,-2.723,-2.6489,-2.6487,-2.6485,-2.7083,-2.8359,-2.9309,-3.0856,-3.3087,-3.3121,-3.2558,-3.1518,-3.3069,-3.3834,-3.3774,-3.2208,-3.237,-3.3875,-3.502,-3.5518,-3.5486,-3.5492,-3.5504,-3.5504,-3.5504,-3.5504,-3.5507,-3.5507,-3.5508,-3.5518,-3.5518,-3.552,-3.5413,-3.4845,-3.504,-3.5453,-3.5167,-3.503,-3.4911,-3.4728,-3.482,-3.4911,-3.4728,-3.5065,-3.5358,-3.4805,-3.482,-3.4761,-3.4052,-3.3901,-3.3918,-3.3923,-3.3545,-3.2987,-3.236,-3.1823,-3.1483,-3.1501,-3.1482,-3.1515,-3.1507,-3.148,-3.1076,-2.9988,-3.0842,-3.1509,-3.1501,-3.1493,-3.1512,-3.1501,-3.1501,-3.1516,-3.1485,-3.1868,-3.2287,-3.2707,-3.5325,-3.7511,-3.9174,-3.9808,-3.9761,-3.9102,-3.673,-3.5917,-1.3349,0.0,0.0,-1.9901,-2.1777,-2.328,-2.5086,-2.6025,-2.6678,-2.7304,-2.8021,-2.8971,-3.0375,-3.0399,0.0,-3.1426,-3.102,-3.0519,-3.0326,-3.049,-3.0724,-3.0881,-3.0412,-3.0268,-3.0804,-3.0214,-2.9821,-2.981,-2.8339,-2.7151,-2.6541,-2.7063,-2.8122,-2.9756,-3.0833,-3.2182,-3.3914,-3.495,-3.4535,-3.2624,-3.4563,-3.5507,-3.5431,-3.3512,-3.3657,-3.5478,-3.5512,-3.5504,-3.5504,-3.5504,-3.5504,-3.5504,-3.5504,-3.5504,-3.5504,-3.5504,-3.5504,-3.5504,-3.5504,-3.5499,-3.5508,-3.5494,-3.5484,-3.5508,-3.5509,-3.5504,-3.5504,-3.5504,-3.5504,-3.5504,-3.5504,-3.5504,-3.5504,-3.5504,-3.5504,-3.5307,-3.4692,-3.4573,-3.4577,-3.457,-3.4281,-3.3932,-3.3617,-3.3013,-3.2592,-3.2611,-3.2617,-3.233,-3.1588,-3.1504,-3.1494,-3.1494,-3.1493,-3.1499,-3.1499,-3.1515,-3.1516,-3.1499,-3.2184,-3.2273,-3.1527,-3.1507,-3.273,-3.5343,-3.6434,-3.8027,-4.0103,-4.0097,-3.9664,-3.8834,-3.7479,-3.7013,0.0,0.0,-2.0107,-2.1272,-2.3988,-2.649,-2.7067,-2.8047,-2.895,-2.9578,-2.9716,-3.0024,-3.1005,-3.1167,-3.1462,-3.2393,-3.2522,-3.2294,-3.1646,-3.1675,-3.1528,-3.096,-3.0084,-3.0049,0.0,-3.0458,-2.9794,-2.9807,-2.9753,-2.8768,-2.6604,-2.8509,-2.9743,-2.9794,-3.3373,-3.3587,-3.0002,-3.3656,-3.5469,-3.5379,-3.5463,-3.5501,-3.5501,-3.5424,-3.5416,-3.5489,-3.5504,-3.5504,-3.5504,-3.5504,-3.5504,-3.5504,-3.5504,-3.5504,-3.5504,-3.5504,-3.5504,-3.5504,-3.5504,-3.5504,-3.5489,-3.5504,-3.5504,-3.5489,-3.5504,-3.5504,-3.5504,-3.5504,-3.5504,-3.5504,-3.5504,-3.5504,-3.5504,-3.5504,-3.5504,-3.5489,-3.5474,-3.5474,-3.5474,-3.5459,-3.5444,-3.5437,-3.5406,-3.5408,-3.538,-3.537,-3.537,-3.4425,-3.1812,-3.1514,-3.1496,-3.1496,-3.1501,-3.1516,-3.1516,-3.1496,-3.1505,-3.1505,-3.3935,-3.4208,-3.1629,-3.1512,-3.4153,-3.9792,-3.9952,-4.0014,-4.0107,-4.0111,-3.8596,-3.5804,-3.8633,-3.9214,0.0,0.0,-2.211,-2.432,-2.6211,-2.7795,-2.8737,-2.9239,-2.9453,-2.9252,-2.8945,-2.8585,-2.8164,-2.839,-2.8828,-2.9294,-3.0355,-3.1069,-3.076,-3.1539,-3.1345,-2.9282,-3.009,0.0,0.0,0.0,0.0,-3.0758,-2.8865,-2.7934,-2.8662,-2.9403,-3.0973,-3.3502,-3.3186,-3.3178,-3.3596,-3.3579,-3.4228,-3.5504,-3.5497,-3.5484,-3.5484,-3.5484,-3.5512,-3.5504,-3.5504,-3.5504,-3.5504,-3.5504,-3.5504,-3.5504,-3.5504,-3.5504,-3.5504,-3.5504,-3.5504,-3.5504,-3.5504,-3.5504,-3.5504,-3.5504,-3.5504,-3.5504,-3.5504,-3.5504,-3.5504,-3.5504,-3.5504,-3.5504,-3.5504,-3.5504,-3.5504,-3.5504,-3.5504,-3.5504,-3.5504,-3.5504,-3.5504,-3.5504,-3.5504,-3.5507,-3.5499,-3.5484,-3.5486,-3.5492,-3.5505,-3.4531,-3.1837,-3.1497,-3.1499,-3.1499,-3.1482,-3.2225,-3.4001,-3.4136,-3.4137,-3.4152,-3.4997,-3.5994,-3.716,-3.7209,-3.8124,-4.0051,-4.0112,-4.0086,-4.0086,-4.011,-3.9587,-3.8613,-3.9644,-3.9831,0.0,-2.2384,-2.3953,-2.6674,-2.8034,-2.89,-2.9628,-2.9628,-2.9315,-2.8712,-2.8056,-2.7297,-2.6354,-2.6532,-2.7072,-2.7835,-2.916,-3.0599,-3.1987,-3.2611,-3.2064,-2.9605,-3.0093,0.0,0.0,0.0,0.0,-2.9627,-2.8463,-2.8306,-2.9732,-3.1092,-3.2546,-3.408,-3.3431,-3.3642,-3.4816,-3.4037,-3.427,-3.5504,-3.5504,-3.5504,-3.5504,-3.5504,-3.5504,-3.5504,-3.5504,-3.5504,-3.5504,-3.5504,-3.5504,-3.5504,-3.5504,-3.5504,-3.5504,-3.5504,-3.5504,-3.5504,-3.5504,-3.5504,-3.5504,-3.5504,-3.5504,-3.5504,-3.5504,-3.5504,-3.5504,-3.5504,-3.5504,-3.5504,-3.5504,-3.5504,-3.5504,-3.5504,-3.5504,-3.5504,-3.5504,-3.5504,-3.5504,-3.5504,-3.5504,-3.5504,-3.5504,-3.5504,-3.5504,-3.5504,-3.5493,-3.4876,-3.3131,-3.2909,-3.2911,-3.2911,-3.2939,-3.3616,-3.5354,-3.5492,-3.5508,-3.5505,-3.6528,-3.8026,-4.0012,-4.0093,-4.0093,-4.0093,-4.0112,-4.0096,-4.0096,-4.0094,-4.0094,-4.0096,-4.0119,-4.0094,-2.2067,-2.4201,-2.5703,-2.8288,-2.939,-2.9779,-2.9754,-2.9264,-2.8599,-2.8021,-2.6977,-2.6005,0.0,0.0,-2.6188,-2.7912,-2.8972,-3.0907,-3.4705,-3.4663,-3.3619,0.0,0.0,0.0,0.0,0.0,0.0,-2.6841,0.0,-2.9878,-3.0072,-3.3424,-3.4261,-3.1978,-3.4171,-3.4865,-3.369,-3.4894,-3.5504,-3.5504,-3.5504,-3.5504,-3.5504,-3.5504,-3.5504,-3.5504,-3.5504,-3.5504,-3.5504,-3.5504,-3.5504,-3.5504,-3.5504,-3.5504,-3.5504,-3.5504,-3.5504,-3.5504,-3.5504,-3.5504,-3.5504,-3.5504,-3.5504,-3.5504,-3.5504,-3.5504,-3.5504,-3.5504,-3.5504,-3.5504,-3.5504,-3.5504,-3.5504,-3.5504,-3.5504,-3.5504,-3.5504,-3.5504,-3.5504,-3.5504,-3.5504,-3.5504,-3.5504,-3.5504,-3.5504,-3.5504,-3.5504,-3.5497,-3.5513,-3.5506,-3.5508,-3.5508,-3.5505,-3.5484,-3.5485,-3.5507,-3.5569,-3.5737,-3.8489,-4.0103,-4.0113,-4.0094,-4.0096,-4.0096,-4.0096,-4.0096,-4.0096,-4.0096,-4.0096,-4.0096,-4.0096,-4.0096,-2.4691,-2.6648,-2.8138,-2.9289,-2.9679,-2.9679,-2.9252,-2.8072,-2.6703,-2.5322,-2.3569,-2.1805,0.0,0.0,0.0,-2.4904,-2.7611,0.0,-3.1353,-3.3632,0.0,0.0,0.0,-3.2777,-3.006,-2.9788,0.0,0.0,-2.9484,-3.1031,-3.3904,-3.3172,-3.3225,-3.4487,-3.4421,-3.4578,-3.5008,-3.5344,-3.5504,-3.5504,-3.5504,-3.5504,-3.5504,-3.5504,-3.5504,-3.5504,-3.5504,-3.5504,-3.5504,-3.5504,-3.5504,-3.5504,-3.5504,-3.5504,-3.5504,-3.5504,-3.5504,-3.5504,-3.5504,-3.5504,-3.5504,-3.5504,-3.5504,-3.5504,-3.5504,-3.5504,-3.5504,-3.5504,-3.5504,-3.5504,-3.5504,-3.5504,-3.5504,-3.5504,-3.5504,-3.5504,-3.5504,-3.5504,-3.5504,-3.5504,-3.5504,-3.5504,-3.5504,-3.5504,-3.5504,-3.5504,-3.5504,-3.5507,-3.5497,-3.5501,-3.5488,-3.5488,-3.5516,-3.5508,-3.5507,-3.5508,-3.6468,-3.8783,-3.9682,-4.0114,-4.0112,-4.0088,-4.0096,-4.0096,-4.0096,-4.0096,-4.0096,-4.0096,-4.0096,-4.0096,-4.0096,-4.0096,-2.6795,-2.8325,-2.939,-2.9716,-2.9792,-2.9453,-2.8147,-2.6753,-2.5134,-2.2975,-2.1023,0.0,0.0,0.0,0.0,0.0,0.0,0.0,-3.2153,-3.3512,-3.4528,0.0,-3.4764,0.0,-3.0077,-2.9796,-3.0496,0.0,-3.2286,-3.2861,-3.4161,-3.3665,-3.3811,-3.4816,-3.4723,-3.4953,-3.5504,-3.5504,-3.5504,-3.5504,-3.5504,-3.5504,-3.5504,-3.5504,-3.5504,-3.5504,0.0,-3.5504,-3.5504,-3.5504,-3.5504,-3.5504,-3.5504,-3.5504,-3.5504,-3.5504,-3.5504,-3.5504,-3.5504,-3.5504,-3.5504,-3.5504,-3.5504,-3.5504,-3.5504,-3.5504,-3.5504,-3.5504,-3.5504,-3.5504,-3.5504,-3.5504,-3.5504,-3.5504,-3.5504,-3.5504,-3.5504,-3.5504,-3.5504,-3.5504,-3.5504,-3.5504,-3.5504,-3.5504,-3.5504,-3.5504,-3.5504,-3.5504,-3.5504,-3.5504,-3.5512,-3.5495,-3.5497,-3.5489,-3.5504,-3.6747,-3.8266,-3.9989,-4.0091,-4.0092,-4.0087,-4.0096,-4.0096,-4.0096,-4.0096,-4.0096,-4.0096,-4.0096,-4.0096,-4.0096,-4.0096,-4.0096,-2.8461,-2.9415,-2.9792,-2.9792,-2.9729,-2.9076,-2.6801,-2.5272,-2.3577,-2.0729,0.0,-1.7827,-1.8356,0.0,-2.2348,-2.4948,0.0,-2.9205,-3.4253,-3.3818,-3.3522,-3.4942,-3.3426,-3.1705,-3.0361,-2.9986,-3.1291,-3.4855,-3.5212,-3.459,-3.3093,-3.4453,-3.4962,-3.4225,-3.5052,-3.5502,-3.5496,-3.5502,-3.5502,-3.5496,-3.5502,-3.5504,-3.5504,-3.5504,-3.5504,-3.5504,0.0,0.0,-3.5496,-3.5502,-3.5502,-3.5496,-3.5502,-3.5504,-3.5504,-3.5504,-3.5504,-3.5504,-3.5504,-3.5504,-3.5504,-3.5504,-3.5504,-3.5504,-3.5504,-3.5504,-3.5504,-3.5504,-3.5504,-3.5504,-3.5504,-3.5504,-3.5504,-3.5504,-3.5504,-3.5504,-3.5504,-3.5504,-3.5504,-3.5504,-3.5504,-3.5504,-3.5504,-3.5504,-3.5504,-3.5504,-3.5504,-3.5504,-3.5504,-3.5509,-3.5493,-3.5492,-3.5876,-3.61,-3.6111,-3.8569,-4.0086,-4.0101,-4.012,-4.0096,-4.0096,-4.0096,-4.0096,-4.0096,-4.0096,-4.0096,-4.0096,-4.0096,-4.0096,-4.0096,-4.0096,-4.0096,-2.9352,-2.9716,-2.9792,-2.9792,-2.9428,-2.8349,-2.5711,-2.3527,0.0,0.0,0.0,-1.4979,-1.5512,-1.7122,0.0,-2.2133,0.0,0.0,0.0,0.0,-3.4541,0.0,0.0,0.0,0.0,0.0,0.0,0.0,0.0,0.0,-3.4965,-3.4529,-3.4563,-3.5213,-3.5392,-3.5487,-3.5505,-3.5502,-3.5502,-3.5505,-3.5487,-3.5504,-3.5504,-3.5504,-3.5504,-3.5504,0.0,0.0,-3.5491,-3.5505,-3.5499,-3.551,-3.549,-3.5504,-3.5504,-3.5504,-3.5504,-3.5504,-3.5504,-3.5504,-3.5504,-3.5504,-3.5504,-3.5504,-3.5504,-3.5504,-3.5504,-3.5504,-3.5504,-3.5504,-3.5504,-3.5504,-3.5504,-3.5504,-3.5504,-3.5504,-3.5504,-3.5504,-3.5504,-3.5504,-3.5504,-3.5504,-3.5504,-3.5504,-3.5504,-3.5504,-3.5504,-3.5504,-3.5504,-3.5483,-3.5507,-3.5508,-3.7777,-3.9304,-3.9287,-3.9791,-4.0097,-4.0095,-4.0096,-4.0096,-4.0096,-4.0096,-4.0096,-4.0096,-4.0096,-4.0096,-4.0096,-4.0096,-4.0096,-4.0096,-4.0096,-4.0096,-2.9706,-2.9796,-2.9792,-2.9792,-2.9302,-2.7873,-2.4311,0.0,0.0,0.0,0.0,-1.3934,-1.4968,0.0,0.0,0.0,0.0,0.0,0.0,0.0,0.0,0.0,0.0,0.0,0.0,0.0,0.0,0.0,0.0,0.0,-3.5485,-3.4559,-3.4461,-3.5472,-3.4848,-3.4845,-3.5487,-3.5518,-3.5518,-3.5487,-3.5499,-3.5504,-3.5504,-3.5504,-3.5504,-3.5504,-3.5504,0.0,-3.5333,-3.3358,-3.3704,-3.5489,-3.5496,-3.5504,-3.5504,-3.5504,-3.5504,-3.5504,-3.5504,-3.5504,-3.5504,-3.5504,-3.5504,-3.5504,-3.5504,-3.5504,-3.5504,-3.5504,-3.5504,-3.5504,-3.5504,-3.5504,-3.5504,-3.5504,-3.5504,-3.5504,-3.5504,-3.5504,-3.5504,-3.5504,-3.5504,-3.5504,-3.5504,-3.5504,-3.5504,-3.5504,-3.5953,-3.6101,-3.5561,-3.5503,-3.6122,-3.7712,-3.9222,-4.0095,-4.0089,-4.0107,-4.0094,-4.0087,-4.0096,-4.0096,-4.0096,-4.0096,-4.0096,-4.0096,-4.0096,-4.0096,-4.0096,-4.0096,-4.0096,-4.0096,-4.0096,-3.9252,-2.9525,-2.9783,-2.9792,-2.9792,-2.9201,-2.7424,-2.3108,-2.128,0.0,0.0,-1.3534,-1.3652,-1.5178,0.0,0.0,0.0,0.0,0.0,0.0,0.0,0.0,0.0,0.0,0.0,0.0,0.0,0.0,0.0,0.0,0.0,-3.5195,-3.4645,-3.4563,-3.5088,-3.4399,-3.4504,-3.5477,-3.5512,-3.5512,-3.5512,-3.5515,-3.5496,-3.5504,-3.5504,-3.5504,-3.5504,-3.5504,0.0,0.0,-3.2252,-3.2796,-3.5508,-3.5517,-3.5504,-3.5504,-3.5504,-3.5504,-3.5504,-3.5504,-3.5504,-3.5504,-3.5504,-3.5504,-3.5504,-3.5504,-3.5504,-3.5504,-3.5504,-3.5504,-3.5504,-3.5504,-3.5504,-3.5504,-3.5504,-3.5504,-3.5504,-3.5504,-3.5504,-3.5504,-3.5504,-3.5504,-3.5504,-3.5504,-3.5504,-3.5504,-3.5504,-3.6349,-3.6769,-3.6061,-3.627,-3.7426,-3.9834,-4.0106,-4.0096,-4.0104,-4.0096,-4.0096,-4.0096,-4.0096,-4.0096,-4.0096,-4.0096,-4.0096,-4.0096,-4.0096,-4.0096,-4.0096,-3.9446,-3.9303,-3.9614,-3.932,-3.8059,-2.8672,-2.9793,-2.9792,-2.9792,-2.8976,-2.7017,-2.2573,0.0,0.0,-1.4206,-1.3235,-1.3717,-1.5361,-1.5101,0.0,0.0,0.0,0.0,0.0,0.0,0.0,0.0,0.0,0.0,0.0,0.0,0.0,0.0,0.0,0.0,0.0,-3.4913,-3.485,-3.382,-3.4772,-3.5382,-3.5502,-3.5502,-3.5502,-3.5502,-3.5492,-3.5511,-3.5504,-3.5504,-3.5504,-3.5504,0.0,0.0,0.0,-3.5133,-3.517,-3.5501,-3.5505,-3.5504,-3.5504,-3.5504,-3.5504,-3.5504,-3.5504,-3.5504,-3.5504,-3.5504,-3.5504,-3.5504,-3.5504,-3.5504,-3.5504,-3.5504,-3.5504,-3.5504,-3.5504,-3.5504,-3.5504,-3.5504,-3.5504,-3.5504,-3.5504,-3.5504,-3.5504,-3.5504,-3.5504,-3.5504,-3.5504,-3.5504,-3.5504,-3.5504,-3.6349,-3.7141,-3.7544,-3.8812,-3.9785,-4.0061,-4.0107,-4.0096,-4.0113,-4.0096,-4.0096,-4.0096,-4.0096,-4.0096,-4.0096,-4.0096,-4.0096,-4.0096,-4.0096,-4.0096,-4.0096,-3.7361,-3.6729,-3.806,-3.6795,-3.6729,-2.8239,-2.9138,-2.9792,-2.9792,-2.8126,-2.5595,-2.2251,0.0,0.0,-1.3974,-1.3198,-1.3546,-1.4639,-1.4184,-1.4642,0.0,0.0,0.0,0.0,0.0,0.0,0.0,0.0,0.0,0.0,0.0,0.0,0.0,0.0,0.0,0.0,-3.3916,-3.393,-3.3031,-3.2386,-3.2088,-3.2086,-3.2073,-3.2083,-3.2097,-3.439,-3.5488,-3.5504,-3.5504,-3.5504,-3.5504,0.0,0.0,0.0,-3.5502,-3.551,-3.5492,-3.5487,-3.5504,-3.5504,-3.5504,-3.5504,-3.5504,-3.5504,-3.5504,-3.5504,-3.5504,-3.5504,-3.5504,-3.5504,-3.5504,-3.5504,-3.5504,-3.5504,-3.5504,-3.5504,-3.5504,-3.5504,-3.5504,-3.5504,-3.5504,-3.5504,-3.5504,-3.5504,-3.5504,-3.5504,-3.5504,-3.5504,-3.5504,-3.5636,-3.6086,-3.6921,-3.7685,-3.8209,-3.934,-4.0092,-4.0092,-4.0087,-4.0096,-4.0096,-4.0096,-4.0096,-4.0096,-4.0096,-4.0096,-4.0096,-4.0096,-4.0096,-4.0096,-4.0096,-4.0096,-4.0096,-3.7965,-3.6774,-3.6499,-3.5952,-3.5964,-2.8093,-2.852,-2.8925,-2.9389,-2.7318,-2.4525,0.0,0.0,-1.6839,-1.3811,-1.3198,-1.3458,-1.4322,-1.4053,-1.4538,0.0,0.0,0.0,0.0,0.0,0.0,0.0,0.0,0.0,0.0,0.0,0.0,0.0,0.0,0.0,0.0,-3.3058,-3.2813,-3.1804,-3.0492,-2.9804,-2.979,-2.979,-2.9803,-2.986,-3.3659,-3.5488,-3.5504,-3.5504,-3.5514,-3.5517,0.0,0.0,0.0,-3.4287,-3.4489,-3.5492,-3.5487,-3.5504,-3.5504,-3.5504,-3.5504,-3.5504,-3.5504,-3.5504,-3.5504,-3.5504,-3.5504,-3.5504,-3.5504,-3.5504,-3.5504,-3.5504,-3.5504,-3.5504,-3.5504,-3.5504,-3.5554,-3.5782,-3.5846,-3.5894,-3.6148,-3.6164,-3.6116,-3.5863,-3.5846,-3.575,-3.5537,-3.5668,-3.6006,-3.6523,-3.7469,-3.8225,-3.8548,-3.9484,-4.0096,-4.0096,-4.0096,-4.0096,-4.0096,-4.0096,-4.0096,-4.0096,-4.0096,-4.0096,-4.0096,-4.0096,-4.0096,-4.0096,-4.0096,-3.9935,-3.9665,-3.8258,-3.7032,-3.5938,-3.5503,-3.5398,-2.8287,-2.8195,-2.6889,-2.8363,-2.6724,-2.4104,0.0,0.0,-1.5886,-1.3649,-1.3198,-1.3554,-1.4683,-1.489,-1.54,-1.7046,0.0,0.0,0.0,0.0,0.0,0.0,0.0,0.0,0.0,0.0,0.0,0.0,0.0,0.0,0.0,-3.2618,-3.1765,-2.9896,-2.9812,-2.9789,-2.9812,-2.9812,-2.9812,-2.986,-3.3659,-3.5488,-3.5504,-3.5504,-3.5495,0.0,0.0,0.0,0.0,-3.142,-3.2086,-3.5492,-3.5487,-3.5504,-3.5504,-3.5504,-3.5504,-3.5504,-3.5504,-3.5504,-3.5504,-3.5504,-3.5504,-3.5504,-3.5504,-3.5504,-3.5504,-3.5504,-3.5504,-3.5504,-3.5504,-3.5504,-3.5668,-3.6415,-3.6584,-3.6828,-3.7602,-3.7793,-3.7544,-3.6722,-3.6584,-3.6368,-3.5619,-3.6117,-3.6569,-3.6615,-3.7901,-3.8831,-3.8629,-3.9484,-4.0096,-4.0096,-4.0096,-4.0096,-4.0096,-4.0096,-4.0096,-4.0096,-4.0096,-4.0096,-4.0096,-4.0096,-4.0096,-4.0096,-4.0096,-3.9606,-3.8603,-3.7619,-3.7003,-3.6749,-3.5283,-3.4987,-2.1628,-2.2483,-2.276,-2.3566,-2.2305,-2.0412,-1.8818,0.0,-1.4977,-1.3516,-1.3198,-1.3554,-1.4695,-1.4601,-1.4987,-1.698,-1.7312,0.0,0.0,0.0,0.0,0.0,0.0,0.0,0.0,0.0,0.0,0.0,0.0,0.0,0.0,-3.2962,-3.2332,-3.1728,-3.2996,-3.3695,-3.3697,-3.1122,-3.1106,-3.3707,-3.4898,-3.5482,-3.5484,-3.5484,0.0,0.0,0.0,0.0,0.0,-3.0298,-3.2062,-3.5482,-3.5522,-3.5504,-3.5504,-3.5504,-3.5504,-3.5504,-3.5504,-3.5504,-3.5504,-3.5504,-3.5504,-3.5504,-3.5504,-3.5504,-3.5504,-3.5504,-3.5504,-3.5619,-3.6117,-3.6244,-3.6461,-3.7219,-3.7427,-3.7485,-3.7748,-3.7793,-3.7573,-3.6768,-3.6615,-3.6523,-3.6275,-3.6446,-3.6948,-3.8015,-3.8591,-3.9069,-3.9569,-3.9893,-4.0096,-4.0096,-4.0096,-4.0096,-4.0096,-4.0096,-4.0096,-4.0096,-4.0096,-4.0096,-4.0096,-4.0096,-4.0096,-4.0096,-3.9622,-3.9191,-3.8879,-3.7511,-3.6531,-3.5975,-3.6009,-3.6166,0.0,-1.9045,-2.0225,-2.1018,-1.9786,0.0,0.0,0.0,-1.4116,-1.3565,-1.3459,-1.3727,-1.4653,-1.4888,-1.5511,-1.7344,-1.7623,0.0,0.0,0.0,0.0,0.0,0.0,0.0,0.0,0.0,0.0,0.0,0.0,0.0,0.0,0.0,-3.3709,-3.3684,-3.4874,-3.4795,-3.3353,-3.2431,-3.3163,-3.549,-3.549,-3.549,-3.5461,-3.4011,0.0,0.0,0.0,0.0,0.0,-2.9821,-3.2041,-3.5509,-3.55,-3.5504,-3.5504,-3.5504,-3.5504,-3.5504,-3.5504,-3.5504,-3.5504,-3.5504,-3.5504,-3.5504,-3.5504,-3.5504,-3.5504,-3.5504,-3.5504,-3.5668,-3.6415,-3.6615,-3.6873,-3.7962,-3.8234,-3.8318,-3.8596,-3.843,-3.7991,-3.7203,-3.7054,-3.6964,-3.663,-3.7068,-3.7787,-3.8772,-3.9166,-3.9516,-4.0045,-4.0096,-4.0096,-4.0096,-4.0096,-4.0096,-4.0096,-4.0096,-4.0096,-4.0096,-4.0096,-4.0096,-4.0096,-4.0096,-4.0096,-4.0096,-3.9385,-3.8853,-3.8582,-3.7034,-3.6214,-3.6065,-3.6796,-3.7309,0.0,0.0,0.0,0.0,0.0,0.0,0.0,0.0,0.0,0.0,0.0,-1.4019,-1.4603,-1.5622,-1.6763,-1.7914,0.0,0.0,0.0,0.0,0.0,0.0,0.0,0.0,0.0,0.0,0.0,0.0,0.0,0.0,0.0,0.0,-3.5418,-3.5497,-3.5256,-3.3512,-3.0228,-3.3716,-3.5378,-3.5096,-3.5096,-3.5075,-3.4975,-3.1433,0.0,0.0,0.0,0.0,0.0,-2.9905,-3.2062,-3.5509,-3.5511,-3.5502,-3.5504,-3.5504,-3.5504,-3.5504,-3.5504,-3.5504,-3.5504,-3.5504,-3.5504,-3.5504,-3.5504,-3.5504,-3.5504,-3.5504,-3.5537,-3.5765,-3.6508,-3.6722,-3.7128,-3.8619,-3.9005,-3.9166,-3.9876,-3.9437,-3.8663,-3.7863,-3.7719,-3.7485,-3.6783,-3.7873,-3.8854,-3.8962,-3.961,-4.0096,-4.0096,-4.0096,-4.0096,-4.0096,-4.0096,-4.0096,-4.0096,-4.0096,-4.0096,-4.0096,-4.0096,-4.0096,-4.0096,-4.0045,-4.0045,-4.0096,-3.9385,-3.8633,-3.7905,-3.6394,-3.6096,-3.6897,-3.7584,-3.8311,0.0,0.0,0.0,0.0,0.0,0.0,0.0,0.0,0.0,0.0,0.0,0.0,0.0,0.0,0.0,0.0,0.0,0.0,0.0,0.0,0.0,0.0,0.0,0.0,0.0,0.0,0.0,0.0,0.0,0.0,0.0,0.0,-3.4481,-3.5478,-3.2639,-3.2117,-3.4143,-3.5053,-3.4032,-3.1137,-3.1137,-3.1146,-3.1116,-3.0194,0.0,0.0,0.0,0.0,-3.3926,-3.1013,-3.2051,-3.5517,-3.5492,-3.5489,-3.5504,-3.5504,-3.5504,-3.5504,-3.5504,-3.5504,-3.5504,-3.5504,-3.5504,-3.5504,-3.5504,-3.5504,-3.5504,-3.5504,-3.5926,-3.6508,-3.7308,-3.7933,-3.8619,-3.9584,-3.9808,-3.9705,-3.9289,-3.9016,-3.8509,-3.7128,-3.6873,-3.7024,-3.744,-3.7835,-3.8458,-3.9636,-3.9978,-4.0096,-4.0096,-4.0096,-4.0096,-4.0096,-4.0096,-4.0096,-4.0096,-4.0096,-4.0096,-4.0096,-4.0096,-4.0096,-4.0096,-3.9516,-3.9463,-4.007,-3.9385,-3.8633,-3.7905,-3.6958,-3.6907,-3.7652,-3.7821,-3.8311,-1.3199,-1.2985,0.0,0.0,0.0,0.0,0.0,0.0,0.0,0.0,0.0,0.0,0.0,0.0,0.0,0.0,0.0,0.0,0.0,0.0,0.0,0.0,0.0,0.0,0.0,0.0,0.0,0.0,0.0,0.0,0.0,0.0,-3.3177,-3.4144,-3.1338,-3.0796,-3.2874,-3.2873,-3.1834,-2.9803,-2.9818,-2.9803,-2.9808,-2.9808,0.0,0.0,0.0,0.0,-3.274,-3.0669,-3.1016,-3.3043,-3.4826,-3.5499,-3.5504,-3.5504,-3.5504,-3.5504,-3.5504,-3.5504,-3.5504,-3.5504,-3.5504,-3.5504,-3.5504,-3.5504,-3.5504,-3.5504,-3.6023,-3.6783,-3.7602,-3.8358,-3.9016,-3.9437,-3.9542,-3.9358,-3.8553,-3.8117,-3.7584,-3.6752,-3.6615,-3.6859,-3.7661,-3.8092,-3.8707,-3.9927,-4.0096,-4.0096,-4.0096,-4.0096,-4.0096,-4.0096,-4.0096,-4.0096,-4.0096,-4.0096,-4.0096,-4.0096,-4.0096,-4.0096,-4.0096,-3.9688,-3.9511,-3.958,-3.9191,-3.8633,-3.7905,-3.7499,-3.7686,-3.8396,-3.8396,-3.8802,-1.3191,-1.3198,-1.3204,-1.3204,0.0,0.0,0.0,0.0,0.0,0.0,0.0,0.0,0.0,0.0,0.0,0.0,0.0,0.0,0.0,0.0,0.0,0.0,0.0,0.0,0.0,0.0,0.0,0.0,0.0,0.0,0.0,0.0,0.0,-3.2158,-3.0531,-2.9613,-2.9552,-2.9694,-2.9816,-2.9816,-2.9783,-2.9792,-2.9792,-2.9792,-2.9793,0.0,0.0,0.0,-2.9783,-2.9797,-3.0126,-3.0989,-3.4254,-3.5514,-3.5511,-3.5511,-3.5499,-3.5504,-3.5504,-3.5504,-3.5504,-3.5504,-3.5504,-3.5504,-3.5504,-3.5504,-3.5504,-3.5504,-3.6023,-3.6768,-3.7456,-3.8161,-3.8745,-3.8745,-3.8745,-3.8525,-3.7777,-3.7084,-3.6584,-3.6446,-3.6446,-3.6676,-3.7485,-3.8246,-3.9005,-3.9808,-4.002,-4.0096,-4.0096,-4.0096,-4.0096,-4.0096,-4.0096,-4.0096,-4.0096,-3.9995,-3.9927,-3.9927,-4.002,-4.0045,-3.9927,-4.0045,-3.9758,-3.8991,-3.9108,-3.8853,-3.8244,-3.7988,-3.8259,-3.8975,-3.8874,-3.916,-1.3197,-1.3207,-1.3192,-1.3198,-1.3568,0.0,0.0,0.0,0.0,0.0,0.0,0.0,0.0,0.0,0.0,0.0,0.0,0.0,0.0,0.0,0.0,0.0,0.0,0.0,0.0,0.0,0.0,0.0,0.0,0.0,0.0,0.0,0.0,-3.0279,-2.9322,-2.8716,-2.8375,-2.9302,-2.9794,-2.9794,-2.9793,-2.9792,-2.9792,-2.9792,-2.9796,0.0,0.0,-3.033,-2.9792,-2.9808,-3.1691,-3.4668,-3.5277,-3.5495,-3.5501,-3.5501,-3.5518,-3.5504,-3.5504,-3.5504,-3.5504,-3.5504,-3.5504,-3.5504,-3.5504,-3.5504,-3.5504,-3.5504,-3.6023,-3.663,-3.6752,-3.7381,-3.7978,-3.7978,-3.7978,-3.7748,-3.6964,-3.6691,-3.6415,-3.5782,-3.5668,-3.5894,-3.6646,-3.744,-3.8218,-3.8978,-3.9662,-4.0096,-4.0096,-4.0096,-4.0096,-4.0096,-4.0096,-4.0096,-4.0096,-3.9489,-3.9086,-3.9086,-3.9714,-3.9782,-3.9113,-3.9756,-3.9732,-3.892,-3.9588,-3.9893,-3.9774,-3.8435,-3.82,-3.8904,-3.8282,-3.8045,-1.3201,-1.2336,-1.1993,-1.4392,0.0,-1.6055,-1.4607,0.0,0.0,0.0,0.0,0.0,0.0,0.0,0.0,0.0,0.0,0.0,0.0,0.0,0.0,0.0,0.0,0.0,0.0,0.0,0.0,0.0,0.0,0.0,0.0,0.0,0.0,0.0,-2.9238,-2.8237,-2.725,-2.7754,-2.8637,-2.9796,-2.9781,-2.9792,-2.9792,-2.9792,-2.9782,-2.9809,0.0,-2.982,-2.9796,-2.9796,-3.0846,-3.2442,-3.2434,-3.2437,-3.2673,-3.475,-3.5487,-3.5504,-3.5504,-3.5504,-3.5504,-3.5504,-3.5504,-3.5504,-3.5504,-3.5504,-3.5504,-3.5504,-3.6023,-3.6615,-3.6615,-3.7203,-3.769,-3.7233,-3.7144,-3.695,-3.618,-3.6006,-3.5926,-3.5569,-3.5504,-3.5878,-3.704,-3.7544,-3.8206,-3.9385,-3.9876,-4.0096,-4.0096,-4.0096,-4.0096,-4.0096,-4.0096,-3.9927,-3.9489,-3.9113,-3.8908,-3.8908,-3.9262,-3.9489,-3.9558,-3.9901,-3.9927,-3.9558,-3.9901,-4.0096,-4.0096,-3.9395,-3.8999,-3.8908,-3.8552,-3.8187,-1.258,-1.1192,-1.0712,-1.4109,0.0,-1.9248,-1.7828,0.0,0.0,0.0,0.0,0.0,0.0,0.0,0.0,0.0,0.0,0.0,0.0,0.0,0.0,0.0,0.0,0.0,0.0,0.0,0.0,0.0,0.0,0.0,0.0,0.0,0.0,0.0,-2.935,-2.8174,-2.6699,-2.6699,-2.7717,-2.9807,-2.9783,-2.9793,-2.9792,-2.9792,-2.9792,-2.9792,-2.9792,-2.9792,-2.9793,-2.9794,-2.9812,-2.9809,-2.9812,-3.0371,-3.1485,-3.4416,-3.5509,-3.5504,-3.5504,-3.5504,-3.5504,-3.5504,-3.5504,-3.5504,-3.5504,-3.5504,-3.5504,-3.5504,-3.5926,-3.6337,-3.6337,-3.6783,-3.7115,-3.6477,-3.6337,-3.6196,-3.5619,-3.5504,-3.5504,-3.5504,-3.5504,-3.5941,-3.7279,-3.7677,-3.8262,-3.961,-3.9978,-4.0096,-4.0096,-4.0096,-4.0096,-4.0096,-3.9927,-3.9437,-3.8437,-3.8536,-3.8635,-3.8635,-3.8799,-3.9262,-4.007,-4.0096,-4.0096,-4.0096,-4.0096,-4.0096,-4.0096,-3.9731,-3.9236,-3.8635,-3.8453,-3.7975,-1.0698,-1.0026,-0.9977,-1.0298,-1.6849,0.0,-2.4142,-2.2615,0.0,0.0,0.0,0.0,0.0,0.0,0.0,0.0,0.0,0.0,0.0,0.0,0.0,0.0,0.0,0.0,0.0,0.0,0.0,0.0,0.0,0.0,0.0,0.0,0.0,0.0,0.0,-2.8714,-2.727,-2.7258,-2.8116,-2.9794,-2.9782,-2.9809,-2.9792,-2.9792,-2.9792,-2.9792,-2.9792,-2.9792,-2.9793,-2.9794,-2.9812,-2.9798,-2.98,-3.1972,-3.5126,-3.5407,-3.549,-3.5504,-3.5504,-3.5504,-3.5504,-3.5504,-3.5504,-3.5504,-3.5504,-3.5504,-3.5504,-3.5504,-3.5537,-3.5587,-3.5587,-3.5619,-3.5651,-3.5587,-3.5587,-3.5554,-3.5504,-3.5504,-3.5504,-3.5504,-3.5504,-3.575,-3.6554,-3.7308,-3.8064,-3.8854,-3.961,-4.0096,-4.0096,-4.0096,-4.0096,-4.0096,-3.9437,-3.8381,-3.6888,-3.744,-3.7863,-3.7863,-3.8525,-3.9262,-4.007,-4.0096,-4.0096,-4.0096,-4.0096,-4.0096,-4.0096,-3.8652,-3.7937,-3.7863,-3.7114,-3.6368,-1.3473,-1.1992,-1.0496,-1.295,-1.6184,0.0,0.0,-2.4187,0.0,0.0,0.0,0.0,0.0,0.0,0.0,0.0,0.0,0.0,0.0,0.0,0.0,0.0,0.0,0.0,0.0,0.0,0.0,0.0,0.0,0.0,0.0,0.0,0.0,0.0,0.0,-2.7694,-2.6813,-2.6801,-2.7311,-2.8277,-2.9311,-2.9821,-2.9792,-2.9792,-2.9792,-2.9792,-2.9792,-2.9792,-2.9831,-3.0179,-3.102,-3.2169,-3.3018,-3.3215,-3.3205,-3.488,-3.5507,-3.5504,-3.5504,-3.5504,-3.5504,-3.5504,-3.5504,-3.5504,-3.5504,-3.5504,-3.5504,-3.5504,-3.5504,-3.5504,-3.5504,-3.5504,-3.5504,-3.5504,-3.5504,-3.5504,-3.5504,-3.5504,-3.5504,-3.5504,-3.5863,-3.643,-3.7219,-3.7991,-3.8761,-3.9516,-3.9901,-4.0096,-4.0096,-3.9662,-3.9342,-3.9342,-3.8213,-3.7231,-3.663,-3.6873,-3.7279,-3.7764,-3.8497,-3.9262,-4.007,-4.0096,-4.0096,-4.0096,-4.0096,-3.9833,-3.9342,-3.8772,-3.7975,-3.7054,-3.6722,-3.6196,-1.3587,-1.2208,-1.1222,0.0,0.0,0.0,-2.0342,0.0,0.0,0.0,0.0,0.0,0.0,0.0,0.0,0.0,0.0,0.0,0.0,0.0,0.0,0.0,0.0,0.0,0.0,0.0,0.0,0.0,0.0,0.0,0.0,0.0,0.0,0.0,0.0,-2.7052,-2.6499,-2.6499,-2.6776,-2.7329,-2.8478,-2.91,-2.9264,-2.9264,-2.9264,-2.9302,-2.9744,-2.9958,-2.9982,-3.0428,-3.1508,-3.2956,-3.3885,-3.3124,-3.1787,-3.4055,-3.5163,-3.5499,-3.5499,-3.5494,-3.5504,-3.5504,-3.5504,-3.5504,-3.5504,-3.5504,-3.5504,-3.5504,-3.5504,-3.5504,-3.5504,-3.5504,-3.5504,-3.5504,-3.5504,-3.5504,-3.5504,-3.5504,-3.5504,-3.5504,-3.5926,-3.6569,-3.7602,-3.8218,-3.8897,-3.9927,-4.0096,-4.002,-3.9756,-3.9236,-3.8701,-3.823,-3.7247,-3.6615,-3.6615,-3.6813,-3.7322,-3.8121,-3.887,-3.9516,-4.007,-4.0096,-4.0096,-4.0096,-3.9833,-3.9463,-3.8908,-3.8425,-3.7642,-3.6569,-3.6353,-3.5975,-0.9954,-0.9963,0.0,0.0,0.0,0.0,0.0,0.0,0.0,0.0,0.0,0.0,0.0,0.0,0.0,0.0,0.0,0.0,0.0,0.0,0.0,0.0,0.0,0.0,0.0,0.0,0.0,0.0,0.0,0.0,0.0,0.0,0.0,0.0,0.0,0.0,-2.6487,-2.6487,-2.6763,-2.7291,-2.7304,-2.757,-2.8109,-2.8109,-2.8109,-2.8182,-2.9662,-3.0284,-3.0336,-3.0516,-3.0965,-3.149,-3.1499,-3.1498,-3.167,-3.2991,-3.4319,-3.5454,-3.5501,-3.5507,-3.5504,-3.5504,-3.5504,-3.5504,-3.5504,-3.5504,-3.5504,-3.5504,-3.5504,-3.5504,-3.5504,-3.5504,-3.5504,-3.5504,-3.5504,-3.5504,-3.5504,-3.5504,-3.5504,-3.5504,-3.5504,-3.6005,-3.7531,-3.7793,-3.8318,-3.985,-4.0113,-3.9808,-3.8989,-3.8881,-3.8286,-3.6752,-3.6615,-3.6615,-3.6615,-3.7338,-3.8104,-3.8854,-3.9662,-4.0096,-4.0096,-4.0096,-4.007,-4.007,-3.9289,-3.8881,-3.8881,-3.735,-3.6615,-3.6584,-3.5831,-3.5504,-1.3926,0.0,0.0,0.0,0.0,0.0,0.0,0.0,0.0,0.0,0.0,0.0,0.0,0.0,0.0,0.0,0.0,0.0,0.0,0.0,0.0,0.0,0.0,0.0,0.0,0.0,0.0,0.0,0.0,0.0,0.0,0.0,0.0,0.0,0.0,0.0,-2.531,-2.5674,-2.5749,-2.5561,-2.6339,-2.7228,-2.8109,-2.871,-2.9019,-2.9054,-3.0089,-3.0494,-3.0542,-3.0852,-3.1159,-3.1501,-3.1514,-3.1501,-3.1543,-3.1961,-3.2331,-3.2967,-3.4849,-3.5504,-3.5478,-3.5478,-3.5501,-3.5504,-3.5504,-3.5504,-3.5504,-3.5504,-3.5504,-3.5504,-3.5504,-3.5504,-3.5504,-3.5504,-3.5504,-3.5504,-3.5504,-3.5504,-3.5504,-3.5504,-3.5926,-3.643,-3.6889,-3.786,-3.8718,-3.9183,-3.9756,-3.961,-3.829,-3.7629,-3.6904,-3.5926,-3.6275,-3.6615,-3.6615,-3.7815,-3.8663,-3.8881,-3.9662,-4.0096,-4.0096,-3.9558,-3.9262,-3.9262,-3.8513,-3.7847,-3.7261,-3.6813,-3.6322,-3.5799,-3.5619,-3.5504,-1.7769,0.0,0.0,0.0,0.0,0.0,0.0,0.0,0.0,0.0,0.0,0.0,0.0,0.0,0.0,0.0,0.0,0.0,0.0,0.0,0.0,0.0,0.0,0.0,0.0,0.0,0.0,0.0,0.0,0.0,0.0,0.0,0.0,0.0,0.0,0.0,-2.525,-2.5832,-2.5991,-2.5678,-2.6355,-2.7176,-2.8087,-2.8536,-2.8902,-2.9295,-3.0112,-3.0678,-3.097,-3.1188,-3.1338,-3.1511,-3.1511,-3.1484,-3.1515,-3.1515,-3.1501,-3.1734,-3.3336,-3.3908,-3.4083,-3.5152,-3.5514,-3.5486,-3.5486,-3.5512,-3.5504,-3.5504,-3.5504,-3.5504,-3.5504,-3.5504,-3.5504,-3.5504,-3.5504,-3.5504,-3.5504,-3.5504,-3.5504,-3.5504,-3.5863,-3.6368,-3.698,-3.7847,-3.8663,-3.9289,-3.9279,-3.8859,-3.7921,-3.6844,-3.6006,-3.5569,-3.6165,-3.6737,-3.7054,-3.8201,-3.9032,-3.9342,-3.9516,-3.961,-3.961,-3.9166,-3.8908,-3.8908,-3.786,-3.7084,-3.6615,-3.6306,-3.5911,-3.5504,-3.5504,-3.5504,0.0,0.0,0.0,0.0,0.0,0.0,0.0,0.0,0.0,0.0,0.0,0.0,0.0,0.0,0.0,0.0,0.0,0.0,0.0,0.0,0.0,0.0,0.0,0.0,0.0,0.0,0.0,0.0,0.0,0.0,0.0,0.0,0.0,0.0,0.0,0.0,-2.5761,-2.6549,-2.6864,0.0,-2.6919,-2.7338,-2.7953,-2.787,-2.8314,-2.9171,-2.9986,-3.0719,-3.1331,-3.1331,-3.1331,-3.1331,-3.1391,-3.1406,-3.1421,-3.1481,-3.1514,-3.1516,-3.1516,-3.1513,-3.1893,-3.4333,-3.5139,-3.5194,-3.544,-3.5508,-3.5494,-3.5494,-3.5509,-3.5492,-3.5492,-3.5489,-3.5504,-3.5504,-3.5504,-3.5504,-3.5504,-3.5504,-3.5504,-3.5504,-3.5554,-3.6053,-3.7472,-3.7806,-3.8374,-3.9782,-3.875,-3.7764,-3.769,-3.6399,-3.5504,-3.5504,-3.6228,-3.701,-3.7719,-3.8469,-3.9193,-3.9952,-3.9236,-3.8799,-3.8799,-3.8745,-3.8674,-3.8674,-3.7247,-3.6492,-3.6492,-3.5831,-3.5504,-3.5504,-3.5504,-3.5504,0.0,0.0,0.0,0.0,0.0,0.0,0.0,0.0,0.0,0.0,0.0,0.0,0.0,0.0,0.0,0.0,0.0,0.0,0.0,0.0,0.0,0.0,0.0,0.0,0.0,0.0,0.0,0.0,0.0,0.0,0.0,0.0,0.0,0.0,0.0,-2.5813,-2.4648,-2.5792,-2.5879,0.0,-2.6328,-2.722,-2.7626,-2.8533,-2.9387,-3.0204,-3.039,-3.0293,-2.9998,-2.9998,-2.9998,-3.0058,-3.0537,-3.0731,-3.0791,-3.1316,-3.1511,-3.1498,-3.1498,-3.1501,-3.1603,-3.2169,-3.236,-3.2743,-3.485,-3.5492,-3.5491,-3.5491,-3.5518,-3.5512,-3.5512,-3.5486,-3.5504,-3.5504,-3.5504,-3.5504,-3.5504,-3.5504,-3.5504,-3.5504,-3.5975,-3.6477,-3.6798,-3.786,-3.8772,-3.9113,-3.8386,-3.7573,-3.6934,-3.607,-3.5504,-3.5504,-3.6707,-3.7602,-3.7793,-3.8469,-3.8962,-3.9139,-3.8442,-3.8035,-3.8035,-3.7424,-3.7098,-3.7098,-3.6212,-3.5718,-3.5718,-3.5587,-3.5504,-3.5504,-3.5504,-3.5504,0.0,0.0,0.0,0.0,0.0,0.0,0.0,0.0,0.0,0.0,0.0,0.0,0.0,0.0,0.0,0.0,0.0,0.0,0.0,0.0,0.0,0.0,0.0,0.0,0.0,0.0,0.0,0.0,0.0,0.0,0.0,0.0,0.0,0.0,-2.5894,-2.5329,-2.4888,-2.5885,-2.6229,-2.5877,-2.6857,-2.7556,-2.8062,-2.9003,-2.9683,-3.0058,-3.0058,-2.9879,-2.9606,-2.9606,-2.9606,-2.9636,-2.9939,-3.0238,-3.0552,-3.0883,-3.1212,-3.1511,-3.1511,-3.1513,-3.1515,-3.1515,-3.1516,-3.1749,-3.3171,-3.3562,-3.3575,-3.3575,-3.3572,-3.3886,-3.5179,-3.5495,-3.5486,-3.5507,-3.5504,-3.5504,-3.5504,-3.5504,-3.5504,-3.5504,-3.621,-3.6938,-3.747,-3.8639,-3.9342,-3.8962,-3.8274,-3.7515,-3.6691,-3.5943,-3.5504,-3.5504,-3.6538,-3.7397,-3.7764,-3.8149,-3.8525,-3.8881,-3.7831,-3.7219,-3.7219,-3.6492,-3.6259,-3.6569,-3.5863,-3.5504,-3.5504,-3.5504,-3.5504,-3.5504,-3.5504,-3.5504,0.0,0.0,0.0,0.0,0.0,0.0,0.0,0.0,0.0,0.0,0.0,0.0,0.0,0.0,0.0,0.0,0.0,0.0,0.0,0.0,0.0,0.0,0.0,0.0,0.0,0.0,0.0,0.0,0.0,0.0,0.0,0.0,-2.551,-2.551,-2.4978,-2.49,-2.5319,-2.6179,-2.6807,-2.7229,-2.7489,-2.7839,-2.8263,-2.8816,-2.9157,-2.9262,-2.9262,-2.9127,-2.8906,-2.9037,-2.9097,-2.9112,-2.9352,-2.9729,-3.0208,-3.0417,-3.0806,-3.1182,-3.1286,-3.1331,-3.1331,-3.1331,-3.141,-3.1516,-3.1516,-3.1514,-3.151,-3.151,-3.1509,-3.1997,-3.4221,-3.5134,-3.5513,-3.5499,-3.5492,-3.5504,-3.5504,-3.5504,-3.5507,-3.5514,-3.6476,-3.7603,-3.8683,-3.9548,-3.9782,-3.8854,-3.8206,-3.7456,-3.6538,-3.5863,-3.5504,-3.5504,-3.6165,-3.6873,-3.7544,-3.7602,-3.7847,-3.8453,-3.7188,-3.6415,-3.6415,-3.5799,-3.5782,-3.6384,-3.5814,-3.5504,-3.5504,-3.5504,-3.5504,-3.5504,-3.5504,-3.5504,0.0,0.0,0.0,0.0,0.0,0.0,0.0,0.0,0.0,0.0,0.0,0.0,0.0,0.0,0.0,0.0,0.0,0.0,0.0,0.0,0.0,0.0,0.0,0.0,0.0,0.0,0.0,0.0,0.0,0.0,0.0,-2.5983,-2.5592,-2.5592,-2.5503,-2.5188,-2.4646,-2.5933,-2.6308,-2.5789,-2.7024,-2.7345,-2.6856,-2.6946,-2.733,-2.7869,-2.7869,-2.7225,-2.6183,-2.6752,-2.7016,-2.7136,-2.8278,-2.8786,-2.8996,-3.0088,-3.0223,-2.9924,-3.0447,-3.0642,-3.0642,-3.0642,-3.1047,-3.1497,-3.1497,-3.1498,-3.1499,-3.1499,-3.1516,-3.1589,-3.193,-3.3756,-3.5484,-3.5498,-3.5518,-3.5504,-3.5504,-3.5504,-3.5499,-3.5521,-3.7044,-3.8701,-3.9713,-4.0028,-3.961,-3.8177,-3.7863,-3.7294,-3.5814,-3.5554,-3.5504,-3.5504,-3.6165,-3.663,-3.6752,-3.6768,-3.6813,-3.6888,-3.6117,-3.5636,-3.5636,-3.5554,-3.5569,-3.5636,-3.5554,-3.5504,-3.5504,-3.5504,-3.5504,-3.5504,-3.5504,-3.5504,0.0,0.0,0.0,0.0,0.0,0.0,0.0,0.0,0.0,0.0,0.0,0.0,0.0,0.0,0.0,0.0,0.0,0.0,0.0,0.0,0.0,0.0,0.0,0.0,0.0,0.0,0.0,0.0,0.0,0.0,-2.6063,-2.5397,-2.5038,-2.5038,-2.4687,-2.4498,-2.4552,-2.5167,-2.5494,-2.557,-2.6569,-2.6701,-2.6033,-2.6033,-2.6198,-2.6467,-2.6467,-2.6138,-2.5659,-2.6318,-2.6587,-2.6692,-2.7675,-2.8263,-2.8667,-2.9235,-2.9505,-2.9651,-2.9894,-2.9983,-2.9983,-2.9983,-3.0417,-3.1001,-3.1396,-3.1491,-3.1511,-3.1511,-3.1498,-3.1515,-3.1516,-3.2377,-3.3635,-3.5134,-3.5512,-3.5503,-3.5507,-3.5504,-3.6016,-3.7736,-3.8825,-3.9588,-4.0028,-4.0096,-3.9601,-3.8035,-3.7793,-3.7235,-3.5716,-3.5504,-3.5504,-3.5504,-3.5782,-3.6134,-3.6538,-3.6228,-3.6165,-3.6584,-3.5926,-3.5504,-3.5504,-3.5504,-3.5504,-3.5504,-3.5504,-3.5504,-3.5504,-3.5504,-3.5504,-3.5504,-3.5504,-3.5504,0.0,0.0,0.0,0.0,0.0,0.0,0.0,0.0,0.0,0.0,0.0,0.0,0.0,0.0,0.0,0.0,0.0,0.0,0.0,0.0,0.0,0.0,0.0,0.0,0.0,0.0,0.0,0.0,0.0,0.0,-2.5367,-2.4709,-2.435,-2.435,-2.3864,-2.3849,-2.4335,-2.4515,-2.4933,-2.5615,-2.6108,-2.5989,-2.5337,-2.5337,-2.5255,-2.5106,-2.5262,-2.5255,-2.5166,-2.6004,-2.6348,-2.6422,-2.727,-2.7914,-2.8368,-2.8532,-2.8801,-2.9127,-2.9292,-2.9367,-2.9367,-2.9367,-2.9759,-3.0428,-3.1263,-3.1496,-3.1492,-3.1509,-3.1511,-3.1497,-3.1515,-3.1501,-3.2019,-3.4009,-3.5011,-3.5498,-3.549,-3.551,-3.6415,-3.9498,-4.0095,-4.0096,-4.0088,-4.0096,-3.9618,-3.8221,-3.7761,-3.7081,-3.5668,-3.5504,-3.5504,-3.5504,-3.5504,-3.5733,-3.6275,-3.5814,-3.5718,-3.6275,-3.5814,-3.5504,-3.5504,-3.5504,-3.5504,-3.5504,-3.5504,-3.5504,-3.5504,-3.5504,-3.5504,-3.5504,-3.5504,-3.5504,0.0,0.0,0.0,0.0,0.0,0.0,0.0,0.0,0.0,0.0,0.0,0.0,0.0,0.0,0.0,0.0,0.0,0.0,0.0,0.0,0.0,0.0,0.0,0.0,0.0,0.0,0.0,0.0,0.0,0.0,-2.4649,-2.4029,-2.3655,-2.3655,-2.3625,-2.3625,-2.3655,-2.4276,-2.4933,-2.5615,-2.5644,-2.5292,-2.4649,-2.4649,-2.4306,-2.3744,-2.438,-2.4291,-2.3804,-2.5121,-2.5659,-2.5794,-2.7091,-2.7615,-2.7735,-2.8368,-2.8203,-2.7794,-2.8427,-2.8652,-2.8652,-2.8652,-2.9086,-2.9873,-3.1127,-3.15,-3.1492,-3.1507,-3.1511,-3.1511,-3.1497,-3.1515,-3.1544,-3.167,-3.3643,-3.5518,-3.5492,-3.5517,-3.64,-3.9512,-4.0098,-4.0104,-4.0113,-4.0096,-3.9744,-3.8703,-3.7684,-3.6665,-3.5638,-3.5504,-3.5504,-3.5504,-3.5504,-3.5504,-3.5554,-3.5537,-3.5537,-3.5554,-3.5537,-3.5504,-3.5504,-3.5504,-3.5504,-3.5504,-3.5504,-3.5504,-3.5504,-3.5504,-3.5504,-3.5504,-3.5504,-3.5504,0.0,0.0,0.0,0.0,0.0,0.0,0.0,0.0,0.0,0.0,0.0,0.0,0.0,0.0,0.0,0.0,0.0,0.0,0.0,0.0,0.0,0.0,0.0,0.0,0.0,0.0,0.0,0.0,0.0,0.0,-2.3984,-2.3729,-2.3595,-2.3595,-2.3595,-2.3595,-2.3595,-2.4261,-2.45,-2.4328,-2.4739,-2.4605,-2.3969,-2.3969,-2.3834,-2.361,-2.3864,-2.3819,-2.367,-2.4575,-2.5202,-2.5689,-2.6587,-2.7225,-2.763,-2.7869,-2.7809,-2.763,-2.7884,-2.7959,-2.7959,-2.7959,-2.8423,-2.9071,-2.9642,-3.0599,-3.149,-3.1507,-3.1511,-3.1511,-3.1511,-3.1483,-3.1916,-3.3668,-3.4801,-3.5505,-3.5486,-3.7078,-3.878,-3.988,-4.0117,-4.0096,-4.0096,-4.0093,-3.9995,-3.9626,-3.8093,-3.6661,-3.5651,-3.5504,-3.5504,-3.5504,-3.5504,-3.5504,-3.5504,-3.5504,-3.5504,-3.5504,-3.5504,-3.5504,-3.5504,-3.5504,-3.5504,-3.5504,-3.5504,-3.5504,-3.5504,-3.5504,-3.5504,-3.5504,-3.5504,-3.5504,0.0,0.0,0.0,0.0,0.0,0.0,0.0,0.0,0.0,0.0,0.0,0.0,0.0,0.0,0.0,0.0,0.0,0.0,0.0,0.0,0.0,0.0,0.0,0.0,0.0,0.0,0.0,0.0,0.0,0.0,-2.3625,-2.34,-2.3191,-2.2966,-2.3176,-2.3295,-2.3295,-2.3954,-2.3954,-2.3295,-2.3947,-2.3924,-2.3295,-2.3505,-2.3595,-2.3595,-2.3595,-2.3595,-2.3655,-2.4321,-2.4859,-2.5322,-2.6004,-2.6527,-2.6971,-2.718,-2.727,-2.73,-2.7525,-2.76,-2.76,-2.76,-2.7899,-2.8356,-2.8967,-3.0051,-3.1129,-3.1404,-3.1511,-3.1511,-3.1511,-3.1499,-3.1931,-3.3726,-3.4842,-3.5519,-3.5506,-3.7931,-4.0099,-4.0111,-4.0103,-4.0113,-4.0096,-3.9239,-3.857,-3.8551,-3.7395,-3.6276,-3.5589,-3.5504,-3.5504,-3.5504,-3.5504,-3.5504,-3.5504,-3.5504,-3.5504,-3.5504,-3.5504,-3.5504,-3.5504,-3.5504,-3.5504,-3.5504,-3.5504,-3.5504,-3.5504,-3.5504,-3.5504,-3.5504,-3.5504,-3.5504,0.0,0.0,0.0,0.0,0.0,0.0,0.0,0.0,0.0,0.0,0.0,0.0,0.0,0.0,0.0,0.0,0.0,0.0,0.0,0.0,0.0,0.0,0.0,0.0,0.0,0.0,0.0,0.0,0.0,-2.355,-2.3565,-2.3002,-2.2373,-2.1724,-2.2328,-2.2673,-2.2673,-2.3236,-2.3236,-2.2673,-2.3251,-2.3236,-2.2688,-2.3295,-2.3565,-2.3565,-2.3595,-2.3595,-2.3655,-2.4291,-2.459,-2.4664,-2.5307,-2.5576,-2.5719,-2.6363,-2.6602,-2.6707,-2.7375,-2.76,-2.76,-2.76,-2.76,-2.7839,-2.9172,-2.9865,-3.0368,-3.1254,-3.1496,-3.1511,-3.1511,-3.1575,-3.162,-3.1633,-3.3603,-3.5478,-3.5494,-3.7931,-4.0085,-4.0095,-4.0096,-4.0113,-4.0087,-3.7619,-3.5626,-3.566,-3.5556,-3.5516,-3.5501,-3.5489,-3.5504,-3.5504,-3.5504,-3.5504,-3.5504,-3.5504,-3.5504,-3.5504,-3.5504,-3.5504,-3.5504,-3.5504,-3.5504,-3.5504,-3.5504,-3.5504,-3.5504,-3.5504,-3.5504,-3.5504,-3.5504,-3.5504,-0.9606,0.0,0.0,0.0,0.0,0.0,0.0,0.0,0.0,0.0,0.0,0.0,0.0,0.0,0.0,0.0,0.0,0.0,0.0,0.0,0.0,0.0,0.0,0.0,0.0,0.0,0.0,0.0,-2.2592,-2.2428,-2.2927,-2.2343,-2.1874,-2.1695,-2.1874,-2.1984,-2.1984,-2.2143,-2.2143,-2.1984,-2.2143,-2.2128,-2.1994,-2.2658,-2.2957,-2.2972,-2.34,-2.3595,-2.361,-2.3804,-2.4156,-2.4619,-2.4799,-2.5457,-2.6348,-2.6527,-2.6926,-2.7345,-2.754,-2.76,-2.76,-2.76,-2.76,-2.7764,-2.8607,-2.9504,-3.0392,-3.1252,-3.1503,-3.1511,-3.1511,-3.2928,-3.4394,-3.4409,-3.495,-3.5489,-3.5506,-3.7931,-4.0085,-4.0095,-4.0096,-4.0087,-4.0093,-3.9388,-3.8848,-3.8849,-3.6938,-3.5507,-3.5506,-3.5507,-3.5504,-3.5504,-3.5504,-3.5504,-3.5504,-3.5504,-3.5504,-3.5504,-3.5504,-3.5504,-3.5504,-3.5504,-3.5504,-3.5504,-3.5504,-3.5504,-3.5504,-3.5504,-3.5504,-3.5504,-3.5504,-3.5504,0.0,0.0,0.0,0.0,0.0,0.0,0.0,-1.1497,0.0,0.0,0.0,0.0,0.0,0.0,0.0,0.0,0.0,0.0,0.0,0.0,0.0,0.0,0.0,0.0,0.0,0.0,0.0,0.0,-2.2179,-2.2298,-2.2673,-2.2074,-2.1575,-2.1291,-2.1291,-2.1291,-2.1291,-2.156,-2.156,-2.1291,-2.156,-2.1545,-2.1321,-2.2269,-2.2703,-2.2733,-2.3325,-2.3595,-2.3595,-2.3595,-2.3834,-2.4171,-2.4171,-2.4814,-2.5809,-2.6078,-2.6602,-2.7225,-2.7495,-2.76,-2.76,-2.76,-2.76,-2.7779,-2.8738,-2.945,-3.0162,-3.1227,-3.1491,-3.1497,-3.1499,-3.308,-3.482,-3.5369,-3.5983,-3.6477,-3.6465,-3.8375,-4.0117,-4.0095,-4.0096,-4.0096,-4.0098,-4.0096,-4.0107,-4.0083,-3.8574,-3.6952,-3.5673,-3.5503,-3.5504,-3.5504,-3.5504,-3.5504,-3.5504,-3.5504,-3.5504,-3.5504,-3.5504,-3.5504,-3.5504,-3.5504,-3.5504,-3.5504,-3.5504,-3.5504,-3.5504,-3.5504,-3.5504,-3.5504,-3.5504,-3.5504,0.0,0.0,0.0,0.0,0.0,0.0,-0.9925,-1.0703,-1.172,0.0,0.0,0.0,0.0,0.0,0.0,0.0,0.0,0.0,0.0,0.0,0.0,0.0,0.0,0.0,0.0,0.0,-2.159,-2.159,-2.2224,-2.2583,-2.2583,-2.1934,-2.1321,-2.0718,-2.0628,-2.0583,-2.0583,-2.1186,-2.1186,-2.0598,-2.1186,-2.1171,-2.0628,-2.1984,-2.2583,-2.2628,-2.3295,-2.3595,-2.3595,-2.3595,-2.3595,-2.3595,-2.3595,-2.4007,-2.4679,-2.5337,-2.6019,-2.6692,-2.736,-2.76,-2.76,-2.76,-2.76,-2.7839,-2.9112,-2.9547,-2.9864,-3.1137,-3.1511,-3.1497,-3.1501,-3.2452,-3.3726,-3.5091,-3.6585,-3.7755,-3.7857,-3.9033,-4.0104,-4.0096,-4.0096,-4.0096,-4.0096,-3.9817,-3.9633,-3.9829,-3.969,-3.8587,-3.5859,-3.5492,-3.5504,-3.5504,-3.5504,-3.5504,-3.5504,-3.5504,-3.5504,-3.5504,-3.5504,-3.5504,-3.5504,-3.5504,-3.5504,-3.5504,-3.5504,-3.5504,-3.5504,-3.5504,-3.5504,-3.5504,-3.5504,-3.5504,0.0,0.0,0.0,0.0,0.0,0.0,-1.0499,-1.0286,-1.0587,0.0,0.0,0.0,0.0,0.0,0.0,0.0,0.0,0.0,0.0,0.0,0.0,0.0,0.0,0.0,0.0,0.0,-2.0897,-2.0897,-2.1515,-2.1889,-2.1889,-2.1261,-2.0838,-2.0703,-2.0183,-1.9884,-1.9884,-2.0022,-2.0022,-1.9884,-2.0037,-2.0022,-1.9947,-2.1276,-2.1889,-2.1949,-2.3101,-2.3595,-2.3595,-2.3595,-2.3595,-2.3595,-2.3595,-2.4007,-2.4679,-2.5337,-2.6019,-2.6692,-2.736,-2.76,-2.76,-2.76,-2.76,-2.775,-2.8547,-2.916,-2.9864,-3.1137,-3.1511,-3.1482,-3.1512,-3.2094,-3.3051,-3.4523,-3.6034,-3.7381,-3.8267,-3.9314,-4.0104,-4.0096,-4.0096,-4.0096,-4.0096,-3.8027,-3.6831,-3.8052,-3.7197,-3.6167,-3.5584,-3.5508,-3.5504,-3.5504,-3.5504,-3.5504,-3.5504,-3.5504,-3.5504,-3.5504,-3.5504,-3.5504,-3.5504,-3.5504,-3.5504,-3.5504,-3.5504,-3.5504,-3.5504,-3.5504,-3.5504,-3.5504,-3.5504,-3.5504,0.0,0.0,0.0,-0.8294,0.0,0.0,0.0,-0.9487,0.0,0.0,0.0,0.0,0.0,0.0,0.0,0.0,0.0,0.0,0.0,0.0,0.0,0.0,0.0,0.0,0.0,0.0,-2.0188,-2.1137,-2.1515,-2.1979,-2.2607,-2.141,-2.0838,-2.1201,-2.0213,-1.9708,-1.9708,-1.9708,-1.9708,-1.9708,-1.9708,-1.9708,-1.9738,-2.0737,-2.138,-2.1739,-2.2733,-2.331,-2.3595,-2.3595,-2.3595,-2.3595,-2.3595,-2.4007,-2.4649,-2.4978,-2.5749,-2.6632,-2.6986,-2.733,-2.76,-2.76,-2.76,-2.7739,-2.8517,-2.9588,-3.0687,-3.1316,-3.1511,-3.1511,-3.1511,-3.2243,-3.3291,-3.4409,-3.6079,-3.7639,-3.8548,-3.9455,-4.0092,-4.0096,-4.0096,-4.0096,-4.0096,-3.8493,-3.7324,-3.7737,-3.7135,-3.6384,-3.5593,-3.5501,-3.5504,-3.5504,-3.5504,-3.5504,-3.5504,-3.5504,-3.5504,-3.5504,-3.5504,-3.5504,-3.5504,-3.5504,-3.5504,-3.5504,-3.5504,-3.5504,-3.5504,-3.5504,-3.5504,-3.5504,-3.5504,-3.5504,0.0,0.0,0.0,0.0,0.0,-0.8402,0.0,0.0,0.0,0.0,0.0,0.0,0.0,0.0,0.0,0.0,0.0,0.0,0.0,0.0,0.0,0.0,0.0,0.0,0.0,0.0,-1.9479,-2.1218,-2.1347,-2.1852,-2.3033,-2.1575,-2.0942,-2.1485,-2.0337,-1.9708,-1.9708,-1.9708,-1.9708,-1.9708,-1.9708,-1.9708,-1.9723,-2.0393,-2.1081,-2.1739,-2.2418,-2.3047,-2.3595,-2.3595,-2.3595,-2.3595,-2.3595,-2.3939,-2.444,-2.4694,-2.5495,-2.6437,-2.6692,-2.7151,-2.76,-2.76,-2.7709,-2.8002,-2.878,-3.0188,-3.1511,-3.1511,-3.1511,-3.1511,-3.1511,-3.2585,-3.3833,-3.4457,-3.6153,-3.7862,-3.8747,-3.9435,-3.9876,-3.9868,-3.9876,-3.9876,-3.9876,-3.9116,-3.8332,-3.7751,-3.7477,-3.6908,-3.5664,-3.5504,-3.5504,-3.5504,-3.5504,-3.5504,-3.5504,-3.5504,-3.5504,-3.5504,-3.5504,-3.5504,-3.5504,-3.5504,-3.5504,-3.5504,-3.5504,-3.5504,-3.5504,-3.5504,-3.5504,-3.5504,-3.5504,-3.5504,0.0,0.0,0.0,0.0,-0.8395,0.0,0.0,0.0,0.0,0.0,0.0,0.0,0.0,0.0,0.0,0.0,0.0,0.0,0.0,0.0,0.0,0.0,0.0,0.0,0.0,0.0,0.0,-2.0023,-2.0087,-2.0425,-2.1162,-2.0873,-2.0733,-2.0808,-2.0094,-1.9708,-1.9708,-1.9708,-1.9708,-1.9708,-1.9708,-1.9708,-1.9723,-2.0393,-2.1081,-2.1739,-2.2418,-2.3047,-2.3595,-2.3595,-2.3595,-2.3595,-2.3595,-2.3655,-2.3864,-2.5061,-2.5576,-2.5884,-2.7076,-2.754,-2.76,-2.76,-2.8114,-2.8842,-2.9361,-3.0449,-3.1511,-3.1511,-3.1511,-3.1511,-3.1511,-3.2909,-3.4276,-3.427,-3.5639,-3.7281,-3.869,-3.9057,-3.9101,-3.905,-3.9032,-3.9032,-3.9032,-3.8026,-3.7197,-3.709,-3.6318,-3.5711,-3.5504,-3.5504,-3.5504,-3.5504,-3.5504,-3.5504,-3.5504,-3.5504,-3.5504,-3.5504,-3.5504,-3.5504,-3.5504,-3.5504,-3.5504,-3.5504,-3.5504,-3.5504,-3.5504,-3.5504,-3.5504,-3.5504,-3.5504,-3.5504,0.0,0.0,0.0,0.0,0.0,0.0,0.0,0.0,-0.8272,0.0,0.0,0.0,0.0,0.0,0.0,0.0,0.0,0.0,0.0,0.0,0.0,0.0,0.0,0.0,0.0,0.0,0.0,0.0,0.0,-1.9069,-2.0373,-1.9943,-1.9973,-2.0688,-2.0049,-1.9708,-1.9708,-1.9708,-1.9708,-1.9708,-1.9708,-1.9708,-1.9708,-1.9989,-2.0483,-2.1171,-2.1814,-2.2248,-2.2547,-2.3295,-2.3385,-2.3152,-2.3894,-2.4171,-2.4246,-2.4814,-2.5501,-2.6258,-2.6811,-2.727,-2.76,-2.76,-2.7839,-2.8474,-3.0177,-3.0561,-3.0552,-3.1286,-3.1212,-3.1012,-3.1386,-3.2489,-3.3748,-3.4856,-3.6058,-3.7364,-3.8705,-3.8975,-3.8923,-3.8912,-3.8553,-3.8165,-3.7844,-3.7338,-3.7103,-3.7434,-3.633,-3.5504,-3.5504,-3.5504,-3.5504,-3.5504,-3.5504,-3.5504,-3.5504,-3.5504,-3.5504,-3.5504,-3.5504,-3.5504,-3.5504,-3.5504,-3.5504,-3.5504,-3.5504,-3.5504,-3.5504,-3.5504,-3.5504,-3.5504,-3.5504,-3.5504,-1.1053,0.0,0.0,0.0,0.0,0.0,0.0,0.0,0.0,0.0,0.0,0.0,0.0,0.0,0.0,0.0,0.0,0.0,0.0,0.0,0.0,0.0,0.0,0.0,0.0,0.0,0.0,0.0,-1.6973,-1.7232,-1.8812,-1.8629,-1.9001,-2.0186,-1.9889,-1.9708,-1.9708,-1.9708,-1.9708,-1.9708,-1.9708,-1.9708,-1.9708,-1.9708,-2.0064,-2.0718,-2.1216,-2.1635,-2.2059,-2.2966,-2.3176,-2.3062,-2.4156,-2.4709,-2.4903,-2.5068,-2.5764,-2.6641,-2.6821,-2.7195,-2.76,-2.76,-2.759,-2.795,-2.986,-2.9801,-2.933,-3.062,-3.0896,-3.097,-3.1842,-3.2834,-3.3986,-3.5423,-3.6389,-3.7318,-3.846,-3.8656,-3.8659,-3.8793,-3.8395,-3.7714,-3.6737,-3.68,-3.7033,-3.7157,-3.6218,-3.5504,-3.5504,-3.5504,-3.5509,-3.5488,-3.5512,-3.5509,-3.552,-3.5512,-3.5504,-3.5504,-3.5504,-3.5504,-3.5504,-3.5504,-3.5504,-3.5504,-3.5504,-3.5504,-3.5504,-3.5504,-3.5504,-3.5504,-3.5504,-3.5504,0.0,0.0,0.0,-1.1833,0.0,0.0,0.0,0.0,-0.8965,0.0,0.0,0.0,0.0,0.0,0.0,0.0,0.0,0.0,0.0,0.0,0.0,0.0,0.0,0.0,0.0,0.0,0.0,-1.4116,-1.4126,-1.462,-1.5776,-1.6796,-1.7841,-1.8916,-1.9439,-1.9708,-1.9708,-1.9708,-1.9708,-1.9708,-1.9708,-1.9708,-1.9708,-1.9708,-2.0064,-2.0703,-2.0718,-2.147,-2.2673,-2.2703,-2.3062,-2.364,-2.4335,-2.4993,-2.5659,-2.6303,-2.6557,-2.6701,-2.7345,-2.7585,-2.76,-2.76,-2.759,-2.7609,-2.7694,-2.77,-2.7933,-2.9289,-3.0522,-3.1789,-3.317,-3.4611,-3.5695,-3.5629,-3.6226,-3.7019,-3.7787,-3.7932,-3.8068,-3.8517,-3.8581,-3.7916,-3.5906,-3.6368,-3.6677,-3.5729,-3.5552,-3.5504,-3.5504,-3.5504,-3.5488,-3.5492,-3.551,-3.5505,-3.5508,-3.5478,-3.5504,-3.5504,-3.5504,-3.5504,-3.5504,-3.5504,-3.5504,-3.5504,-3.5504,-3.5504,-3.5504,-3.5504,-3.5504,-3.5504,-3.5504,-3.5504,0.0,0.0,-1.2915,-1.3354,0.0,0.0,0.0,0.0,0.0,0.0,0.0,0.0,0.0,0.0,0.0,0.0,0.0,0.0,0.0,0.0,0.0,0.0,0.0,0.0,0.0,0.0,0.0,-1.3369,-1.3147,-1.3567,0.0,-1.5838,-1.7064,-1.8849,-1.908,-1.935,-1.9708,-1.9708,-1.9708,-1.9708,-1.9708,-1.9708,-1.9708,-1.9708,-1.9828,-2.0064,-2.0494,-2.07,-2.0828,-2.215,-2.2562,-2.2542,-2.4498,-2.5397,-2.5689,-2.6348,-2.6881,-2.73,-2.7525,-2.76,-2.76,-2.76,-2.7584,-2.7601,-2.7602,-2.8009,-2.869,-2.9703,-3.0391,-3.1182,-3.274,-3.3962,-3.4941,-3.5465,-3.588,-3.6196,-3.6388,-3.6453,-3.6486,-3.666,-3.7444,-3.7529,-3.5787,-3.5785,-3.5874,-3.5537,-3.5504,-3.5504,-3.5504,-3.551,-3.549,-3.5508,-3.7323,-3.774,-3.5677,-3.551,-3.5504,-3.5504,-3.5504,-3.5504,-3.5504,-3.5504,-3.5504,-3.5504,-3.5504,-3.5504,-3.5504,-3.5504,-3.5504,-3.5504,-3.5504,-3.5504,-1.4841,-1.449,0.0,-1.4445,-1.3373,0.0,-1.2057,0.0,0.0,0.0,0.0,0.0,0.0,0.0,0.0,0.0,0.0,0.0,0.0,0.0,0.0,0.0,0.0,0.0,0.0,0.0,-1.0946,-1.2221,-1.1811,-1.2307,0.0,0.0,-1.6371,-1.8536,-1.8987,-1.935,-1.9708,-1.9708,-1.9708,-1.9708,-1.9708,-1.9708,-1.9708,-1.9708,-1.9704,-1.9723,-2.016,-2.0257,-2.021,-2.1724,-2.2228,-2.2285,-2.4682,-2.5615,-2.5719,-2.6617,-2.7225,-2.76,-2.76,-2.76,-2.76,-2.76,-2.76,-2.7604,-2.7594,-2.8215,-2.9057,-2.9791,-3.024,-3.0915,-3.2688,-3.3417,-3.4034,-3.5297,-3.5482,-3.5424,-3.5655,-3.5948,-3.6251,-3.6427,-3.7636,-3.7962,-3.5879,-3.5499,-3.5504,-3.5504,-3.5504,-3.5504,-3.5504,-3.551,-3.5922,-3.7011,-3.8437,-3.8273,-3.5704,-3.5488,-3.5504,-3.5504,-3.5504,-3.5504,-3.5504,-3.5504,-3.5504,-3.5504,-3.5504,-3.5504,-3.5504,-3.5504,-3.5504,-3.5504,-3.5504,-3.5504]}]]